[[{"header":{"parameterUnit":"m.s-1","parameterCategory":1,"la1":30.6,"la2":29.2853,"lo1":-89.7004,"lo2":-87.6739,"dy":0.0162,"dx":0.0183,"nx":112,"ny":82,"refTime":"2023-03-22T18:00:00:Z","depth":0,"parameterNumber":2,"parameterNumberName":"U-component_of_WINDS"},"data":[0.0,0.0,0.0,0.0,0.0,0.0,0.0,0.0,0.0,0.0,0.0,0.0,0.0,0.0,0.0,0.0,0.0,0.0,0.0,0.0,0.0,0.0,0.0,0.0,0.0,0.0,0.0,0.0,0.0,0.0,0.0,0.0,0.0,0.0,0.0,0.0,0.0,0.0,0.0,0.0,0.0,0.0,0.0,0.0,0.0,0.0,0.0,0.0,0.0,0.0,0.0,0.0,0.0,0.0,0.0,0.0,0.0,0.0,0.0,0.0,0.0,0.0,0.0,0.0,0.0,0.0,0.0,0.0,0.0,0.0,0.0,0.0,0.0,0.0,0.0,0.0,0.0,0.0,0.0,0.0,0.0,0.0,0.0,0.0,0.0,0.0,0.0,0.0,0.0,0.0,-1.1058,-1.1866,-1.2649,-1.3088,-1.2962,-1.3808,-1.4424,-1.4589,0.0,0.0,0.0,0.0,0.0,0.0,0.0,0.0,0.0,0.0,0.0,0.0,0.0,0.0,0.0,0.0,0.0,0.0,0.0,0.0,0.0,0.0,0.0,0.0,0.0,0.0,0.0,0.0,0.0,0.0,0.0,0.0,0.0,0.0,0.0,0.0,0.0,0.0,0.0,0.0,0.0,0.0,0.0,0.0,0.0,0.0,0.0,0.0,0.0,0.0,0.0,0.0,0.0,0.0,0.0,0.0,0.0,0.0,0.0,0.0,0.0,0.0,0.0,0.0,0.0,0.0,0.0,0.0,0.0,0.0,0.0,0.0,0.0,0.0,0.0,0.0,0.0,0.0,0.0,0.0,0.0,0.0,0.0,0.0,0.0,0.0,0.0,0.0,0.0,0.0,0.0,0.0,0.0,0.0,0.0,0.0,0.0,0.0,0.0,0.0,0.0,0.0,0.0,0.0,-1.0356,-1.117,-1.2222,-1.3076,-1.36,-1.2838,-1.3021,-1.4586,0.0,0.0,0.0,0.0,0.0,0.0,0.0,0.0,0.0,0.0,0.0,0.0,0.0,0.0,0.0,0.0,0.0,0.0,0.0,0.0,0.0,0.0,0.0,0.0,0.0,0.0,0.0,0.0,0.0,0.0,0.0,0.0,0.0,0.0,0.0,0.0,0.0,0.0,0.0,0.0,0.0,0.0,0.0,0.0,0.0,0.0,0.0,0.0,0.0,0.0,0.0,0.0,0.0,0.0,0.0,0.0,0.0,0.0,0.0,0.0,0.0,0.0,0.0,0.0,0.0,0.0,0.0,0.0,0.0,0.0,0.0,0.0,0.0,0.0,0.0,0.0,0.0,0.0,0.0,0.0,0.0,0.0,0.0,0.0,0.0,0.0,0.0,0.0,0.0,0.0,0.0,0.0,0.0,0.0,0.0,0.0,0.0,0.0,0.0,0.0,0.0,0.0,0.0,-1.1165,-1.1564,-1.0559,-1.1538,-1.2373,-1.2688,-1.2176,-1.2742,-1.4833,-1.478,0.0,0.0,0.0,0.0,0.0,0.0,0.0,0.0,0.0,0.0,0.0,0.0,0.0,0.0,0.0,0.0,0.0,0.0,0.0,0.0,0.0,0.0,0.0,0.0,0.0,0.0,0.0,0.0,0.0,0.0,0.0,0.0,0.0,0.0,0.0,0.0,0.0,0.0,0.0,0.0,0.0,0.0,0.0,0.0,0.0,0.0,0.0,0.0,0.0,0.0,0.0,0.0,0.0,0.0,0.0,0.0,0.0,0.0,0.0,0.0,0.0,0.0,0.0,0.0,0.0,0.0,0.0,0.0,0.0,0.0,0.0,0.0,0.0,0.0,0.0,0.0,0.0,0.0,0.0,0.0,0.0,0.0,0.0,0.0,0.0,0.0,0.0,0.0,0.0,0.0,0.0,0.0,0.0,0.0,0.0,0.0,0.0,0.0,0.0,0.0,0.0,0.0,-1.1977,-1.2081,-1.0103,-1.1042,-1.1805,-1.1805,-1.1725,-1.2591,-1.4703,-1.4069,0.0,0.0,0.0,0.0,0.0,0.0,0.0,0.0,0.0,0.0,0.0,0.0,0.0,0.0,0.0,0.0,0.0,0.0,0.0,0.0,0.0,0.0,0.0,0.0,0.0,0.0,0.0,0.0,0.0,0.0,0.0,0.0,0.0,0.0,0.0,0.0,0.0,0.0,0.0,0.0,0.0,0.0,0.0,0.0,0.0,0.0,0.0,0.0,0.0,0.0,0.0,0.0,0.0,0.0,0.0,0.0,0.0,0.0,0.0,0.0,0.0,0.0,0.0,0.0,0.0,0.0,0.0,0.0,0.0,0.0,0.0,0.0,0.0,0.0,0.0,0.0,0.0,0.0,0.0,0.0,0.0,0.0,0.0,0.0,0.0,0.0,0.0,0.0,0.0,0.0,0.0,0.0,0.0,0.0,0.0,0.0,0.0,0.0,0.0,0.0,0.0,0.0,-1.0458,-1.0246,-0.9932,-1.1042,-1.1805,-1.1805,-1.1512,-1.2042,-1.3699,-1.3515,0.0,0.0,0.0,0.0,0.0,0.0,0.0,0.0,0.0,0.0,0.0,0.0,0.0,0.0,0.0,0.0,0.0,0.0,0.0,0.0,0.0,0.0,0.0,0.0,0.0,0.0,0.0,0.0,0.0,0.0,0.0,0.0,0.0,0.0,0.0,0.0,0.0,0.0,0.0,0.0,0.0,0.0,0.0,0.0,0.0,0.0,0.0,0.0,0.0,0.0,0.0,0.0,0.0,0.0,0.0,0.0,0.0,0.0,0.0,0.0,0.0,0.0,0.0,0.0,0.0,0.0,0.0,0.0,0.0,0.0,0.0,0.0,0.0,0.0,0.0,0.0,0.0,0.0,0.0,0.0,0.0,0.0,0.0,0.0,0.0,0.0,0.0,0.0,0.0,0.0,0.0,0.0,0.0,0.0,0.0,0.0,0.0,0.0,0.0,0.0,0.0,0.0,-1.0751,-1.0444,-0.9387,-1.0413,-1.1181,-1.1181,-1.1444,-1.2291,-1.3901,0.0,0.0,0.0,0.0,0.0,0.0,0.0,0.0,0.0,0.0,0.0,0.0,0.0,0.0,0.0,0.0,0.0,0.0,0.0,0.0,0.0,0.0,0.0,0.0,0.0,0.0,0.0,0.0,0.0,0.0,0.0,0.0,0.0,0.0,0.0,0.0,0.0,0.0,0.0,0.0,0.0,0.0,0.0,0.0,0.0,0.0,0.0,0.0,0.0,0.0,0.0,0.0,0.0,0.0,0.0,0.0,0.0,0.0,0.0,0.0,0.0,0.0,0.0,0.0,0.0,0.0,0.0,0.0,0.0,0.0,0.0,0.0,0.0,0.0,0.0,0.0,0.0,0.0,0.0,0.0,0.0,0.0,0.0,0.0,0.0,0.0,0.0,0.0,0.0,0.0,0.0,0.0,0.0,0.0,0.0,0.0,0.0,0.0,0.0,0.0,0.0,0.0,-1.097,-1.0889,-1.0436,-0.9334,-1.0354,-1.1121,-1.1121,-1.155,-1.2426,-1.3919,0.0,0.0,0.0,0.0,0.0,0.0,0.0,0.0,0.0,0.0,0.0,0.0,0.0,0.0,0.0,0.0,0.0,0.0,0.0,0.0,0.0,0.0,0.0,0.0,0.0,0.0,0.0,0.0,0.0,0.0,0.0,0.0,0.0,0.0,0.0,0.0,0.0,0.0,0.0,0.0,0.0,0.0,0.0,0.0,0.0,0.0,0.0,0.0,0.0,0.0,0.0,0.0,0.0,0.0,0.0,0.0,0.0,0.0,0.0,0.0,0.0,0.0,0.0,0.0,0.0,0.0,0.0,0.0,0.0,0.0,0.0,0.0,0.0,0.0,0.0,0.0,0.0,0.0,0.0,0.0,0.0,0.0,0.0,0.0,0.0,0.0,0.0,0.0,0.0,0.0,0.0,0.0,0.0,0.0,0.0,0.0,0.0,0.0,0.0,0.0,0.0,0.0,-1.1575,-1.0632,-0.9875,-0.989,-1.1012,-1.1775,-1.179,-1.179,-1.2317,0.0,0.0,0.0,0.0,0.0,0.0,0.0,0.0,0.0,0.0,0.0,0.0,0.0,0.0,0.0,0.0,0.0,0.0,0.0,0.0,0.0,0.0,0.0,0.0,0.0,0.0,0.0,0.0,0.0,0.0,0.0,0.0,0.0,0.0,0.0,0.0,0.0,0.0,0.0,0.0,0.0,0.0,0.0,0.0,0.0,0.0,0.0,0.0,0.0,0.0,0.0,0.0,0.0,0.0,0.0,0.0,0.0,0.0,0.0,0.0,0.0,0.0,0.0,0.0,0.0,0.0,0.0,0.0,0.0,0.0,0.0,0.0,0.0,0.0,0.0,0.0,0.0,0.0,0.0,0.0,0.0,0.0,0.0,0.0,0.0,0.0,0.0,0.0,0.0,0.0,0.0,0.0,0.0,0.0,0.0,0.0,0.0,0.0,0.0,0.0,0.0,0.0,0.0,-1.1445,-0.9761,-0.8679,-0.9152,-0.9959,-1.0638,-1.1062,-1.1318,-1.2115,-1.3712,0.0,0.0,0.0,0.0,0.0,0.0,0.0,0.0,0.0,0.0,0.0,0.0,0.0,0.0,0.0,0.0,0.0,0.0,0.0,0.0,0.0,0.0,0.0,0.0,0.0,0.0,0.0,0.0,0.0,0.0,0.0,0.0,0.0,0.0,0.0,0.0,0.0,0.0,0.0,0.0,0.0,0.0,0.0,0.0,0.0,0.0,0.0,0.0,0.0,0.0,0.0,0.0,0.0,0.0,0.0,0.0,0.0,0.0,0.0,0.0,0.0,0.0,0.0,0.0,0.0,0.0,0.0,0.0,0.0,0.0,0.0,0.0,0.0,0.0,0.0,0.0,0.0,0.0,0.0,0.0,0.0,0.0,0.0,0.0,0.0,0.0,0.0,0.0,0.0,0.0,0.0,0.0,0.0,0.0,0.0,0.0,0.0,0.0,0.0,0.0,0.0,0.0,-1.2164,-1.0217,-0.894,-0.9584,-1.0258,-1.0802,-1.1166,-1.126,-1.1839,-1.3106,0.0,0.0,0.0,0.0,0.0,0.0,0.0,0.0,0.0,0.0,0.0,0.0,0.0,0.0,0.0,0.0,0.0,0.0,0.0,0.0,0.0,0.0,0.0,0.0,0.0,0.0,0.0,0.0,0.0,0.0,0.0,0.0,0.0,0.0,0.0,0.0,0.0,0.0,0.0,0.0,0.0,0.0,0.0,0.0,0.0,0.0,0.0,0.0,0.0,0.0,0.0,0.0,0.0,0.0,0.0,0.0,0.0,0.0,0.0,0.0,0.0,0.0,0.0,0.0,0.0,0.0,0.0,0.0,0.0,0.0,0.0,0.0,0.0,0.0,0.0,0.0,0.0,0.0,0.0,0.0,0.0,0.0,0.0,0.0,0.0,0.0,0.0,0.0,0.0,0.0,0.0,0.0,0.0,0.0,0.0,0.0,0.0,0.0,0.0,0.0,0.0,0.0,-1.3198,-1.1335,-1.0039,-1.0648,-1.1301,-1.173,-1.179,-1.1468,-1.1518,-1.213,0.0,0.0,0.0,0.0,0.0,0.0,0.0,0.0,0.0,0.0,0.0,0.0,0.0,0.0,0.0,0.0,0.0,0.0,0.0,0.0,0.0,0.0,0.0,0.0,0.0,0.0,0.0,0.0,0.0,0.0,0.0,0.0,0.0,0.0,0.0,0.0,0.0,0.0,0.0,0.0,0.0,0.0,0.0,0.0,0.0,0.0,0.0,0.0,0.0,0.0,0.0,0.0,0.0,0.0,0.0,0.0,0.0,0.0,0.0,0.0,-1.6532,-1.6606,0.0,0.0,0.0,0.0,0.0,0.0,0.0,0.0,0.0,0.0,0.0,0.0,0.0,0.0,0.0,0.0,0.0,0.0,0.0,0.0,0.0,0.0,0.0,0.0,0.0,0.0,0.0,0.0,0.0,0.0,0.0,0.0,0.0,0.0,0.0,0.0,0.0,0.0,0.0,0.0,-1.2439,-1.0571,-0.9368,-1.0024,-1.0643,-1.1226,-1.176,-1.1302,-1.1439,-1.2497,-1.1937,0.0,0.0,0.0,0.0,0.0,0.0,0.0,0.0,0.0,0.0,0.0,0.0,0.0,0.0,0.0,0.0,0.0,0.0,0.0,0.0,0.0,0.0,0.0,0.0,0.0,0.0,0.0,0.0,0.0,0.0,0.0,0.0,0.0,0.0,0.0,0.0,0.0,0.0,0.0,0.0,0.0,0.0,0.0,0.0,0.0,0.0,0.0,0.0,0.0,0.0,0.0,0.0,0.0,0.0,0.0,0.0,0.0,0.0,0.0,-1.7151,-1.7076,0.0,0.0,0.0,0.0,0.0,0.0,0.0,0.0,0.0,0.0,0.0,0.0,0.0,0.0,0.0,0.0,0.0,0.0,0.0,0.0,0.0,0.0,0.0,0.0,0.0,0.0,0.0,0.0,0.0,0.0,0.0,0.0,0.0,0.0,0.0,0.0,0.0,0.0,0.0,0.0,-1.2603,-1.1047,-1.0078,-1.0743,-1.1091,-1.142,-1.1775,-1.137,-1.129,-1.1794,-1.1682,0.0,0.0,0.0,0.0,0.0,0.0,0.0,0.0,0.0,0.0,0.0,0.0,0.0,0.0,0.0,0.0,0.0,0.0,0.0,0.0,0.0,0.0,0.0,0.0,0.0,0.0,0.0,0.0,0.0,0.0,0.0,0.0,0.0,0.0,0.0,0.0,0.0,0.0,0.0,0.0,0.0,0.0,0.0,0.0,0.0,0.0,0.0,0.0,0.0,0.0,0.0,0.0,0.0,-1.9088,-1.9271,-1.9693,-1.9423,-1.9087,-1.8733,-1.7736,-1.748,-1.7721,-1.6853,0.0,0.0,0.0,0.0,0.0,0.0,0.0,0.0,0.0,0.0,0.0,0.0,0.0,0.0,0.0,0.0,0.0,0.0,0.0,0.0,0.0,0.0,0.0,0.0,-1.5564,-1.4934,-1.4618,0.0,0.0,0.0,0.0,0.0,0.0,0.0,0.0,0.0,0.0,0.0,-1.3012,-1.1773,-1.1007,-1.1565,-1.173,-1.1805,-1.1805,-1.149,-1.1207,-1.0991,-1.1601,-1.1703,0.0,0.0,0.0,0.0,0.0,0.0,0.0,0.0,0.0,0.0,0.0,0.0,0.0,0.0,0.0,0.0,0.0,0.0,0.0,0.0,0.0,0.0,0.0,0.0,0.0,0.0,0.0,0.0,0.0,0.0,0.0,0.0,-1.765,-1.7928,0.0,0.0,0.0,0.0,0.0,0.0,0.0,0.0,0.0,0.0,0.0,0.0,0.0,-1.8969,-1.8968,-2.0041,-2.0354,-1.9869,-2.0242,-2.0183,-1.9693,-1.9074,-1.9071,-1.951,-1.8794,0.0,-1.8461,-1.7376,0.0,0.0,0.0,0.0,0.0,0.0,0.0,0.0,0.0,0.0,0.0,0.0,0.0,0.0,0.0,0.0,0.0,0.0,0.0,0.0,0.0,0.0,-1.6156,-1.679,-1.6592,-1.6341,0.0,-1.5904,-1.5081,-1.4775,-1.4528,0.0,0.0,0.0,0.0,0.0,0.0,0.0,-1.2943,-1.1725,-1.0827,-1.0917,-1.145,-1.1805,-1.1805,-1.149,-1.1273,-1.1253,-1.1143,-1.1485,-1.2403,-1.2699,0.0,0.0,0.0,0.0,0.0,0.0,0.0,0.0,0.0,0.0,0.0,0.0,0.0,0.0,0.0,0.0,0.0,0.0,0.0,0.0,0.0,0.0,0.0,0.0,0.0,0.0,0.0,0.0,0.0,-1.8346,-1.8825,-1.884,-1.8562,-1.8594,0.0,0.0,0.0,0.0,0.0,0.0,0.0,0.0,0.0,-1.9584,-2.0637,-2.1201,-2.1122,-2.1672,-2.1803,-2.1517,-2.1345,-2.1111,-2.0797,-2.0513,-2.0543,-2.0816,-2.0513,-2.0168,-1.9746,-1.8755,-1.853,-1.8788,0.0,0.0,0.0,0.0,-1.7297,-1.6732,-1.6545,-1.6694,-1.7019,-1.7318,0.0,0.0,0.0,0.0,0.0,0.0,0.0,0.0,0.0,0.0,-1.7148,-1.7202,-1.6863,-1.6694,-1.7397,-1.6869,-1.6307,0.0,-1.694,-1.7136,-1.6591,0.0,0.0,0.0,0.0,-1.2588,-1.2409,-1.1784,-1.1361,-1.1361,-1.1954,-1.222,-1.1835,-1.2007,-1.1893,-1.1336,-1.1184,-1.1286,-1.167,-1.2211,-1.2798,0.0,0.0,0.0,0.0,0.0,0.0,0.0,0.0,0.0,0.0,0.0,0.0,0.0,0.0,0.0,0.0,0.0,0.0,0.0,0.0,0.0,0.0,0.0,0.0,0.0,0.0,0.0,0.0,-1.956,-2.0059,-2.018,-1.9783,-1.9644,0.0,0.0,0.0,0.0,0.0,0.0,-2.0235,-2.106,-2.1577,-2.1744,-2.2915,-2.3497,-2.3391,-2.3371,-2.3305,-2.3162,-2.2642,-2.2315,-2.2173,-2.2024,-2.1969,-2.1934,-2.1769,-2.1321,-2.0643,-1.9808,-1.9154,-1.8706,-1.9189,-1.9049,-1.8608,-1.8852,-1.8765,-1.8547,-1.8523,-1.8775,-1.9152,-1.9373,-1.9483,-1.936,-1.8335,0.0,0.0,0.0,0.0,-1.7395,-1.741,-1.7731,-1.8011,-1.7925,-1.7612,-1.7505,-1.8209,-1.815,-1.7956,0.0,-1.8472,-1.878,-1.8037,0.0,0.0,0.0,0.0,-1.3339,-1.2708,-1.2441,-1.2314,-1.2314,-1.2759,-1.2849,-1.2358,-1.2774,-1.2665,-1.1733,-1.1678,-1.1517,-1.1143,-1.1906,-1.2576,-1.3048,0.0,0.0,0.0,0.0,0.0,0.0,0.0,0.0,0.0,0.0,0.0,0.0,0.0,0.0,0.0,0.0,0.0,0.0,0.0,0.0,0.0,0.0,0.0,0.0,0.0,0.0,0.0,0.0,0.0,-2.2245,-2.0816,0.0,0.0,0.0,0.0,-2.1721,-2.2976,-2.3607,-2.3389,-2.4609,-2.5013,-2.4331,-2.4932,-2.5271,-2.5252,-2.5192,-2.4902,-2.4419,-2.4312,-2.4003,-2.349,-2.2912,-2.2643,-2.2613,-2.1984,-2.1321,-2.0643,-1.9974,-1.9548,-1.935,-1.9314,-1.9207,-1.908,-1.9233,-1.8909,-1.8357,-1.7901,-1.7773,-1.7891,-1.8536,-1.904,-1.9431,-1.9482,-1.8856,0.0,0.0,-1.8043,-1.7735,-1.8442,-1.8621,-1.88,-1.9427,-1.9564,-1.9549,-1.9612,-1.9979,-1.9805,0.0,-1.725,-1.6908,-1.7121,0.0,-1.5956,-1.6036,-1.5332,-1.4758,-1.4674,-1.4094,-1.3692,-1.3692,-1.3722,-1.375,-1.3692,-1.3722,-1.3453,-1.2777,-1.2718,-1.2437,-1.1776,-1.1504,-1.1935,-1.3167,-1.3501,0.0,0.0,0.0,0.0,0.0,0.0,0.0,0.0,0.0,0.0,0.0,0.0,0.0,0.0,0.0,0.0,0.0,0.0,0.0,0.0,0.0,0.0,0.0,0.0,0.0,0.0,0.0,0.0,-2.3942,-2.3779,0.0,-2.4297,-2.3963,-2.3881,-2.4337,-2.4694,-2.5045,-2.5376,-2.5847,-2.6185,-2.6368,-2.6999,-2.7322,-2.7334,-2.7313,-2.7194,-2.701,-2.6145,-2.5431,-2.4802,-2.4189,-2.3684,-2.3272,-2.3026,-2.2562,-2.1984,-2.1729,-2.0838,-1.9581,-1.9566,-1.953,-1.9475,-1.9548,-1.97,-1.9867,-1.9698,-1.9627,-1.9597,-1.9405,-1.9158,-1.8956,-1.9009,-1.8793,-1.8565,-1.8648,-1.8802,-1.9014,-1.9271,-1.9348,-1.9408,-1.9648,-1.9708,-1.9708,-1.9708,-1.9851,-1.9785,-1.9121,-1.8723,-1.8593,-1.8862,-1.7874,-1.7254,-1.7834,-1.6517,-1.5303,-1.4856,-1.4214,-1.3797,-1.3797,-1.4199,-1.4274,-1.3842,-1.4199,-1.4154,-1.3481,-1.3436,-1.3331,-1.3107,-1.2553,-1.2878,-1.4194,-1.3632,-1.404,0.0,0.0,0.0,0.0,0.0,0.0,0.0,0.0,0.0,0.0,0.0,0.0,0.0,0.0,0.0,0.0,0.0,0.0,0.0,0.0,0.0,0.0,0.0,0.0,0.0,0.0,-2.4851,-2.6224,-2.6332,-2.6485,-2.6967,-2.6836,-2.6667,-2.6574,-2.6673,-2.6883,-2.7315,-2.7774,-2.8249,-2.8744,-2.938,-2.9725,-2.9721,-2.9225,-2.8881,-2.8681,-2.7593,-2.664,-2.5833,-2.5428,-2.4768,-2.3939,-2.3939,-2.346,-2.2703,-2.2703,-2.1789,-2.0348,-2.0142,-1.9884,-1.9738,-1.9944,-2.0183,-2.0363,-2.0363,-2.0363,-2.0288,-1.9824,-1.9408,-1.9031,-1.9031,-1.9031,-1.9031,-1.9031,-1.9346,-1.9708,-1.9708,-1.9708,-1.9708,-1.9708,-1.9708,-1.9708,-1.9708,-1.9708,-1.9708,-1.9708,-1.9456,-1.9292,-1.9466,-1.8498,-1.7987,-1.883,-1.7527,-1.6383,-1.6276,-1.5393,-1.4784,-1.4784,-1.4992,-1.496,-1.4513,-1.5163,-1.5191,-1.4199,-1.444,-1.4365,-1.3812,-1.3598,-1.3895,-1.4821,-1.3972,-1.4351,-1.5969,0.0,0.0,0.0,0.0,0.0,0.0,0.0,0.0,0.0,0.0,0.0,0.0,0.0,0.0,0.0,0.0,0.0,0.0,0.0,0.0,0.0,0.0,0.0,-2.5212,-2.5616,-2.6829,-2.9121,-2.8368,-2.8074,-2.9046,-2.8949,-2.8743,-2.8475,-2.9049,-2.9402,-2.9325,-3.0543,-3.1342,-3.145,-3.2026,-3.2327,-3.2327,-3.0886,-2.9911,-2.9389,-2.8626,-2.7672,-2.6598,-2.6554,-2.586,-2.4657,-2.4634,-2.3939,-2.2793,-2.2793,-2.2388,-2.168,-2.0991,-2.0303,-1.9813,-2.0438,-2.0288,-1.9768,-1.9768,-1.9768,-1.9768,-1.9708,-1.9708,-1.9708,-1.9708,-1.9708,-1.9708,-1.9708,-1.9708,-1.9708,-1.9708,-1.9708,-1.9708,-1.9708,-1.9708,-1.9708,-1.9708,-1.9708,-1.9708,-1.9708,-1.9166,-1.8732,-1.8732,-1.8192,-1.808,-1.8976,-1.8326,0.0,-1.8961,-1.7707,-1.6741,-1.6771,-1.6248,-1.5888,-1.5873,-1.671,-1.654,-1.4929,-1.5675,-1.5489,-1.3929,-1.4468,-1.4836,-1.49,-1.4583,-1.479,-1.5492,0.0,0.0,0.0,0.0,0.0,0.0,0.0,0.0,0.0,0.0,0.0,0.0,0.0,0.0,0.0,0.0,0.0,0.0,0.0,0.0,0.0,0.0,-2.6919,-2.6918,-2.8531,-3.0152,-3.1332,-3.1649,-3.1893,-3.2152,-3.2148,-3.2085,-3.2008,-3.2173,-3.2253,-3.2253,-3.2579,-3.282,-3.2858,-3.3001,-3.3102,-3.3102,-3.2154,-3.1624,-3.1466,-3.029,-2.9297,-2.8505,-2.7611,-2.6762,-2.5951,-2.5523,-2.5136,-2.4807,-2.4807,-2.4118,-2.2921,-2.1316,-2.0583,-2.0393,-2.0094,-2.0468,-2.1141,-2.1141,-2.1141,-2.0976,-2.0022,-1.9708,-1.9708,-1.9708,-1.9708,-1.9708,-1.9708,-1.9708,-1.9708,-1.9708,-1.9708,-1.9708,-1.9708,-1.9708,-1.9708,-1.9708,-1.9708,-1.9708,-1.9708,-1.9558,-1.9438,-1.9438,-1.9271,-1.9246,-1.9512,-1.8901,0.0,-1.8772,-1.8,-1.7657,-1.8301,-1.8259,-1.8002,-1.7516,-1.77,-1.7197,-1.5618,-1.5765,-1.5705,-1.5274,-1.496,-1.4809,-1.4823,-1.5116,-1.5372,0.0,0.0,0.0,0.0,0.0,0.0,0.0,0.0,0.0,0.0,0.0,0.0,0.0,0.0,0.0,0.0,0.0,0.0,0.0,0.0,0.0,0.0,-2.8732,-3.0205,-3.0864,-3.1351,-3.2293,-3.3986,-3.4269,-3.4455,-3.4793,-3.481,-3.4556,-3.3914,-3.3863,-3.3728,-3.3423,-3.3694,-3.3863,-3.3863,-3.3863,-3.3863,-3.3863,-3.3119,-3.2615,-3.2293,-3.1511,-3.0643,-2.9704,-2.9,-2.8031,-2.6898,-2.6816,-2.6458,-2.6009,-2.625,-2.5575,0.0,0.0,0.0,0.0,0.0,-2.0561,-2.1665,-2.138,-2.1096,-2.0827,-2.0621,-2.0348,-2.0168,-2.0456,-2.0546,-2.0546,-2.0546,-2.0546,-2.0468,-2.0183,-2.0124,-2.0124,-2.0124,-2.0124,-2.0198,-2.0486,-2.0318,-2.0198,-2.0468,-2.0082,0.0,-2.0064,-1.9902,-1.9816,-2.0195,-1.9611,-1.9246,-1.9622,-1.8768,-1.8302,-1.8827,-1.8662,-1.8362,-1.7968,-1.8292,0.0,0.0,0.0,-1.6713,-1.6608,-1.6548,0.0,0.0,0.0,-1.7044,-1.7197,0.0,0.0,0.0,-1.8392,-1.8654,0.0,0.0,0.0,0.0,0.0,0.0,0.0,0.0,0.0,0.0,0.0,0.0,0.0,0.0,0.0,0.0,-3.2096,-3.418,-3.5752,-3.4218,-3.3935,-3.6609,-3.6299,-3.6146,-3.6863,-3.6931,-3.6372,-3.4979,-3.481,-3.4472,-3.3829,0.0,0.0,0.0,0.0,-3.4624,-3.4624,-3.3897,-3.3152,-3.2429,-3.2344,-3.1644,-3.0393,-3.033,-2.9383,-2.7825,-2.8309,-2.7872,-2.6867,-2.7397,-2.6899,-2.5679,-2.41,-2.2398,-2.0752,-2.0228,-2.0801,-2.1724,-2.1122,0.0,0.0,-2.1335,-2.1306,-2.0912,-2.1515,-2.1695,-2.1695,-2.1695,-2.1695,-2.156,-2.0976,-2.0763,-2.0718,-2.0793,-2.0748,-2.0882,-2.156,-2.1231,-2.0991,-2.1575,-2.0741,-2.0079,-2.0598,-2.0139,-1.9975,-2.0731,-2.0195,-1.999,-2.0764,-1.965,-1.8837,-1.8946,0.0,0.0,-1.7971,-1.8729,-1.8761,-1.7758,-1.7909,-1.7941,-1.7713,-1.8448,-1.875,-1.8597,-1.8765,-1.9029,-1.9402,-1.9402,-1.9971,-2.1039,-2.0083,-2.0415,0.0,0.0,0.0,0.0,0.0,0.0,0.0,0.0,0.0,0.0,0.0,0.0,0.0,0.0,0.0,-3.221,-3.4047,-3.5904,-3.8041,-3.7466,-3.7043,-3.7618,-3.7567,-3.7533,-3.7669,-3.7686,-3.7567,-3.7263,-3.6688,-3.6288,-3.6152,-3.5673,-3.538,-3.538,-3.538,-3.538,-3.538,-3.4658,-3.3914,-3.3186,0.0,0.0,-3.1015,-3.0518,-3.0105,-2.9745,-2.9353,-2.9074,-2.8834,-2.8968,-2.8536,-2.7508,-2.4176,-2.2293,-2.156,-2.1969,-2.2283,-2.2493,-2.2358,-2.2224,-2.2074,-2.1784,-2.1605,-2.153,-2.1665,-2.1695,0.0,-2.1695,-2.1695,-2.1665,-2.1545,-2.1111,-2.0838,-2.138,-2.1096,-2.0882,-2.156,-2.1605,-2.1545,-2.1665,-2.1485,-2.1186,-2.0763,-2.0139,-1.9771,-1.9927,-1.9819,-1.9771,-1.9927,-1.9681,-1.9795,-2.047,-2.0443,-2.0139,-1.9593,-1.9721,-1.9212,-1.779,-1.7747,-1.7747,-1.7713,-1.8204,-1.8312,-1.7893,-1.8296,-1.8795,-1.9402,-1.9402,-2.0115,-2.1476,-2.1268,-2.133,0.0,0.0,0.0,0.0,0.0,0.0,0.0,0.0,0.0,0.0,0.0,-2.8082,0.0,0.0,-3.2896,-3.5234,-3.6563,-3.7838,-3.9351,-3.9225,-3.8988,-3.8988,-3.8667,-3.8447,-3.8447,-3.8447,-3.8311,-3.7939,-3.755,-3.7347,-3.7347,-3.6975,-3.6586,-3.6214,-3.6197,-3.6011,-3.56,-3.5228,-3.4675,-3.3947,-3.3203,-3.2459,-3.1732,-3.1066,-3.0597,-3.0293,-3.0293,-3.0123,-2.9816,-2.9496,-2.9144,-2.8598,-2.6067,-2.4452,-2.3498,-2.2556,-2.2418,-2.2703,-2.2703,-2.2478,-2.2254,-2.2547,-2.2443,-2.2269,-2.2562,-2.2652,-2.2652,-2.2652,-2.2652,-2.2577,-2.2283,-2.1934,-2.1784,-2.2134,-2.1934,-2.1874,-2.2503,-2.2398,-2.2298,-2.2592,-2.2143,-2.1695,-2.1695,-2.0872,-2.0094,-1.9753,-1.9708,-1.9708,-1.9708,-1.9708,-1.9864,-2.0303,-2.0352,-2.0216,-1.9884,-2.0035,-1.9693,-1.8631,-1.9055,-1.92,-1.8858,-1.9406,-1.9594,-1.9355,-1.9578,-1.9956,-2.051,-2.051,-2.0996,-2.1943,-2.1943,-2.1943,0.0,0.0,0.0,0.0,0.0,0.0,0.0,0.0,-2.6487,-2.8653,-3.0089,-3.1546,-3.3453,-3.4556,-3.5808,-3.7787,-3.8717,-3.9436,-4.0028,-4.0096,-4.0096,-4.0096,-3.9588,-3.9208,-3.9208,-3.9208,-3.8954,-3.8379,-3.8193,-3.8125,-3.8125,-3.799,-3.7635,-3.7032,-3.688,-3.6508,-3.5836,-3.5667,-3.5233,-3.4489,-3.3897,-3.3152,-3.2276,-3.1684,-3.1073,-3.0497,-3.0995,-3.0918,-3.0427,-2.9888,-2.9676,-2.9553,-2.8274,-2.7134,-2.5942,-2.3381,-2.2626,-2.2882,-2.2882,-2.2523,-2.2233,-2.3266,-2.3266,-2.2972,-2.3445,-2.3595,-2.3595,-2.3595,-2.3595,-2.349,-2.3002,-2.2793,-2.2733,-2.2853,-2.2793,-2.2868,-2.346,-2.3227,-2.3017,-2.3505,-2.2772,-2.2203,-2.2628,-2.1799,-2.0827,-2.0004,-1.9765,-1.9708,-1.9708,-1.9708,-1.9708,-1.9708,-1.9708,-1.9708,-1.9708,-2.007,-2.0097,-1.9603,-2.0463,-2.0767,-2.0221,-2.0797,-2.1071,-2.0991,-2.1071,-2.1275,-2.1597,-2.1597,-2.1838,-2.2296,-2.2296,-2.2296,-2.1824,-2.1874,-2.3517,-2.664,-2.6996,-2.7725,0.0,0.0,-3.1092,-3.3288,-3.388,-3.4286,-3.5177,-3.6552,-3.7821,-3.8717,-3.9503,-4.0011,-4.0096,-4.0096,-4.0096,-4.0096,-4.0028,-3.9977,-3.9977,-3.9977,-3.9943,-3.9859,-3.9266,-3.887,-3.887,-3.8261,-3.7872,-3.7787,-3.7127,-3.6761,-3.6677,-3.596,-3.5233,-3.4489,-3.4404,-3.3664,-3.2293,-3.2209,-3.1779,-3.1095,-3.1171,-3.1151,-3.1095,-3.101,-3.0977,-3.0853,-2.9569,-2.9,-2.8576,-2.6,-2.4405,-2.349,-2.349,-2.3445,-2.3415,-2.355,-2.355,-2.3505,-2.358,-2.3595,-2.3595,-2.3595,-2.3595,-2.358,-2.352,-2.3107,-2.2838,-2.337,-2.3092,-2.2868,-2.346,-2.355,-2.352,-2.3595,-2.3475,-2.3236,-2.2778,-2.2583,-2.2059,-2.0782,-2.0079,-1.9708,-1.9708,-1.9708,-1.9708,-1.9708,-1.9708,-1.9708,-1.9708,-2.007,-2.0283,-2.0206,-2.07,-2.0959,-2.0895,-2.1289,-2.1368,-2.1023,-2.1353,-2.1568,-2.1597,-2.1597,-2.1838,-2.2296,-2.2296,-2.2296,-2.588,-2.6251,-2.725,0.0,-2.9907,-3.1094,-3.2835,-3.3173,-3.3626,-3.5475,-3.6502,-3.733,-3.8075,-3.8734,-3.9276,0.0,-3.991,-4.0096,-4.0096,-3.974,-3.9317,-3.887,-3.9191,-3.9639,-4.0062,-4.0096,-4.0096,-4.0096,-3.9808,-3.9656,-3.9656,-3.9368,-3.8971,-3.8548,-3.8227,-3.7675,-3.6812,-3.6451,-3.591,-3.5131,-3.4709,-3.4167,-3.3563,-3.2699,-3.1904,-3.119,-3.119,-3.119,-3.119,-3.119,-3.119,-3.1137,-3.0603,-2.9962,-2.9,-2.644,-2.5404,-2.5168,-2.4424,-2.4448,-2.4762,-2.4762,-2.4762,-2.4762,-2.4762,-2.4762,-2.4687,-2.4276,-2.4171,-2.4171,-2.4171,-2.3977,-2.3969,-2.4612,-2.4567,-2.4462,-2.4717,-2.4762,-2.4762,-2.4762,-2.444,-2.4096,-2.3864,-2.3176,-2.2508,-2.1934,-2.0961,-2.0139,-1.9753,-1.9708,-1.9708,-1.9708,-1.9708,-1.9708,-1.9708,-2.0328,-2.0715,-2.0715,-2.1369,-2.1751,-2.1751,-2.193,-2.193,-2.1751,-2.1913,-2.2003,-2.2003,-2.2003,-2.2106,-2.2296,-2.2296,-2.2296,-2.862,-2.9381,-3.004,-3.1055,-3.2679,-3.3981,-3.3884,-3.4832,-3.6113,-3.7438,-3.8572,-3.9394,-3.974,-3.996,-4.0028,-3.9842,-3.9977,-4.0096,-4.0096,-3.9486,-3.8802,-3.8278,-3.8497,-3.8988,-3.974,-3.9977,-4.0096,-4.0096,-4.0096,-4.0096,-4.0096,-4.0096,-3.9859,-3.9334,-3.9106,-3.8379,-3.7134,-3.6897,-3.64,-3.5583,-3.5064,-3.4692,-3.4477,-3.319,-3.2209,-3.1495,-3.1495,-3.1396,-3.119,-3.119,-3.119,-3.119,-3.119,-3.0639,-2.9569,-2.7345,-2.663,-2.6598,-2.5513,-2.5432,-2.5817,-2.5646,-2.5615,-2.5615,-2.5615,-2.5615,-2.551,-2.5008,-2.4874,-2.4874,-2.4874,-2.4874,-2.4993,-2.5472,-2.5615,-2.5615,-2.5615,-2.5615,-2.5615,-2.5615,-2.5202,-2.4814,-2.4634,-2.3827,-2.3149,-2.2924,-2.1959,-2.0946,-2.0079,-1.9813,-1.9708,-1.9708,-1.98,-1.9874,-1.9874,-2.0665,-2.1166,-2.1166,-2.1886,-2.2296,-2.2296,-2.2296,-2.2296,-2.2296,-2.2296,-2.2296,-2.2296,-2.2296,-2.2296,-2.2296,-2.2296,-2.2296,0.0,0.0,-2.989,-3.3457,-3.4962,-3.5921,-3.7398,-3.8311,-3.9073,-3.9842,-4.0045,-3.9859,-3.9157,-3.9622,-3.9876,-3.914,-3.9639,-4.0096,-4.0096,-3.9486,-3.8988,-3.8954,-3.8362,-3.8227,0.0,-3.969,-4.0096,-4.0096,-4.0096,-4.0096,-4.0096,-4.0096,-4.0096,-4.0079,-3.9385,-3.8633,-3.7872,-3.7144,-3.64,-3.56,-3.5583,-3.5199,-3.4472,-3.3711,-3.2949,-3.2276,-3.2276,-3.187,-3.119,-3.119,-3.119,-3.119,-3.119,-3.119,-3.0977,-2.9676,-2.8412,-2.7283,-2.6667,-2.6463,-2.6384,-2.5794,-2.5615,-2.5615,-2.5615,-2.5615,-2.5615,-2.5585,-2.5561,-2.5561,-2.5561,-2.5561,-2.5561,-2.5615,-2.5615,-2.5615,-2.5615,-2.5615,-2.5615,-2.5615,-2.5576,-2.5352,-2.4709,-2.4575,-2.4294,-2.3504,-2.296,-2.2164,-2.0838,-2.0094,-1.9708,-1.9708,-2.0052,-2.028,-2.028,-2.1086,-2.1582,-2.1582,-2.2032,-2.2296,-2.2296,-2.2296,-2.2296,-2.2296,-2.2296,-2.2296,-2.2296,-2.2296,-2.2296,-2.2296,-2.2296,-2.2296,0.0,0.0,-3.4595,-3.6315,-3.8058,-3.9462,-3.9969,-4.029,-4.0257,-3.9512,-3.8614,-3.7723,-3.6891,-3.7005,-3.7305,-3.7506,-3.8589,-3.9529,-4.0028,-3.9486,-3.8633,-3.7675,-3.8176,0.0,0.0,0.0,0.0,-4.0062,-4.0096,-4.0096,-4.0096,-4.0096,-4.0096,-4.0096,-3.9859,-3.9385,-3.8633,-3.8379,-3.7618,-3.6383,-3.5853,-3.5216,-3.4489,-3.4235,-3.3457,-3.2293,-3.2293,-3.1887,-3.119,-3.119,-3.119,-3.119,-3.119,-3.119,-3.1137,-3.0709,-3.0282,-2.9726,-2.8255,-2.8047,-2.8376,-2.8189,-2.8121,-2.8121,-2.8121,-2.7837,-2.7432,-2.6995,-2.6585,-2.6363,-2.6821,-2.6941,-2.7165,-2.8038,-2.8248,-2.8128,-2.7694,-2.759,-2.7455,-2.6991,-2.6581,-2.6183,-2.5974,-2.5187,-2.4339,-2.3524,-2.2559,-2.1606,-2.0805,-2.0109,-1.9708,-1.9708,-2.0054,-2.0297,-2.0297,-2.1102,-2.1597,-2.1597,-2.2032,-2.2296,-2.2296,-2.2296,-2.2296,-2.2296,-2.2296,-2.2296,-2.2296,-2.2296,-2.2296,-2.2296,-2.2296,-2.2296,0.0,-3.5182,-3.7872,-3.9157,-4.0341,-4.1204,-4.1204,-4.0798,-4.007,-3.8853,-3.7445,-3.609,-3.4969,-3.4866,-3.4994,-3.5126,-3.6174,-3.7449,-3.8742,-3.8261,-3.7736,-3.7608,-3.8176,-3.8328,0.0,0.0,0.0,-4.0045,-4.0096,-4.0096,-4.0096,-4.0096,-4.0096,-4.0096,-4.0096,-3.9757,-3.9005,-3.8988,-3.8379,-3.7178,-3.64,-3.5774,-3.5323,-3.5013,-3.4218,-3.3089,-3.3089,-3.253,-3.1596,-3.1884,-3.1681,-3.1224,-3.1478,-3.1427,-3.119,-3.119,-3.119,-3.0988,-2.9566,-2.9356,-2.9695,-2.9473,-2.9406,-2.9454,-2.9717,-2.9522,-2.9187,-2.9014,-2.87,-2.8488,-2.8919,-2.8868,-2.8895,-2.975,-2.9765,-2.946,-2.9041,-2.8771,-2.8472,-2.8049,-2.742,-2.6881,-2.6632,-2.5826,-2.4915,-2.4209,-2.3343,-2.24,-2.1432,-2.0734,-2.0309,-2.0276,-2.0435,-2.0711,-2.113,-2.1821,-2.2367,-2.2616,-2.2673,-2.2699,-2.2699,-2.2431,-2.2296,-2.2296,-2.2296,-2.2296,-2.2296,-2.2296,-2.2296,-2.2296,-2.2296,-2.2431,-3.6603,-3.8582,-3.9732,-4.1863,-4.1863,-4.1288,-4.1221,-4.0054,-3.8751,-3.7882,-3.6462,-3.4901,0.0,0.0,-3.3081,-3.2369,-3.3022,-3.4404,-3.666,-3.6315,-3.6614,0.0,0.0,0.0,0.0,0.0,0.0,-4.0113,0.0,-4.013,-4.0146,-4.013,-4.0096,-4.0096,-4.0096,-3.9774,-3.9056,-3.9005,-3.865,-3.7956,-3.7195,-3.6846,-3.6778,-3.6011,-3.525,-3.4489,-3.4489,-3.3698,-3.2412,-3.3119,-3.256,-3.1326,-3.2039,-3.1853,-3.119,-3.119,-3.119,-3.1131,-3.0539,-3.0351,-3.0251,-2.9673,-2.9528,-2.9672,-3.0383,-3.0585,-3.0739,-3.1453,-3.1606,-3.1598,-3.163,-3.1184,-3.0699,-3.0705,-3.0212,-2.9723,-2.9666,-2.9146,-2.8682,-2.8667,-2.8124,-2.7435,-2.6776,-2.6457,-2.6107,-2.5522,-2.5271,-2.4501,-2.2723,-2.1957,-2.1537,-2.1419,-2.1254,-2.1601,-2.2666,-2.3201,-2.3763,-2.4457,-2.3814,-2.3393,-2.3393,-2.2699,-2.2296,-2.2296,-2.2296,-2.2296,-2.2296,-2.233,-2.2347,-2.2347,-2.2398,-2.2801,-3.821,-4.046,-4.2574,-4.3707,-4.342,-4.253,-4.1457,-4.0054,-3.8287,-3.5802,-3.3761,-3.1887,0.0,0.0,0.0,-3.2879,-3.5116,0.0,-3.9029,-3.9097,0.0,-3.8988,0.0,-4.0003,-3.9089,-3.9986,0.0,0.0,-4.0417,-4.035,-4.0882,-4.0417,-4.0096,-4.0096,-4.0096,-4.0011,-3.9825,-3.9259,-3.8903,-3.87,-3.7973,-3.733,-3.6795,-3.6592,-3.5757,-3.4489,-3.4489,-3.3964,-3.3136,-3.3322,-3.2848,-3.2039,-3.2226,-3.1853,-3.119,-3.119,-3.119,-3.1171,-3.1015,-3.0975,-3.0955,-3.0797,-3.1107,-3.1596,-3.178,-3.1918,-3.2023,-3.2204,-3.1952,-3.171,-3.2216,-3.2221,-3.2089,-3.2095,-3.1967,-3.1546,-3.0511,-3.0133,-2.9879,-2.9415,-2.8786,-2.8113,-2.7465,-2.7588,-2.7349,-2.6186,-2.6606,-2.6276,-2.4033,-2.3173,-2.2745,-2.2727,-2.2978,-2.3276,-2.3572,-2.3972,-2.4305,-2.4491,-2.3814,-2.3393,-2.3393,-2.2699,-2.2296,-2.2296,-2.2296,-2.2296,-2.2296,-2.2852,-2.3122,-2.3122,-2.3678,-2.4051,-4.1373,-4.3386,-4.4925,-4.5043,-4.4231,-4.2777,-4.035,-3.8599,-3.6517,-3.3128,-3.1227,0.0,-2.8338,-2.8994,0.0,0.0,0.0,0.0,-3.7821,-3.8437,-3.886,0.0,-4.0206,0.0,-4.0003,-4.0713,-4.1474,0.0,-4.0865,-4.0434,-4.117,-4.0519,-4.0096,-4.0096,-4.0096,-4.0096,-4.0096,-3.9706,-3.9486,-3.9462,-3.8734,-3.799,-3.7263,-3.6948,-3.6129,-3.4979,0.0,-3.4556,-3.3914,-3.4213,-3.3541,-3.2361,-3.3021,-3.2632,-3.1735,-3.2036,-3.2171,-3.2171,-3.2171,-3.2171,-3.2104,-3.1802,-3.1972,-3.2412,-3.3072,-3.3333,-3.344,-3.3773,-3.3613,-3.3442,-3.3813,-3.3696,-3.3461,-3.3476,-3.3235,-3.2823,-3.2033,-3.1628,-3.1226,-3.0588,-2.971,-2.8926,-2.853,-2.8171,-2.7731,-2.719,-2.7289,-2.7008,-2.5911,-2.4732,-2.3957,-2.3922,-2.39,-2.41,-2.4612,-2.4839,-2.5134,-2.5455,-2.4763,-2.4374,-2.4374,-2.3663,-2.3105,-2.2801,-2.3105,-2.3105,-2.2784,-2.3511,-2.3881,-2.3898,-2.4305,-2.4677,-4.4908,-4.6244,-4.6498,-4.5872,-4.4401,-4.2151,-3.8519,-3.6411,-3.4155,-3.0359,0.0,-2.8256,-2.73,-2.7519,-2.8152,-2.9135,0.0,-3.2814,-3.5769,-3.6789,-3.7946,-3.9876,-4.0197,-4.0519,-4.1136,-4.1288,-4.1931,-4.3291,-4.1525,-4.0688,-4.1322,-4.0646,-4.0197,-4.0096,-4.0096,-4.0096,-4.0096,-4.0096,-4.0096,-4.0096,-3.9445,-3.8751,-3.8024,-3.7263,-3.6502,-3.5752,-3.565,-3.525,-3.4692,-3.5329,-3.4421,-3.2716,-3.4003,-3.3643,-3.253,-3.3169,-3.3406,-3.3406,-3.3406,-3.3406,-3.3288,-3.2645,-3.2513,-3.2835,-3.41,-3.4556,-3.4776,-3.5414,-3.56,-3.56,-3.56,-3.5184,-3.4712,-3.4624,-3.4161,-3.371,-3.3608,-3.3127,-3.2544,-3.1983,-3.0773,-2.9848,-2.9848,-2.8685,-2.7931,-2.835,-2.772,-2.7334,-2.7754,-2.6284,-2.5177,-2.5058,-2.458,-2.4663,-2.5661,-2.5761,-2.6031,-2.6657,-2.6015,-2.5592,-2.5592,-2.4897,-2.4203,-2.3562,-2.4169,-2.4186,-2.3545,-2.4288,-2.4643,-2.4643,-2.4745,-2.5134,-4.6092,-4.6261,-4.5872,-4.5737,-4.3623,-4.0612,-3.7017,-3.4895,0.0,0.0,-2.7843,-2.7469,-2.6412,-2.7531,-2.9429,-3.1918,-3.3751,-3.5893,-3.8911,-3.9453,-3.9673,0.0,-4.0629,-4.1068,-4.1187,-4.1745,0.0,0.0,-4.2489,-4.1965,-4.21,-4.1407,-4.073,-4.013,-4.0096,-4.0096,-4.0096,-4.0096,-4.0096,-4.0096,-3.9977,-3.9512,-3.8768,-3.8058,-3.7297,-3.6535,-3.5893,0.0,-3.5414,-3.5549,-3.5013,-3.4134,-3.4387,-3.3964,-3.322,-3.3355,-3.3406,-3.3406,-3.3406,-3.3406,-3.3389,-3.3254,-3.3609,-3.4172,-3.4404,-3.4928,-3.543,-3.5566,-3.56,-3.56,-3.56,-3.5515,-3.5293,-3.4736,-3.4503,-3.4284,-3.371,-3.3528,-3.3399,-3.3271,-3.2141,-3.1174,-3.1174,-3.0416,-2.9624,-2.9124,-2.8807,-2.8426,-2.7857,-2.6978,-2.6387,-2.6371,-2.6286,-2.6286,-2.6488,-2.6505,-2.6556,-2.6691,-2.6015,-2.5592,-2.5592,-2.4897,-2.444,-2.4305,-2.4423,-2.444,-2.4305,-2.505,-2.5423,-2.5423,-2.6031,-2.6387,-4.6972,-4.7394,-4.7141,-4.5991,-4.4012,-4.0882,-3.5199,0.0,0.0,0.0,-2.6189,-2.6564,-2.6038,-2.7083,0.0,-3.0413,-3.2101,-3.4271,-3.7276,-3.8108,0.0,-4.0476,-4.0984,-4.1508,0.0,-4.2675,-4.32,-4.3961,-4.3318,-4.2709,-4.2303,-4.1238,-4.0485,-4.0113,-4.0096,-4.0096,-4.0096,-4.0096,-4.0096,-4.0096,-4.0096,-3.9723,-3.8988,-3.8633,-3.7855,-3.6778,-3.6383,-3.5994,-3.56,-3.56,-3.5182,-3.4523,-3.4928,-3.4624,-3.4015,-3.4382,-3.4535,-3.4535,-3.4535,-3.4535,-3.4535,-3.4535,-3.4523,-3.4573,-3.4962,-3.5312,-3.56,-3.56,-3.56,-3.56,-3.56,-3.56,-3.5515,-3.5207,-3.5121,-3.5028,-3.4704,-3.4633,-3.4633,-3.4633,-3.3212,-3.2006,-3.2006,-3.0813,-2.9821,-2.979,-2.9394,-2.908,-2.9004,-2.8349,-2.7588,-2.6776,-2.6691,-2.6691,-2.6691,-2.6691,-2.6691,-2.6691,-2.637,-2.6167,-2.6167,-2.5828,-2.5472,-2.5067,-2.5455,-2.5455,-2.5067,-2.5812,-2.6167,-2.6184,-2.6539,-2.6691,-4.7162,-4.8206,-4.824,-4.6024,-4.4198,-4.1009,-3.3642,-3.1808,0.0,0.0,-2.4918,-2.5897,-2.5897,-2.6523,-2.74,0.0,-2.9853,-3.1819,-3.5049,-3.623,-3.7797,0.0,-4.1102,0.0,-4.3257,-4.3392,0.0,-4.4547,-4.3707,-4.2844,-4.21,-4.0823,-4.0096,-4.0096,-4.0096,-4.0096,-4.0096,-4.0096,-4.0096,-4.0096,-4.0096,-3.9808,-3.9225,-3.9056,-3.8278,-3.7032,-3.688,-3.6332,-3.56,-3.56,-3.5267,-3.4793,-3.5363,-3.525,-3.481,-3.538,-3.5701,-3.5819,-3.565,-3.5701,-3.5853,-3.5853,-3.5351,-3.4844,-3.5414,-3.56,-3.56,-3.56,-3.56,-3.5633,-3.5802,-3.5718,-3.56,-3.56,-3.56,-3.56,-3.56,-3.56,-3.56,-3.56,-3.4153,-3.2945,-3.2945,-3.1325,-3.0185,-3.0667,-2.9967,-2.9559,-3.0034,-2.9448,-2.8468,-2.708,-2.6945,-2.686,-2.6708,-2.6691,-2.6691,-2.6691,-2.6691,-2.6691,-2.6691,-2.6691,-2.642,-2.5845,-2.6404,-2.6404,-2.5845,-2.642,-2.6691,-2.6691,-2.6691,-2.6741,-4.6097,-4.7445,-4.7479,-4.5246,-4.3031,-3.9606,-3.2765,0.0,-2.9562,-2.4793,-2.4918,-2.5897,-2.5897,-2.6021,-2.6875,0.0,0.0,-3.1072,0.0,-3.6144,-3.7499,-3.9927,0.0,0.0,-4.3257,-4.3392,-4.3741,-4.4547,-4.3217,-4.2083,-4.1339,-4.0527,-4.0096,-4.0096,-4.0096,-4.0096,-4.0096,-4.0096,-4.0096,-4.0096,-4.0096,-4.0062,-3.9977,-3.9292,-3.8565,-3.777,-3.7077,-3.6332,0.0,-3.56,-3.5549,-3.5498,-3.5566,-3.5549,-3.5498,-3.5566,-3.6062,-3.6592,-3.5836,-3.6079,-3.6694,-3.6694,-3.6146,-3.5498,-3.5583,-3.56,-3.56,-3.56,-3.56,-3.5752,-3.6485,-3.6146,-3.56,-3.56,-3.56,-3.56,-3.56,-3.56,-3.56,-3.56,-3.4901,-3.4322,-3.4322,-3.3048,-3.2053,-3.211,-3.0909,-3.0034,-3.0089,-2.9448,-2.8671,-2.779,-2.7705,-2.7418,-2.6759,-2.6691,-2.6691,-2.6691,-2.6691,-2.6691,-2.6691,-2.6691,-2.6657,-2.659,-2.6657,-2.6657,-2.659,-2.6657,-2.6691,-2.6691,-2.6691,-2.689,-4.4519,-4.6329,-4.6701,-4.4434,-4.1542,-3.7749,-3.2156,0.0,-2.7597,-2.375,-2.4429,-2.5601,-2.5234,-2.5531,-2.6198,0.0,0.0,0.0,-3.1661,0.0,-3.5318,-3.8897,-4.0434,0.0,0.0,0.0,-4.3859,-4.3278,-4.2642,-4.1779,-4.0595,-4.0265,-4.0096,-4.0096,-4.0096,-4.0096,-4.0096,-4.0096,-4.0096,-4.0096,-4.0096,-4.0096,-4.0096,-3.9808,-3.9242,-3.8514,-3.7787,-3.7026,0.0,-3.5785,-3.56,-3.56,-3.56,-3.56,-3.56,-3.56,-3.5785,-3.6045,-3.5701,-3.6129,-3.6795,-3.6795,-3.6874,-3.6969,-3.6969,-3.6326,-3.5701,-3.618,-3.5977,-3.5667,-3.5994,-3.6197,-3.6197,-3.5718,-3.5977,-3.618,-3.5701,-3.56,-3.56,-3.56,-3.5013,-3.4489,-3.4489,-3.3643,-3.2797,-3.2361,-3.1802,-3.1258,-3.0818,-3.0497,-3.0023,-2.9261,-2.8348,-2.7503,-2.6759,-2.6691,-2.6691,-2.6691,-2.6691,-2.6691,-2.6691,-2.6691,-2.6691,-2.6691,-2.6691,-2.6691,-2.6691,-2.7148,-2.735,-2.7368,-2.7622,-2.8077,-4.1615,-4.4288,-4.5635,-4.3589,-4.0256,-3.6295,0.0,0.0,-2.6272,-2.3043,-2.3895,-2.5063,-2.4495,-2.4901,-2.5464,0.0,0.0,-2.6977,-2.9166,-3.0886,-3.3292,0.0,0.0,-4.0865,0.0,-4.4181,-4.4056,-4.2726,-4.2422,-4.1745,-4.0476,-4.0231,-4.0096,-4.0096,-4.0096,-4.0096,-4.0096,-4.0096,-4.0096,-4.0096,-4.0096,-4.0096,-4.0096,-4.0096,-3.9706,-3.8954,-3.8447,-3.7804,0.0,-3.6282,-3.596,-3.5943,-3.5684,-3.56,-3.5616,-3.5876,-3.596,-3.5994,-3.6191,-3.6518,-3.6846,-3.7066,-3.7178,-3.7364,-3.8024,-3.7307,-3.6366,-3.6711,-3.6552,-3.6276,-3.6276,-3.6705,-3.6975,-3.6394,-3.6552,-3.6643,-3.6079,-3.5752,-3.56,-3.56,-3.5182,-3.4827,-3.4827,-3.4218,-3.3474,-3.275,-3.2446,-3.2039,-3.1275,-3.119,-3.092,-3.0192,-2.9125,-2.8197,-2.7453,-2.7165,-2.7029,-2.7029,-2.7029,-2.6928,-2.6708,-2.6691,-2.6793,-2.7012,-2.7029,-2.7148,-2.7368,-2.7909,-2.8145,-2.8163,-2.8459,-2.9004,-3.7043,-4.1066,-4.4259,-4.2692,-3.9396,-3.5484,0.0,0.0,-2.6031,-2.2941,-2.3436,-2.4247,-2.3712,-2.41,-2.4642,-2.506,0.0,0.0,-2.8459,-3.0034,0.0,0.0,0.0,-3.7966,-4.0751,-4.3213,-4.4248,-4.3443,-4.2709,0.0,-4.1238,-4.0519,-4.0096,-4.0096,-4.0096,-4.0096,-4.0096,-4.0096,-4.0096,-4.0096,-4.0096,-4.0096,-4.0096,-4.0096,-3.9706,-3.8988,-3.8988,-3.8565,0.0,-3.7077,-3.6795,-3.6711,-3.5904,-3.56,-3.5701,-3.6485,-3.6795,-3.6897,-3.7618,-3.7398,-3.6931,-3.7652,-3.685,-3.6039,-3.8294,-3.8464,-3.7736,-3.7015,-3.7313,-3.7889,-3.7889,-3.7889,-3.7889,-3.7889,-3.7313,-3.6795,-3.6795,-3.6163,-3.56,-3.56,-3.5583,-3.5583,-3.5583,-3.4979,-3.4235,-3.3508,-3.2763,-3.2039,-3.1275,-3.119,-3.092,-3.0192,-3.0091,-2.9786,-2.9044,-2.8247,-2.779,-2.779,-2.779,-2.7452,-2.6725,-2.6691,-2.7046,-2.7773,-2.779,-2.8197,-2.8976,-2.8976,-2.8993,-2.8993,-2.8993,-2.942,-3.2882,-3.505,-3.6296,-3.5301,-3.255,-2.9589,-2.7737,0.0,-2.3383,-2.1793,-2.2645,-2.3454,-2.2829,-2.3688,-2.4624,-2.4973,-2.553,0.0,0.0,0.0,0.0,-3.4835,-3.9252,-4.2472,0.0,0.0,-4.347,-4.2709,-4.1965,-4.1221,-4.0476,-4.0231,-4.0096,-4.0096,-4.0096,-4.0096,-4.0096,-4.0096,-4.0096,-4.0096,-4.0096,-4.0096,-4.0096,-4.0096,-3.9977,-3.9723,-3.9208,-3.887,-3.8548,-3.732,-3.6795,-3.6728,-3.5904,-3.56,-3.5633,-3.5893,-3.5994,-3.6011,-3.6242,-3.6535,-3.6846,-3.7083,-3.7161,-3.7212,-3.7415,-3.7337,-3.7195,-3.7483,-3.7719,-3.7905,-3.7905,-3.8278,-3.8514,-3.8024,-3.8108,-3.8159,-3.7652,-3.7364,-3.7026,-3.6518,-3.6417,-3.6248,-3.5684,-3.5397,-3.5013,-3.4252,-3.3525,-3.2966,-3.273,-3.2256,-3.187,-3.1633,-3.114,-3.0345,-2.9111,-2.8773,-2.8619,-2.8619,-2.8094,-2.7942,-2.8265,-2.774,-2.7824,-2.8602,-2.8619,-2.8756,-2.8993,-2.9499,-2.9869,-3.0107,-3.0658,-3.0925,0.0,-3.0717,-3.1838,-3.1369,-2.8927,0.0,0.0,0.0,-2.2035,-2.1295,-2.2066,-2.2777,-2.2442,-2.3418,-2.4419,-2.4853,-2.5565,-2.6434,0.0,0.0,0.0,-3.6072,0.0,0.0,0.0,-4.3369,-4.3071,-4.2354,-4.1627,-4.0882,-4.0146,-4.0096,-4.0096,-4.0096,-4.0096,-4.0096,-4.0096,-4.0096,-4.0096,-4.0096,-4.0096,-4.0096,-4.0096,-4.0096,-4.0096,-4.0079,-3.9622,-3.9242,0.0,-3.7702,-3.7066,-3.6761,-3.6248,-3.6062,-3.6096,-3.636,-3.6462,-3.6495,-3.6806,-3.7026,-3.7246,-3.7557,-3.7939,-3.8227,-3.7753,-3.7252,-3.7015,-3.8024,-3.8125,-3.7973,-3.8244,-3.865,-3.8954,-3.8768,-3.887,-3.887,-3.8413,-3.8108,-3.7686,-3.6948,-3.6795,-3.6535,-3.5735,-3.56,-3.5346,-3.4607,-3.4117,-3.3711,-3.344,-3.3,-3.2733,-3.2733,-3.2073,-3.1244,-3.0313,-2.9738,-2.9433,-2.9433,-2.8939,-2.8772,-2.8993,-2.8518,-2.8619,-2.9397,-2.9433,-2.9533,-2.9839,-3.0294,-3.0613,-3.0842,-3.1342,-3.1546,0.0,0.0,0.0,0.0,0.0,0.0,0.0,0.0,0.0,-2.1343,-2.1761,-2.2262,-2.2524,-2.3325,-2.4148,-2.4703,-2.567,-2.7111,0.0,-3.1422,0.0,0.0,-4.0003,0.0,-4.1195,-4.2479,-4.3047,-4.2337,-4.1576,-4.0815,-4.0146,-4.0096,-4.0096,-4.0096,-4.0096,-4.0096,-4.0096,-4.0096,-4.0096,-4.0096,-4.0096,-4.0096,-4.0096,-4.0096,-4.0096,0.0,-4.0096,-3.9723,-3.9005,-3.8278,-3.7567,-3.6948,-3.6897,-3.688,-3.6965,-3.7652,-3.7905,-3.8007,-3.8684,-3.8464,-3.8024,-3.87,-3.892,-3.892,-3.892,-3.8014,-3.7252,-3.8667,-3.8548,-3.8159,-3.8886,-3.9073,-3.9242,-3.9943,-3.9588,-3.9073,-3.9073,-3.8497,-3.777,-3.7032,-3.6846,-3.6535,-3.5735,-3.56,-3.5363,-3.4675,-3.4523,-3.4269,-3.3643,-3.3508,-3.3491,-3.3491,-3.2886,-3.2446,-3.2378,-3.1021,-3.0192,-3.0192,-3.0123,-2.982,-2.9179,-2.9111,-2.9433,-3.0176,-3.0192,-3.0531,-3.119,-3.119,-3.119,-3.119,-3.119,-3.1426,-2.1543,0.0,-2.3181,-2.3164,-2.2562,-2.1996,0.0,0.0,0.0,0.0,0.0,0.0,0.0,-2.3873,-2.4585,-2.4767,-2.5903,-2.7415,-2.9329,0.0,0.0,-3.927,-4.2456,-4.363,-4.1213,-4.1936,-4.2489,-4.2303,-4.1094,-4.0282,-4.0113,-4.0096,-4.0096,-4.0096,-4.0096,-4.0096,-4.0096,-4.0096,-4.0096,-4.0096,-4.0096,-4.0096,-4.0096,-4.0096,-4.0096,-4.0096,-4.0096,-4.0011,-3.9791,-3.9039,-3.8633,-3.8413,-3.7855,-3.7652,-3.7669,-3.7838,-3.7905,-3.7922,-3.8108,-3.8058,-3.7939,-3.8108,-3.8159,-3.8159,-3.8159,-3.8311,-3.8667,-3.9588,-3.9292,-3.8903,-3.9656,-3.9842,-3.9893,-4.0062,-3.9977,-3.9842,-3.9842,-3.9242,-3.8514,-3.7787,-3.7178,-3.6535,-3.5735,-3.56,-3.5532,-3.5363,-3.4861,-3.4641,-3.5025,-3.459,-3.4235,-3.4235,-3.4083,-3.3744,-3.3186,-3.1782,-3.0937,-3.0937,-3.0412,-3.0277,-3.0666,-3.0142,-3.0192,-3.092,-3.0937,-3.1021,-3.119,-3.119,-3.119,-3.119,-3.119,-3.1557,-2.0406,-2.0728,-2.086,-2.086,-2.0844,-2.0828,0.0,0.0,0.0,0.0,0.0,0.0,0.0,0.0,-2.5837,-2.5707,-2.7726,0.0,0.0,0.0,-3.8882,-4.0186,-4.2244,-4.3158,0.0,-4.2216,-4.2151,-4.1813,-4.0756,-4.0096,-4.0096,-4.0096,-4.0096,-4.0096,-4.0096,-4.0096,-4.0096,-4.0096,-4.0096,-4.0096,-4.0096,-4.0096,-4.0096,-4.0096,-4.0096,-4.0096,-4.0096,-3.991,-3.9571,-3.9157,-3.8802,-3.8481,-3.843,-3.8396,-3.8396,-3.8396,-3.8616,-3.8853,-3.8514,-3.8633,-3.8903,-3.8903,-3.8684,-3.8464,-3.8802,-3.8717,-3.8582,-3.8971,-3.9039,-3.9089,-3.9503,-3.9859,-4.0096,-4.0096,-4.0096,-4.0096,-4.0096,-3.9791,-3.9276,-3.8548,-3.7804,-3.706,-3.6282,-3.5836,-3.56,-3.56,-3.5267,-3.5165,-3.5549,-3.5245,-3.5013,-3.5013,-3.4692,-3.4336,-3.3931,-3.2544,-3.1698,-3.1698,-3.1004,-3.0784,-3.1173,-3.0818,-3.0784,-3.119,-3.1532,-3.1698,-3.1718,-3.2036,-3.2205,-3.2205,-3.2205,-3.255,-2.0258,-2.0829,-2.1105,-2.0873,-2.0956,-2.1085,0.0,0.0,0.0,0.0,0.0,0.0,0.0,-2.5684,0.0,0.0,0.0,0.0,-3.583,-3.7028,-3.848,-4.0725,-4.1307,0.0,-4.2763,-4.2412,-4.1863,-4.1255,-4.051,-4.0096,-4.0096,-4.0096,-4.0096,-4.0096,-4.0096,-4.0096,-4.0096,-4.0096,-4.0096,-4.0096,-4.0096,-4.0096,-4.0096,-4.0096,-4.0096,-4.0096,0.0,0.0,-3.9157,-3.9157,-3.8802,-3.8311,-3.892,-3.9157,-3.9157,-3.9157,-3.9571,-4.0011,-3.9377,-3.9588,-4.0096,-4.0096,-3.969,-3.9242,-3.9791,-3.914,-3.821,-3.8108,-3.8514,-3.9022,-3.914,-3.9639,-4.0096,-4.0096,-4.0096,-4.0096,-4.0096,-4.0011,-3.9757,-3.9106,-3.8396,-3.7702,-3.7083,-3.64,-3.5955,-3.5955,-3.5955,-3.5955,-3.5955,-3.5955,-3.5904,-3.5785,-3.5216,-3.4793,-3.4675,-3.3427,-3.2649,-3.2649,-3.1853,-3.141,-3.1529,-3.1529,-3.1529,-3.1529,-3.2221,-3.2604,-3.2604,-3.3295,-3.3642,-3.3642,-3.3642,-3.394,-2.0082,-2.1605,-2.2523,-2.1205,-2.1453,-2.1951,0.0,0.0,0.0,0.0,0.0,0.0,0.0,-2.6602,-2.7123,0.0,0.0,-3.5842,0.0,0.0,-4.2746,-4.111,0.0,-4.3067,-4.0589,-4.0965,-4.1322,-4.1221,-4.051,-4.0096,-4.0096,-4.0096,-4.0096,-4.0096,-4.0096,-4.0096,-4.0096,-4.0096,-4.0096,-4.0096,-4.0096,-4.0096,-4.0096,-4.0096,-4.0096,-4.0096,0.0,-4.0045,-3.9943,-3.9943,-3.9859,-3.9774,-3.9893,-3.9943,-3.9943,-3.9943,-4.0011,-4.0079,-3.9977,-4.0011,-4.0096,-4.0096,-4.0028,-3.9842,-3.9309,-3.9453,-3.9639,-3.9005,-3.8903,-3.914,-3.9774,-4.0028,-4.0096,-4.0096,-4.0096,-4.0096,-4.0096,-3.9622,-3.9123,-3.9005,-3.8396,-3.7872,-3.7753,-3.7635,-3.7567,-3.7567,-3.7567,-3.7567,-3.7567,-3.7567,-3.7313,-3.6694,-3.6508,-3.6163,-3.5481,-3.4658,-3.415,-3.415,-3.2886,-3.2408,-3.3034,-3.3068,-3.3068,-3.3068,-3.3625,-3.3913,-3.3913,-3.4422,-3.4676,-3.4676,-3.4676,-3.5047,-1.9868,-2.0947,-2.17,-2.1755,-2.3061,-2.4383,0.0,0.0,0.0,0.0,0.0,0.0,0.0,0.0,-3.0525,-3.4063,0.0,-3.7292,-3.9967,-4.06,-4.0667,0.0,0.0,-4.1656,-4.0643,-4.0966,-4.1035,-4.0629,-4.0299,-4.0096,-4.0096,-4.0096,-4.0096,-4.0096,-4.0096,-4.0096,-4.0096,-3.9706,-3.9706,-4.0096,-3.9706,-3.9723,-4.0096,-4.0096,-4.0096,-4.0096,0.0,-3.9876,-3.952,-3.952,-3.952,-3.952,-3.952,-3.9757,-4.0096,-4.0096,-4.0096,-4.0096,-4.0096,-4.0096,-4.0096,-4.0096,-3.9842,-3.9537,-3.9588,-3.9554,-3.9537,-3.9588,-3.9605,-3.9673,-4.0011,-4.0096,-4.0096,-4.0096,-4.0096,-4.0096,-4.0096,-3.9842,-3.9605,-3.9605,-3.8988,-3.8481,-3.8481,-3.8159,-3.7905,-3.7905,-3.7905,-3.7905,-3.7905,-3.7905,-3.7618,-3.688,-3.7035,-3.6739,-3.5673,-3.5177,-3.4643,-3.3952,-3.3271,-3.3051,-3.3389,-3.3406,-3.3406,-3.3406,-3.4324,-3.4792,-3.4792,-3.5696,-3.613,-3.613,-3.613,-3.6452,-1.9779,-2.0678,-2.1497,-2.2549,0.0,0.0,0.0,0.0,0.0,0.0,0.0,0.0,0.0,-3.0104,0.0,-3.8662,-3.8664,-3.8681,-4.0483,-3.9665,-3.927,-4.0348,-4.0298,-4.0484,-4.1153,-4.1035,-4.0696,-4.0146,-4.0096,-4.0096,-4.0096,-4.0096,-4.0096,-4.0096,-4.0096,-4.0096,-4.0096,-3.9385,-3.9385,-4.0096,-3.9368,-3.9402,-4.0096,-4.0096,-4.0096,-4.0096,-4.0096,-3.9791,-3.9242,-3.9242,-3.9157,-3.9005,-3.9174,-3.9605,-4.0096,-4.0096,-4.0096,-4.0096,-4.0096,-4.0096,-4.0096,-4.0096,-3.9723,-3.9393,-4.0084,-3.9895,-3.9579,-4.0312,-4.049,-4.0434,-4.0171,-4.0096,-4.0121,-4.0254,-4.0179,-4.0171,-4.0441,-4.0303,-4.0146,-4.0262,-3.9738,-3.9291,-3.9428,-3.8993,-3.8649,-3.879,-3.8696,-3.8595,-3.8595,-3.8492,-3.8197,-3.758,-3.7657,-3.7206,-3.5895,-3.5648,-3.5084,-3.3969,-3.3931,-3.3931,-3.3931,-3.3931,-3.3956,-3.4087,-3.5178,-3.5793,-3.591,-3.702,-3.7542,-3.7542,-3.7542,-3.7828,-1.9934,-2.1931,-2.3805,-2.3728,-2.343,0.0,-2.6636,-2.7929,0.0,-3.0489,0.0,0.0,0.0,-3.1957,-3.3721,-3.7148,-3.8791,-4.0454,-4.2824,0.0,-4.2767,-4.2202,-4.1525,-4.111,-4.1204,-4.0578,-4.0163,-4.0096,-4.0096,-4.0096,-4.0096,-4.0096,-4.0096,-4.0096,-4.0096,-4.0096,-4.0096,-3.9385,-3.9385,-4.0096,-3.9368,-3.9402,-4.0096,-4.0096,-4.0096,-4.0096,-4.0096,-4.0079,-4.0028,-4.0028,-3.9622,-3.9056,-3.9757,-4.0045,-4.0096,-4.0096,-4.0096,-4.0096,-4.0096,-4.0096,-4.0096,-4.0096,-4.0062,-4.0111,-4.0685,-4.0816,-4.088,-4.1512,-4.1682,-4.1424,-4.0385,-4.0096,-4.0229,-4.0709,-4.0449,-4.0385,-4.1464,-4.0861,-4.0254,-4.075,-4.039,-4.0194,-4.0687,-4.0712,-4.0885,-4.1441,-4.1044,-4.0677,-4.0677,-4.0246,-3.9844,-3.9611,-3.8953,-3.7932,-3.6471,-3.6323,-3.6079,-3.5475,-3.543,-3.543,-3.543,-3.543,-3.5679,-3.6177,-3.6759,-3.7271,-3.7717,-3.8298,-3.8596,-3.8596,-3.8596,-3.8996,-1.9878,-2.1721,-2.3458,-2.3388,-2.3889,0.0,0.0,-3.0261,-3.0767,-3.1428,-3.2231,0.0,0.0,0.0,-3.7513,-3.8185,-4.0011,-4.1683,-4.2591,-4.2726,-4.2439,-4.1694,-4.1373,-4.1018,-4.0544,-4.0265,-4.0096,-4.0096,-4.0096,-4.0096,-4.0096,-4.0096,-4.0096,-4.0096,-4.0096,-4.0096,-4.0096,-3.9385,-3.9385,-4.0096,-3.9368,-3.9402,-4.0096,-4.0096,-4.0096,-4.0096,-4.0096,-3.9842,-3.9436,-3.9436,-3.9242,-3.9056,-3.9808,-4.0096,-4.0096,-4.0096,-4.0096,-4.0096,-4.0096,-4.0096,-4.0096,-4.0096,-4.0096,-4.0146,-4.0343,-4.0648,-4.0949,-4.1178,-4.1512,-4.1703,-4.1263,-4.1168,-4.1196,-4.1402,-4.1291,-4.1263,-4.1703,-4.1464,-4.1218,-4.1424,-4.1308,-4.1218,-4.1424,-4.1468,-4.1534,-4.1768,-4.1599,-4.1335,-4.0949,-4.1059,-4.0826,-3.9903,-3.945,-3.898,-3.8377,-3.7599,-3.693,-3.6378,-3.5893,-3.56,-3.56,-3.56,-3.5854,-3.6374,-3.6941,-3.7433,-3.7893,-3.8449,-3.8964,-3.9441,-3.9441,-3.9882,-2.0152,-2.163,-2.3117,-2.3289,0.0,0.0,-3.0366,-3.1562,-3.2335,-3.3725,-3.405,-3.4219,-3.4685,0.0,0.0,0.0,-4.0569,-4.1948,-4.1948,-4.1948,-4.1677,-4.0933,-4.0849,-4.0646,-4.0146,-4.0096,-4.0096,-4.0096,-4.0096,-3.9994,-3.9774,-3.9977,-3.9994,-3.9757,-3.9977,-3.9994,-3.9757,-3.9242,-3.9123,-3.9394,-3.9123,-3.9402,-4.0096,-3.9859,-3.9893,-4.0096,-3.9859,-3.9486,-3.8988,-3.8988,-3.9123,-3.9385,-3.9656,-3.9893,-4.0096,-4.0096,-4.0096,-4.0096,-4.0096,-4.0096,-4.0096,-4.0096,-3.9943,-3.9782,-3.9946,-4.0264,-4.0602,-4.0789,-4.1427,-4.2062,-4.2062,-4.1937,-4.1853,-4.2041,-4.1937,-4.1895,-4.2266,-4.2044,-4.1853,-4.2059,-4.1937,-4.1874,-4.2059,-4.2062,-4.2142,-4.2306,-4.2185,-4.1937,-4.1512,-4.1664,-4.1407,-4.0401,-4.0386,-4.0189,-3.9549,-3.8693,-3.7906,-3.7197,-3.6637,-3.6181,-3.5866,-3.5854,-3.6289,-3.7235,-3.7603,-3.8169,-3.8911,-3.928,-3.9753,-4.0286,-4.0286,-4.0708,-2.0831,-2.1886,-2.3142,0.0,0.0,0.0,-2.9963,-3.1483,-3.3615,-3.7895,-3.7403,-3.6731,-3.8455,-3.7489,0.0,-3.8521,-4.0147,-4.1187,-4.1187,-4.1187,-4.0916,-4.0197,-4.0096,-4.0096,-4.0096,-4.0096,-4.0096,-4.0096,-4.0096,-3.9791,-3.9039,-3.9706,-3.9774,-3.9022,-3.9723,-3.974,-3.9005,-3.8988,-3.8616,-3.7922,-3.8633,-3.9385,-4.0062,-3.9326,-3.9419,-4.0062,-3.9334,-3.8988,-3.9005,-3.9005,-3.9453,-4.0028,-3.9276,-3.9469,-4.0096,-4.0096,-4.0096,-4.0096,-4.0096,-4.0096,-4.0096,-4.0096,-3.9622,-3.911,-3.9646,-3.9794,-3.9929,-4.0538,-4.1656,-4.2693,-4.2711,-4.2262,-4.1958,-4.2577,-4.2244,-4.2124,-4.3249,-4.262,-4.1979,-4.2596,-4.2241,-4.2018,-4.2616,-4.2711,-4.2883,-4.3427,-4.305,-4.2711,-4.2711,-4.2183,-4.17,-4.1464,-4.1956,-4.1559,-3.968,-3.9529,-3.9052,-3.8001,-3.7922,-3.745,-3.6457,-3.643,-3.7273,-3.9066,-3.912,-3.978,-4.1095,-4.1095,-4.1095,-4.1113,-4.1113,-4.1535,-2.0246,-2.1821,0.0,-2.3964,0.0,0.0,0.0,-3.2494,0.0,0.0,-3.7241,-3.7144,-3.7241,-3.8204,0.0,-3.8132,-3.9395,-4.0434,-4.0434,-4.0434,-4.0367,-4.013,-4.0096,-4.0096,-4.0096,-4.0096,-4.0096,-4.0096,-4.0096,-4.0011,-3.9791,-3.9994,-4.0011,-3.9791,-3.9486,-3.9208,-3.8988,-3.8481,-3.8125,-3.7905,-3.7584,-3.8115,-3.9351,-3.9656,-3.9893,-4.0062,-3.9334,-3.9276,-3.9774,-3.9774,-3.9605,-3.9368,-3.9673,-3.991,-4.0096,-4.0096,-4.0096,-4.0096,-4.0096,-4.0096,-4.0096,-4.0096,-3.996,-3.9799,-3.9963,-3.9896,-3.9943,-4.0645,-4.1333,-4.1991,-4.2549,-4.2846,-4.3051,-4.3232,-4.3124,-4.3087,-4.3427,-4.3232,-4.3051,-4.3232,-4.3124,-4.3051,-4.3232,-4.3268,-4.3322,-4.348,-4.3356,-4.3268,-4.3268,-4.2789,-4.2546,-4.2849,-4.3043,-4.2758,-4.1836,-4.0889,-4.0035,-3.9296,-3.8397,-3.7773,-3.7484,-3.7831,-3.8461,-3.9355,-3.9751,-4.0326,-4.1095,-4.1095,-4.1389,-4.1937,-4.1937,-4.2378,-2.0967,-2.2695,0.0,-2.5342,-2.7744,-3.0567,-3.2979,0.0,0.0,0.0,-3.8054,-3.8092,-3.8382,-3.911,0.0,-3.8762,-3.9471,-4.0096,-4.0096,-4.0096,-4.0096,-4.0096,-4.0096,-4.0096,-4.0096,-4.0096,-4.0096,-4.0096,-4.0096,-3.9842,-3.9242,-3.9791,-3.9706,-3.8826,-3.892,-3.8717,-3.8125,-3.7686,-3.7297,-3.6969,-3.6857,-3.7269,-3.8142,-3.8886,-3.9554,-4.0045,-3.9005,-3.8633,-3.8809,-3.9114,-3.8954,-3.8633,-3.9385,-3.9673,-3.9673,-3.9673,-3.9859,-4.0096,-4.0096,-4.0254,-4.0392,-4.0154,-4.005,-3.9941,-3.973,-3.9382,-3.9186,-3.9924,-4.0464,-4.0989,-4.1766,-4.2386,-4.294,-4.3391,-4.3515,-4.3515,-4.3515,-4.3515,-4.3515,-4.3515,-4.3515,-4.3515,-4.3515,-4.3515,-4.3515,-4.3515,-4.3515,-4.3515,-4.3515,-4.3214,-4.3142,-4.348,-4.3515,-4.3268,-4.275,-4.1754,-4.0873,-4.0273,-3.9317,-3.8768,-3.8768,-3.8931,-3.9412,-4.0253,-4.0799,-4.1408,-4.2047,-4.2047,-4.2304,-4.2782,-4.2782,-4.3039,-2.2362,0.0,0.0,-2.7275,-2.9744,0.0,-3.4143,-3.6677,-3.8809,-3.9551,0.0,-3.9247,-4.0716,-3.9935,-3.9334,-3.9994,-4.0096,-4.0096,-4.0096,-4.0096,-4.0096,-4.0096,-4.0096,-4.0079,-4.0011,-4.0011,-4.0011,-4.0011,-3.9943,-3.9326,-3.8075,-3.9191,-3.8979,-3.6965,-3.8149,-3.8166,-3.6812,-3.6728,-3.6315,-3.56,-3.6332,-3.6728,-3.6829,-3.7567,-3.8582,-3.974,-3.8447,-3.7432,-3.6761,-3.7567,-3.7872,-3.7872,-3.8616,-3.8903,-3.8903,-3.8971,-3.9436,-4.0011,-4.0079,-4.0397,-4.07,-4.016,-3.985,-3.9594,-3.9047,-3.8379,-3.7973,-3.8768,-3.935,-3.9881,-4.0695,-4.1358,-4.2083,-4.3178,-4.3427,-4.3444,-4.3497,-4.3515,-4.3515,-4.3515,-4.3515,-4.3515,-4.3515,-4.3515,-4.3515,-4.3515,-4.3515,-4.3515,-4.3515,-4.3515,-4.3515,-4.3515,-4.3515,-4.3303,-4.2826,-4.2223,-4.1643,-4.111,-4.0552,-4.0254,-4.0254,-3.9914,-4.0244,-4.1408,-4.2083,-4.2763,-4.3515,-4.3515,-4.3515,-4.3515,-4.3515,-4.3515,-2.1449,-2.293,0.0,0.0,-3.1219,-3.4098,-3.507,-3.6212,-3.6982,-3.6627,-3.7798,-3.8984,-3.9328,-3.9645,-3.9926,-4.0079,-4.0096,-4.0096,-4.0096,-4.0096,-4.0096,-4.0096,-4.0096,-3.9876,-3.9276,-3.9225,-3.9225,-3.9225,-3.87,-3.8481,-3.8751,-3.8514,-3.8159,-3.7686,-3.7422,-3.7134,-3.6795,-3.618,-3.5769,-3.56,-3.5769,-3.618,-3.6829,-3.7567,-3.7753,-3.7523,-3.7787,-3.7127,-3.5955,-3.7347,-3.755,-3.7094,-3.7855,-3.8142,-3.821,-3.8785,-3.9089,-3.9334,-3.991,-4.0024,-3.9894,-3.9387,-3.9057,-3.8777,-3.8282,-3.7618,-3.732,-3.8616,-3.8973,-3.925,-4.0556,-4.1358,-4.1979,-4.2694,-4.2883,-4.2976,-4.341,-4.3515,-4.3515,-4.3515,-4.3515,-4.3515,-4.3515,-4.3515,-4.3515,-4.3515,-4.3515,-4.3515,-4.3515,-4.3515,-4.3515,-4.3515,-4.3515,-4.3444,-4.3339,-4.2827,-4.246,-4.2322,-4.1768,-4.1424,-4.1424,-4.1347,-4.1449,-4.1712,-4.2723,-4.3331,-4.3515,-4.3515,-4.3515,-4.3515,-4.3515,-4.3515,-2.1216,0.0,0.0,-2.9135,0.0,-3.4188,-3.4861,-3.5315,-3.5583,-3.5568,-3.704,-3.8469,-3.8827,-3.8951,-3.9102,-3.9463,-3.9516,-3.9662,-4.0045,-4.0096,-3.9977,-3.9622,-3.9893,-3.9673,-3.8582,-3.8785,-3.8853,-3.8497,-3.8125,-3.7905,-3.7963,-3.7922,-3.7567,-3.6817,-3.6789,-3.6626,-3.6231,-3.5825,-3.56,-3.56,-3.56,-3.5802,-3.6265,-3.7398,-3.7499,-3.6829,-3.7195,-3.6705,-3.5684,-3.6891,-3.6924,-3.6299,-3.706,-3.7364,-3.7449,-3.8193,-3.87,-3.9106,-3.9842,-4.0096,-4.004,-3.9525,-3.9606,-3.9841,-3.9333,-3.894,-3.8898,-4.0014,-4.0,-3.9929,-4.1042,-4.1556,-4.1874,-4.2183,-4.248,-4.2845,-4.3392,-4.3515,-4.3515,-4.3515,-4.3515,-4.3515,-4.3515,-4.3515,-4.3515,-4.3515,-4.3515,-4.3515,-4.3515,-4.3515,-4.3515,-4.3515,-4.3515,-4.3515,-4.3515,-4.2995,-4.2711,-4.2711,-4.2142,-4.181,-4.181,-4.208,-4.2223,-4.2223,-4.2809,-4.3232,-4.3515,-4.3515,-4.3515,-4.3515,-4.3515,-4.3515,-2.1104,0.0,-2.6634,-3.0257,-3.2273,0.0,-3.4189,-3.4339,-3.452,-3.5217,-3.6552,-3.7761,-3.8398,-3.802,-3.7862,-3.8591,-3.8728,-3.8957,-3.9597,-3.9834,-3.9656,-3.8886,-3.9368,-3.9174,-3.7838,-3.8261,-3.8362,-3.7753,-3.7584,-3.7297,-3.6829,-3.7246,-3.6918,-3.5633,-3.6248,-3.6265,-3.56,-3.56,-3.56,-3.56,-3.56,-3.56,-3.5633,-3.6918,-3.7178,-3.6586,-3.6586,-3.6214,-3.565,-3.6315,-3.6197,-3.5667,-3.6332,-3.6694,-3.6897,-3.7635,-3.8362,-3.9089,-3.9706,-4.0101,-4.0299,-3.9738,-4.0137,-4.0788,-4.0391,-4.0239,-4.0398,-4.1216,-4.1011,-4.0736,-4.1577,-4.181,-4.181,-4.181,-4.2183,-4.2675,-4.325,-4.3375,-4.3392,-4.3479,-4.3515,-4.3515,-4.3515,-4.3515,-4.3515,-4.3515,-4.3515,-4.3515,-4.3515,-4.3515,-4.3515,-4.3515,-4.3515,-4.3515,-4.3515,-4.3087,-4.2845,-4.2845,-4.2364,-4.2085,-4.2085,-4.2482,-4.275,-4.2845,-4.2845,-4.305,-4.3515,-4.3515,-4.3515,-4.3515,-4.3515,-4.3515,0.0,0.0,-2.7567,0.0,-3.1255,-3.2826,0.0,0.0,-3.3864,0.0,-3.5855,-3.6783,-3.6904,-3.6933,-3.7154,-3.7853,-3.8036,-3.8114,-3.8124,-3.8715,-3.887,-3.8142,-3.8142,-3.7872,-3.7032,-3.7049,-3.7049,-3.6965,-3.6299,-3.618,-3.6778,-3.6231,-3.5802,-3.56,-3.5701,-3.5701,-3.56,-3.56,-3.56,-3.56,-3.56,-3.56,-3.56,-3.5802,-3.5853,-3.5752,-3.5752,-3.5701,-3.56,-3.5718,-3.5701,-3.5616,-3.5718,-3.618,-3.6897,-3.7635,-3.8362,-3.9005,-3.9106,-3.9324,-3.9488,-3.8986,-3.8783,-3.8746,-3.8884,-3.8636,-3.8521,-3.972,-3.9998,-4.0197,-4.147,-4.181,-4.181,-4.181,-4.1874,-4.2062,-4.2674,-4.2807,-4.2939,-4.341,-4.3515,-4.3515,-4.3515,-4.3515,-4.3515,-4.3515,-4.3515,-4.3515,-4.3515,-4.3515,-4.3515,-4.3515,-4.3515,-4.3515,-4.3515,-4.3427,-4.3392,-4.3392,-4.3321,-4.3267,-4.3267,-4.2884,-4.292,-4.3392,-4.3392,-4.3427,-4.3515,-4.3515,-4.3515,-4.3515,-4.3515,-4.3515,-2.0695,-2.323,-2.5557,0.0,-2.8562,-3.0103,-3.1495,0.0,-3.2691,-3.3803,-3.4455,-3.511,-3.5889,-3.5424,-3.5326,-3.6393,-3.665,-3.6824,-3.7176,-3.7895,-3.8108,-3.7364,-3.7652,-3.7432,-3.6248,-3.6535,-3.6626,-3.6163,-3.5785,-3.5752,-3.6113,-3.5402,-3.5182,-3.5583,-3.5199,-3.5182,-3.56,-3.5199,-3.4979,-3.4979,-3.4979,-3.5194,-3.56,-3.56,-3.56,-3.56,-3.56,-3.56,-3.56,-3.56,-3.56,-3.56,-3.56,-3.6096,-3.6897,-3.7635,-3.8108,-3.8447,-3.8853,-3.8723,-3.8356,-3.8578,-3.8793,-3.9078,-3.9589,-3.9896,-4.0266,-4.1167,-4.1419,-4.1635,-4.251,-4.2753,-4.2676,-4.2382,-4.2302,-4.238,-4.2635,-4.2711,-4.2864,-4.3392,-4.3515,-4.3515,-4.3515,-4.3515,-4.3515,-4.3515,-4.3515,-4.3515,-4.3515,-4.3515,-4.3515,-4.3515,-4.3515,-4.3515,-4.3515,-4.3515,-4.3515,-4.3515,-4.3515,-4.3515,-4.3515,-4.3268,-4.325,-4.3497,-4.3214,-4.3196,-4.3515,-4.3515,-4.3515,-4.3515,-4.3515,-4.3515,0.0,0.0,-2.3308,-2.4567,-2.5997,-2.757,0.0,0.0,-3.1092,0.0,-3.2632,-3.3066,-3.4098,-3.3728,-3.3653,-3.4864,-3.5146,-3.5368,-3.5896,-3.6604,-3.6874,-3.6303,-3.6747,-3.667,-3.5695,-3.6146,-3.6248,-3.565,-3.56,-3.56,-3.56,-3.4895,-3.4742,-3.5295,-3.4607,-3.4489,-3.5042,-3.4506,-3.4218,-3.4218,-3.4218,-3.4506,-3.5042,-3.5228,-3.5312,-3.5329,-3.5515,-3.56,-3.56,-3.56,-3.56,-3.56,-3.56,-3.6214,-3.7168,-3.7702,-3.8024,-3.8261,-3.8802,-3.8476,-3.7897,-3.8663,-3.919,-3.969,-4.0461,-4.1094,-4.1703,-4.2302,-4.2577,-4.2826,-4.3375,-4.3515,-4.3356,-4.2826,-4.2711,-4.2711,-4.2711,-4.2807,-4.3014,-4.3427,-4.3515,-4.3515,-4.3515,-4.3515,-4.3515,-4.3515,-4.3515,-4.3515,-4.3515,-4.3515,-4.3515,-4.3515,-4.3515,-4.3515,-4.3515,-4.3515,-4.3515,-4.3515,-4.3515,-4.3515,-4.3515,-4.3515,-4.3515,-4.3515,-4.3124,-4.3105,-4.3515,-4.3515,-4.3515,-4.3515,-4.3515,-4.3515,0.0,-2.0518,0.0,-2.2725,0.0,0.0,0.0,0.0,-2.8951,-2.9666,-3.0253,-3.0672,-3.0758,-3.1748,-3.2781,-3.3486,-3.373,-3.3777,-3.3678,-3.4365,-3.4836,-3.4724,-3.4747,-3.4977,-3.5554,-3.5633,-3.565,-3.56,-3.56,-3.56,-3.56,-3.4895,-3.4506,-3.4556,-3.3846,-3.3491,-3.3525,-3.3491,-3.3457,-3.3457,-3.3457,-3.3491,-3.3541,-3.4235,-3.4556,-3.459,-3.5295,-3.56,-3.56,-3.56,-3.56,-3.56,-3.56,-3.6512,-3.7855,-3.7889,-3.8345,-3.8937,-3.8988,-3.8794,-3.8659,-3.9482,-3.972,-3.9858,-4.0649,-4.0915,-4.1087,-4.1664,-4.2262,-4.2826,-4.3375,-4.3515,-4.3356,-4.2826,-4.2711,-4.2711,-4.2711,-4.3105,-4.348,-4.3479,-4.3515,-4.3515,-4.3515,-4.3515,-4.3515,-4.3515,-4.3515,-4.3515,-4.3515,-4.3515,-4.3515,-4.3515,-4.3515,-4.3515,-4.3515,-4.3515,-4.3515,-4.3515,-4.3515,-4.3515,-4.3515,-4.3515,-4.3515,-4.3515,-4.3462,-4.3462,-4.3515,-4.3515,-4.3515,-4.3515,-4.3515,-4.3515,0.0,0.0,0.0,-2.1645,-2.2547,-2.3571,-2.5393,-2.6246,-2.6991,-2.8094,-2.8816,-2.9415,-2.9834,-3.0986,-3.1929,-3.2168,-3.2285,-3.2346,-3.2292,-3.2529,-3.2876,-3.3266,-3.3307,-3.3754,-3.4844,-3.4965,-3.4782,-3.4362,-3.4678,-3.4521,-3.3662,-3.3287,-3.3309,-3.3778,-3.3068,-3.2679,-3.2679,-3.2679,-3.2679,-3.2679,-3.2679,-3.2933,-3.3406,-3.3677,-3.4049,-3.4506,-3.4776,-3.5165,-3.56,-3.56,-3.56,-3.56,-3.56,-3.6265,-3.7246,-3.7736,-3.8075,-3.8362,-3.8836,-3.8625,-3.8286,-3.9037,-3.9276,-3.9389,-4.0146,-4.0631,-4.1018,-4.1621,-4.2223,-4.2826,-4.3375,-4.3515,-4.3444,-4.325,-4.3214,-4.3214,-4.3214,-4.3356,-4.3515,-4.3515,-4.3515,-4.3515,-4.3515,-4.3515,-4.3515,-4.3515,-4.3515,-4.3515,-4.3515,-4.3515,-4.3515,-4.3515,-4.3515,-4.3515,-4.3515,-4.3515,-4.3515,-4.3515,-4.3515,-4.3515,-4.3515,-4.3515,-4.3515,-4.3515,-4.3515,-4.3515,-4.3515,-4.3515,-4.3515,-4.3515,-4.3515,-4.3515,0.0,0.0,0.0,0.0,0.0,-2.2164,-2.3818,-2.4611,-2.5302,-2.6387,-2.7126,-2.7724,-2.8173,-2.9325,-3.0357,-3.0778,-3.0891,-3.0937,-3.0937,-3.0923,-3.1261,-3.2126,-3.2051,-3.2538,-3.4044,-3.3844,-3.3576,-3.3528,-3.3712,0.0,-3.2835,-3.2475,-3.2412,-3.2662,-3.2192,-3.1938,-3.1938,-3.1938,-3.1938,-3.1938,-3.1938,-3.2192,-3.2679,-3.2916,-3.3288,-3.38,-3.4307,-3.4928,-3.56,-3.56,-3.56,-3.56,-3.56,-3.6096,-3.6897,-3.7635,-3.7905,-3.8041,-3.9022,-3.8886,-3.8396,-3.9123,-3.9385,-3.9469,-3.996,-4.0473,-4.0995,-4.138,-4.1937,-4.2482,-4.2847,-4.3069,-4.3268,-4.3444,-4.3515,-4.3515,-4.3515,-4.3515,-4.3515,-4.3515,-4.3515,-4.3515,-4.3515,-4.3515,-4.3515,-4.3515,-4.3515,-4.3515,-4.3515,-4.3515,-4.3515,-4.3515,-4.3515,-4.3515,-4.3515,-4.3515,-4.3515,-4.3515,-4.3515,-4.3515,-4.3515,-4.3515,-4.3515,-4.3515,-4.3515,-4.3515,-4.3515,-4.3515,-4.3515,-4.3515,-4.3515,-4.3515,0.0,0.0,0.0,0.0,0.0,0.0,-2.2748,0.0,-2.3859,-2.4403,-2.5038,-2.5525,-2.5555,-2.6587,-2.7914,-2.9247,-2.9517,-2.9547,-2.9547,-2.9547,-3.0007,-3.1293,-3.0917,-3.1325,-3.3198,-3.2298,-3.2099,-3.325,-3.2807,-3.2707,-3.3275,-3.2628,-3.1921,-3.119,-3.114,-3.114,-3.1157,-3.1157,-3.1173,-3.119,-3.119,-3.119,-3.1207,-3.1938,-3.2276,-3.2378,-3.385,-3.4895,-3.5566,-3.5583,-3.56,-3.56,-3.56,-3.6079,-3.6863,-3.7618,-3.7905,-3.8125,-3.9605,-3.9639,-3.914,-3.9876,-4.0096,-4.0096,-4.0096,-4.0473,-4.0903,-4.0903,-4.1335,-4.181,-4.181,-4.2262,-4.2826,-4.3357,-4.3497,-4.3515,-4.3515,-4.3515,-4.3515,-4.3515,-4.3515,-4.3515,-4.3515,-4.3515,-4.3515,-4.3515,-4.3515,-4.3515,-4.3515,-4.3515,-4.3515,-4.3515,-4.3515,-4.3515,-4.3515,-4.3515,-4.3515,-4.3515,-4.3515,-4.3515,-4.3515,-4.3515,-4.3515,-4.3515,-4.3515,-4.3515,-4.3515,-4.3515,-4.3515,-4.3515,-4.3515,-4.3515,-1.9276,0.0,0.0,0.0,0.0,0.0,0.0,0.0,-2.1818,-2.244,-2.3074,-2.3646,-2.4073,-2.4448,-2.4986,-2.583,-2.72,-2.8154,-2.8154,-2.8154,-2.8637,-2.9909,-2.9897,-3.0559,-3.2485,-3.2377,-3.2124,0.0,-3.1791,-3.1538,-3.117,-3.0854,-3.0615,-3.0412,-2.9888,-2.9854,-3.0395,-3.0412,-3.0666,-3.119,-3.119,-3.119,-3.1207,-3.141,-3.1802,-3.2344,-3.3288,-3.4117,-3.4844,-3.538,-3.56,-3.56,-3.56,-3.5735,-3.6096,-3.7415,-3.7905,-3.8125,-3.9605,-3.9977,-3.9842,-4.0028,-4.0096,-4.0096,-4.0096,-4.0473,-4.0903,-4.0903,-4.1335,-4.181,-4.181,-4.2262,-4.275,-4.2883,-4.3214,-4.3515,-4.3515,-4.3515,-4.3515,-4.3515,-4.3515,-4.3515,-4.3515,-4.3515,-4.3515,-4.3515,-4.3515,-4.3515,-4.3515,-4.3515,-4.3515,-4.3515,-4.3515,-4.3515,-4.3515,-4.3515,-4.3515,-4.3515,-4.3515,-4.3515,-4.3515,-4.3515,-4.3515,-4.3515,-4.3515,-4.3515,-4.3515,-4.3515,-4.3515,-4.3515,-4.3515,-4.3515,0.0,0.0,0.0,0.0,0.0,0.0,-2.1054,-2.0995,-2.0967,-2.1283,-2.1614,-2.2054,-2.2682,-2.2802,-2.2936,-2.3319,-2.4822,-2.6132,-2.6701,-2.6776,-2.714,-2.813,-2.8224,-2.8856,-3.0478,-3.068,-3.0609,-3.0405,-3.0509,-3.0353,-2.9881,-2.9772,-2.9693,-2.9651,-2.9516,-2.9668,-3.0108,-3.0412,-3.0768,-3.119,-3.119,-3.119,-3.119,-3.119,-3.1427,-3.1904,-3.2949,-3.3643,-3.4117,-3.516,-3.56,-3.56,-3.56,-3.5825,-3.6248,-3.7466,-3.8091,-3.8531,-3.9706,-4.0096,-4.0096,-4.0096,-4.0096,-4.0096,-4.0096,-4.0311,-4.0577,-4.0577,-4.0821,-4.1127,-4.1358,-4.1874,-4.2382,-4.2635,-4.2939,-4.3178,-4.3178,-4.3178,-4.3232,-4.3444,-4.3515,-4.3515,-4.3515,-4.3515,-4.3515,-4.3515,-4.3515,-4.3515,-4.3515,-4.3515,-4.3515,-4.3515,-4.3515,-4.3515,-4.3515,-4.3515,-4.3515,-4.3515,-4.3809,-4.3846,-4.3497,-4.3809,-4.3828,-4.3515,-4.3515,-4.3663,-4.3993,-4.3644,-4.3515,-4.3515,-4.3828,-4.3993,0.0,0.0,0.0,0.0,0.0,0.0,-2.1145,-2.0959,-2.0812,-2.0659,-2.0602,-2.0782,-2.1365,-2.147,-2.15,-2.1555,-2.2512,-2.3774,-2.5181,-2.551,-2.5787,-2.6342,-2.6386,-2.6825,-2.7984,-2.818,-2.8449,-2.8953,-2.9219,-2.9264,-2.9103,-2.9068,-2.899,-2.8873,-2.9499,-2.9886,-2.9989,-3.0717,-3.1123,-3.119,-3.119,-3.119,-3.119,-3.119,-3.119,-3.1275,-3.2763,-3.3406,-3.3525,-3.4991,-3.56,-3.56,-3.56,-3.6096,-3.6897,-3.7635,-3.8362,-3.9106,-3.9842,-4.0096,-4.0096,-4.0096,-4.0096,-4.0096,-4.0096,-4.0096,-4.0096,-4.0096,-4.0096,-4.0229,-4.0756,-4.1358,-4.1958,-4.2557,-4.2711,-4.2711,-4.2711,-4.2711,-4.2845,-4.3322,-4.3444,-4.3515,-4.3515,-4.3515,-4.3515,-4.3515,-4.3515,-4.3515,-4.3515,-4.3515,-4.3515,-4.3515,-4.3515,-4.3515,-4.3515,-4.3515,-4.3515,-4.3515,-4.4176,-4.425,-4.3533,-4.4195,-4.4232,-4.3497,-4.3515,-4.3901,-4.4691,-4.3883,-4.3551,-4.3662,-4.4287,-4.4617,0.0,0.0,0.0,0.0,0.0,0.0,-2.036,-2.0137,-1.9993,-2.0113,-2.0044,-2.0002,-2.0067,-2.0134,-2.0277,-2.0605,-2.0995,-2.1899,-2.3729,-2.4926,-2.5621,-2.5691,-2.601,-2.6543,-2.7319,-2.7694,-2.8198,-2.8941,-2.9061,-2.8862,-2.8329,-2.8167,-2.8055,-2.8027,-2.8179,-2.8551,-2.9213,-2.9956,-3.0615,-3.119,-3.119,-3.119,-3.119,-3.119,-3.119,-3.1275,-3.2763,-3.3406,-3.3525,-3.4991,-3.56,-3.56,-3.56,-3.6096,-3.6897,-3.7635,-3.8362,-3.9106,-3.9842,-4.0096,-4.0096,-4.0096,-4.0096,-4.0096,-4.0096,-4.0096,-4.0096,-4.0096,-4.0096,-4.0229,-4.0756,-4.1358,-4.1958,-4.2557,-4.2711,-4.2711,-4.2711,-4.2711,-4.2731,-4.2845,-4.3214,-4.3515,-4.3515,-4.3515,-4.3515,-4.3515,-4.3515,-4.3515,-4.3515,-4.3515,-4.3515,-4.3515,-4.3515,-4.3515,-4.3515,-4.3515,-4.3515,-4.3515,-4.3662,-4.3644,-4.3515,-4.3662,-4.3644,-4.3515,-4.3515,-4.3901,-4.4691,-4.3883,-4.3828,-4.4452,-4.3956,-4.4085,0.0,0.0,0.0,-2.2082,0.0,0.0,0.0,-2.0074,-1.9708,-1.9744,-1.9708,-1.965,-1.9527,-1.9527,-1.9645,-1.9949,-2.0313,-2.0901,-2.1913,-2.2969,-2.3649,-2.36,-2.4009,-2.4519,-2.5094,-2.6236,-2.7403,-2.8469,-2.7957,-2.7569,-2.7514,-2.7172,-2.7251,-2.7789,-2.8197,-2.8772,-2.9533,-3.0277,-3.0835,-3.119,-3.119,-3.119,-3.119,-3.119,-3.119,-3.1275,-3.2763,-3.3406,-3.3525,-3.4991,-3.56,-3.56,-3.56,-3.6096,-3.6846,-3.7235,-3.7821,-3.8497,-3.887,-3.9225,-3.9554,-3.9554,-3.9808,-4.0096,-4.0096,-4.0096,-4.0096,-4.0096,-4.0286,-4.0497,-4.0497,-4.115,-4.181,-4.181,-4.181,-4.181,-4.181,-4.2041,-4.2262,-4.2262,-4.294,-4.3515,-4.3515,-4.3515,-4.3515,-4.3515,-4.3515,-4.3515,-4.3515,-4.3515,-4.3662,-4.4066,-4.3736,-4.3644,-4.4066,-4.3718,-4.3515,-4.3515,-4.425,-4.4507,-4.4121,-4.4874,-4.4929,-4.4103,-4.3699,-4.3901,-4.4691,-4.4305,-4.4103,-4.4103,-4.4103,-4.4525,0.0,0.0,0.0,0.0,0.0,-2.1079,0.0,0.0,0.0,-1.9541,0.0,0.0,0.0,0.0,0.0,-1.9465,0.0,0.0,0.0,-2.0846,0.0,-2.15,-2.1904,-2.2342,-2.277,-2.4626,-2.6221,-2.7273,-2.6541,-2.6205,-2.6537,-2.6302,-2.6616,-2.7631,-2.8533,-2.9347,-3.0089,-3.0835,-3.119,-3.119,-3.119,-3.119,-3.119,-3.1343,-3.141,-3.1478,-3.2966,-3.3609,-3.3728,-3.5042,-3.56,-3.56,-3.56,-3.6096,-3.6795,-3.6795,-3.7263,-3.7905,-3.7905,-3.8379,-3.8988,-3.8988,-3.9503,-4.0096,-4.0096,-4.0096,-4.0096,-4.0096,-4.0497,-4.0803,-4.0368,-4.1122,-4.1853,-4.1358,-4.126,-4.1284,-4.1241,-4.164,-4.2044,-4.2189,-4.3026,-4.3681,-4.3533,-4.3515,-4.3515,-4.3515,-4.3515,-4.357,-4.3699,-4.3606,-4.3864,-4.4837,-4.4066,-4.3828,-4.4635,-4.3956,-4.357,-4.3718,-4.48,-4.5296,-4.4947,-4.6177,-4.625,-4.4966,-4.4287,-4.4287,-4.4947,-4.4947,-4.4599,-4.3956,-4.447,-4.515,0.0,0.0,0.0,0.0,-2.2657,0.0,-2.1489,0.0,-2.0209,-1.955,0.0,0.0,0.0,0.0,0.0,0.0,0.0,0.0,-1.9278,-1.959,-2.0076,-2.0733,-2.1182,-2.1532,-2.1759,-2.3544,-2.4664,-2.4646,-2.5234,-2.5521,-2.5391,-2.5801,-2.6371,-2.716,-2.8352,-2.9347,-3.0089,-3.0835,-3.119,-3.119,-3.119,-3.119,-3.1207,-3.1887,-3.2175,-3.2259,-3.3728,-3.437,-3.4438,-3.5245,-3.56,-3.56,-3.56,-3.6096,-3.6795,-3.6795,-3.7263,-3.7905,-3.7905,-3.8379,-3.8988,-3.8988,-3.9503,-4.0096,-4.0096,-4.0096,-4.0096,-4.0096,-4.0497,-4.088,-4.081,-4.1703,-4.2577,-4.25,-4.2596,-4.2646,-4.2524,-4.2656,-4.2949,-4.3544,-4.4143,-4.4342,-4.3608,-4.3515,-4.3515,-4.3515,-4.3515,-4.3754,-4.447,-4.3938,-4.4066,-4.559,-4.4397,-4.3828,-4.4635,-4.3956,-4.3791,-4.4525,-4.4066,-4.436,-4.57,-4.5938,-4.5957,-4.5773,-4.5663,-4.5663,-4.5755,-4.5755,-4.5718,-4.5608,-4.5002,-4.5221,0.0,0.0,0.0,0.0,0.0,0.0,-2.1778,0.0,-2.0754,0.0,0.0,0.0,0.0,0.0,0.0,0.0,-1.9021,0.0,0.0,0.0,-1.9158,0.0,0.0,0.0,-2.1532,-2.2523,-2.3405,-2.4136,-2.4249,-2.4694,-2.5601,-2.5596,-2.6358,-2.8142,-2.8733,-2.9568,-3.0734,-3.1055,-3.119,-3.119,-3.119,-3.119,-3.1224,-3.1972,-3.2293,-3.2378,-3.3867,-3.4489,-3.4556,-3.5295,-3.56,-3.56,-3.56,-3.5825,-3.6096,-3.6096,-3.6315,-3.6563,-3.6563,-3.7077,-3.7879,-3.8717,-3.9503,-4.0096,-4.0096,-4.0096,-4.0096,-4.0096,-4.0497,-4.0827,-4.0521,-4.1036,-4.1788,-4.2282,-4.2065,-4.1955,-4.2703,-4.2816,-4.2866,-4.3141,-4.3634,-4.4048,-4.4176,-4.458,-4.4892,-4.4892,-4.4892,-4.5002,-4.5351,-4.5094,-4.5333,-4.6471,-4.5571,-4.5021,-4.5369,-4.5094,-4.4837,-4.4727,-4.5278,-4.6104,-4.726,-4.6838,-4.6599,-4.6599,-4.614,-4.5663,-4.5223,-4.614,-4.6361,-4.5883,-4.5553,-4.5864,-2.7233,0.0,0.0,0.0,0.0,0.0,0.0,0.0,0.0,0.0,0.0,0.0,0.0,0.0,0.0,0.0,0.0,-1.8698,0.0,-1.8365,0.0,0.0,0.0,0.0,0.0,-2.1542,-2.2204,-2.3196,-2.3281,-2.3873,-2.5216,-2.5416,-2.6515,-2.8705,-2.9122,-2.9905,-3.119,-3.119,-3.119,-3.119,-3.119,-3.1309,-3.1532,-3.2276,-3.2716,-3.297,-3.4252,-3.4793,-3.4844,-3.538,-3.56,-3.56,-3.56,-3.56,-3.56,-3.56,-3.56,-3.56,-3.56,-3.6265,-3.7354,-3.8802,-3.9673,-4.0096,-4.0096,-4.0096,-4.0096,-4.0096,-4.0497,-4.078,-4.0254,-4.0625,-4.1312,-4.1951,-4.1771,-4.1743,-4.2894,-4.3238,-4.3382,-4.3554,-4.4072,-4.4745,-4.5553,-4.5626,-4.5645,-4.5865,-4.5902,-4.5975,-4.6214,-4.6049,-4.6287,-4.7314,-4.6507,-4.5993,-4.6214,-4.603,-4.5645,-4.5076,-4.6526,-4.748,-4.7645,-4.7498,-4.7333,-4.7094,-4.6746,-4.6159,-4.5351,-4.6746,-4.7021,-4.6232,-4.6232,-4.658,0.0,0.0,0.0,-2.6411,0.0,0.0,0.0,0.0,-2.2194,0.0,0.0,0.0,0.0,0.0,0.0,0.0,0.0,0.0,0.0,0.0,0.0,0.0,0.0,0.0,0.0,-2.0582,-2.0999,-2.0926,-2.2232,-2.3147,-2.3472,-2.5239,-2.6863,-2.818,-2.9425,-3.0429,-3.119,-3.119,-3.119,-3.119,-3.119,-3.1582,-3.2293,-3.3034,-3.3744,-3.4472,-3.5228,-3.5566,-3.5566,-3.5583,-3.56,-3.56,-3.56,-3.56,-3.56,-3.56,-3.56,-3.56,-3.56,-3.658,-3.8108,-3.9605,-4.0079,-4.0096,-4.0096,-4.0096,-4.0096,-4.0096,-4.0497,-4.078,-4.0254,-4.0914,-4.1789,-4.1825,-4.2334,-4.2952,-4.3397,-4.4232,-4.5108,-4.5681,-4.6434,-4.7241,-4.8049,-4.6269,-4.5002,-4.5773,-4.5902,-4.6177,-4.6947,-4.6379,-4.6507,-4.8104,-4.6838,-4.6214,-4.7003,-4.6361,-4.5883,-4.5865,-4.737,-4.7572,-4.603,-4.7462,-4.7901,-4.7113,-4.7847,-4.7828,-4.7021,-4.7846,-4.7846,-4.7058,-4.7058,-4.7192,0.0,0.0,-2.7873,-2.7665,0.0,0.0,0.0,0.0,0.0,0.0,0.0,0.0,0.0,0.0,0.0,0.0,0.0,0.0,0.0,0.0,0.0,0.0,0.0,0.0,0.0,0.0,-2.0508,-2.1396,-2.1873,-2.2905,-2.4642,-2.5347,-2.668,-2.8794,-2.9271,-3.0045,-3.119,-3.119,-3.119,-3.119,-3.119,-3.1599,-3.2327,-3.3068,-3.3795,-3.4539,-3.5278,-3.56,-3.56,-3.56,-3.56,-3.56,-3.56,-3.56,-3.56,-3.56,-3.56,-3.5667,-3.6214,-3.7364,-3.87,-3.9191,-3.9706,-4.0096,-4.0096,-4.0096,-4.0096,-4.0096,-4.0229,-4.0336,-4.0146,-4.0385,-4.1006,-4.2278,-4.2381,-4.2549,-4.398,-4.4565,-4.4857,-4.5077,-4.5773,-4.6562,-4.7369,-4.6819,-4.6562,-4.737,-4.7498,-4.759,-4.7846,-4.7664,-4.77,-4.8251,-4.781,-4.7388,-4.7113,-4.6856,-4.6911,-4.7462,-4.8012,-4.8067,-4.7517,-4.8012,-4.8177,-4.7901,-4.8159,-4.7901,-4.7094,-4.7901,-4.7902,-4.7113,-4.7645,-4.7935,-2.8766,-2.8569,0.0,-2.8017,-2.7724,0.0,-2.6356,0.0,-2.6155,0.0,0.0,0.0,0.0,0.0,0.0,0.0,0.0,0.0,0.0,-1.8331,0.0,0.0,0.0,0.0,0.0,-1.9897,-2.0354,-2.1697,-2.1822,-2.2778,0.0,-2.5712,-2.7051,-2.9136,-2.9672,-3.0332,-3.119,-3.119,-3.119,-3.119,-3.1461,-3.1989,-3.2733,-3.3457,-3.4201,-3.4928,-3.538,-3.56,-3.56,-3.56,-3.56,-3.56,-3.56,-3.56,-3.56,-3.56,-3.5769,-3.618,-3.7235,-3.8193,-3.9039,-3.9292,-3.9723,-4.0096,-4.0096,-4.0096,-4.0096,-4.0096,-4.0096,-4.0096,-4.0096,-4.0096,-4.0455,-4.1903,-4.2017,-4.2276,-4.405,-4.4784,-4.5223,-4.5498,-4.6214,-4.6929,-4.7443,-4.7516,-4.77,-4.8233,-4.8306,-4.8306,-4.8306,-4.8306,-4.8306,-4.8306,-4.8306,-4.8104,-4.7571,-4.7516,-4.7736,-4.8269,-4.8306,-4.8306,-4.8306,-4.8306,-4.8581,-4.9187,-4.86,-4.8343,-4.8415,-4.8343,-4.8031,-4.7535,-4.8067,-4.8306]},{"header":{"parameterUnit":"m.s-1","parameterCategory":1,"la1":30.6,"la2":29.2853,"lo1":-89.7004,"lo2":-87.6739,"dy":0.0162,"dx":0.0183,"nx":112,"ny":82,"refTime":"2023-03-22T18:00:00:Z","depth":0,"parameterNumber":3,"parameterNumberName":"V-component_of_WINDS"},"data":[0.0,0.0,0.0,0.0,0.0,0.0,0.0,0.0,0.0,0.0,0.0,0.0,0.0,0.0,0.0,0.0,0.0,0.0,0.0,0.0,0.0,0.0,0.0,0.0,0.0,0.0,0.0,0.0,0.0,0.0,0.0,0.0,0.0,0.0,0.0,0.0,0.0,0.0,0.0,0.0,0.0,0.0,0.0,0.0,0.0,0.0,0.0,0.0,0.0,0.0,0.0,0.0,0.0,0.0,0.0,0.0,0.0,0.0,0.0,0.0,0.0,0.0,0.0,0.0,0.0,0.0,0.0,0.0,0.0,0.0,0.0,0.0,0.0,0.0,0.0,0.0,0.0,0.0,0.0,0.0,0.0,0.0,0.0,0.0,0.0,0.0,0.0,0.0,0.0,0.0,0.6776,0.7289,0.9106,1.0434,1.0805,1.1741,1.2374,1.2571,0.0,0.0,0.0,0.0,0.0,0.0,0.0,0.0,0.0,0.0,0.0,0.0,0.0,0.0,0.0,0.0,0.0,0.0,0.0,0.0,0.0,0.0,0.0,0.0,0.0,0.0,0.0,0.0,0.0,0.0,0.0,0.0,0.0,0.0,0.0,0.0,0.0,0.0,0.0,0.0,0.0,0.0,0.0,0.0,0.0,0.0,0.0,0.0,0.0,0.0,0.0,0.0,0.0,0.0,0.0,0.0,0.0,0.0,0.0,0.0,0.0,0.0,0.0,0.0,0.0,0.0,0.0,0.0,0.0,0.0,0.0,0.0,0.0,0.0,0.0,0.0,0.0,0.0,0.0,0.0,0.0,0.0,0.0,0.0,0.0,0.0,0.0,0.0,0.0,0.0,0.0,0.0,0.0,0.0,0.0,0.0,0.0,0.0,0.0,0.0,0.0,0.0,0.0,0.0,0.6645,0.8284,0.9766,1.0851,1.1412,1.1661,1.2011,1.2485,0.0,0.0,0.0,0.0,0.0,0.0,0.0,0.0,0.0,0.0,0.0,0.0,0.0,0.0,0.0,0.0,0.0,0.0,0.0,0.0,0.0,0.0,0.0,0.0,0.0,0.0,0.0,0.0,0.0,0.0,0.0,0.0,0.0,0.0,0.0,0.0,0.0,0.0,0.0,0.0,0.0,0.0,0.0,0.0,0.0,0.0,0.0,0.0,0.0,0.0,0.0,0.0,0.0,0.0,0.0,0.0,0.0,0.0,0.0,0.0,0.0,0.0,0.0,0.0,0.0,0.0,0.0,0.0,0.0,0.0,0.0,0.0,0.0,0.0,0.0,0.0,0.0,0.0,0.0,0.0,0.0,0.0,0.0,0.0,0.0,0.0,0.0,0.0,0.0,0.0,0.0,0.0,0.0,0.0,0.0,0.0,0.0,0.0,0.0,0.0,0.0,0.0,0.0,0.7011,0.7967,0.8437,0.9554,1.0383,1.0646,1.0702,1.1448,1.3152,1.2708,0.0,0.0,0.0,0.0,0.0,0.0,0.0,0.0,0.0,0.0,0.0,0.0,0.0,0.0,0.0,0.0,0.0,0.0,0.0,0.0,0.0,0.0,0.0,0.0,0.0,0.0,0.0,0.0,0.0,0.0,0.0,0.0,0.0,0.0,0.0,0.0,0.0,0.0,0.0,0.0,0.0,0.0,0.0,0.0,0.0,0.0,0.0,0.0,0.0,0.0,0.0,0.0,0.0,0.0,0.0,0.0,0.0,0.0,0.0,0.0,0.0,0.0,0.0,0.0,0.0,0.0,0.0,0.0,0.0,0.0,0.0,0.0,0.0,0.0,0.0,0.0,0.0,0.0,0.0,0.0,0.0,0.0,0.0,0.0,0.0,0.0,0.0,0.0,0.0,0.0,0.0,0.0,0.0,0.0,0.0,0.0,0.0,0.0,0.0,0.0,0.0,0.0,0.8193,0.8858,0.8347,0.9265,0.9905,0.9905,0.997,1.0969,1.3239,1.2365,0.0,0.0,0.0,0.0,0.0,0.0,0.0,0.0,0.0,0.0,0.0,0.0,0.0,0.0,0.0,0.0,0.0,0.0,0.0,0.0,0.0,0.0,0.0,0.0,0.0,0.0,0.0,0.0,0.0,0.0,0.0,0.0,0.0,0.0,0.0,0.0,0.0,0.0,0.0,0.0,0.0,0.0,0.0,0.0,0.0,0.0,0.0,0.0,0.0,0.0,0.0,0.0,0.0,0.0,0.0,0.0,0.0,0.0,0.0,0.0,0.0,0.0,0.0,0.0,0.0,0.0,0.0,0.0,0.0,0.0,0.0,0.0,0.0,0.0,0.0,0.0,0.0,0.0,0.0,0.0,0.0,0.0,0.0,0.0,0.0,0.0,0.0,0.0,0.0,0.0,0.0,0.0,0.0,0.0,0.0,0.0,0.0,0.0,0.0,0.0,0.0,0.0,0.7703,0.8077,0.8279,0.9265,0.9905,0.9905,1.0185,1.0795,1.1778,1.1931,0.0,0.0,0.0,0.0,0.0,0.0,0.0,0.0,0.0,0.0,0.0,0.0,0.0,0.0,0.0,0.0,0.0,0.0,0.0,0.0,0.0,0.0,0.0,0.0,0.0,0.0,0.0,0.0,0.0,0.0,0.0,0.0,0.0,0.0,0.0,0.0,0.0,0.0,0.0,0.0,0.0,0.0,0.0,0.0,0.0,0.0,0.0,0.0,0.0,0.0,0.0,0.0,0.0,0.0,0.0,0.0,0.0,0.0,0.0,0.0,0.0,0.0,0.0,0.0,0.0,0.0,0.0,0.0,0.0,0.0,0.0,0.0,0.0,0.0,0.0,0.0,0.0,0.0,0.0,0.0,0.0,0.0,0.0,0.0,0.0,0.0,0.0,0.0,0.0,0.0,0.0,0.0,0.0,0.0,0.0,0.0,0.0,0.0,0.0,0.0,0.0,0.0,0.7865,0.8141,0.7773,0.8738,0.9403,0.9403,0.9817,1.0779,1.2407,0.0,0.0,0.0,0.0,0.0,0.0,0.0,0.0,0.0,0.0,0.0,0.0,0.0,0.0,0.0,0.0,0.0,0.0,0.0,0.0,0.0,0.0,0.0,0.0,0.0,0.0,0.0,0.0,0.0,0.0,0.0,0.0,0.0,0.0,0.0,0.0,0.0,0.0,0.0,0.0,0.0,0.0,0.0,0.0,0.0,0.0,0.0,0.0,0.0,0.0,0.0,0.0,0.0,0.0,0.0,0.0,0.0,0.0,0.0,0.0,0.0,0.0,0.0,0.0,0.0,0.0,0.0,0.0,0.0,0.0,0.0,0.0,0.0,0.0,0.0,0.0,0.0,0.0,0.0,0.0,0.0,0.0,0.0,0.0,0.0,0.0,0.0,0.0,0.0,0.0,0.0,0.0,0.0,0.0,0.0,0.0,0.0,0.0,0.0,0.0,0.0,0.0,0.7522,0.8039,0.8246,0.7746,0.8688,0.9353,0.9353,0.9692,1.0683,1.2505,0.0,0.0,0.0,0.0,0.0,0.0,0.0,0.0,0.0,0.0,0.0,0.0,0.0,0.0,0.0,0.0,0.0,0.0,0.0,0.0,0.0,0.0,0.0,0.0,0.0,0.0,0.0,0.0,0.0,0.0,0.0,0.0,0.0,0.0,0.0,0.0,0.0,0.0,0.0,0.0,0.0,0.0,0.0,0.0,0.0,0.0,0.0,0.0,0.0,0.0,0.0,0.0,0.0,0.0,0.0,0.0,0.0,0.0,0.0,0.0,0.0,0.0,0.0,0.0,0.0,0.0,0.0,0.0,0.0,0.0,0.0,0.0,0.0,0.0,0.0,0.0,0.0,0.0,0.0,0.0,0.0,0.0,0.0,0.0,0.0,0.0,0.0,0.0,0.0,0.0,0.0,0.0,0.0,0.0,0.0,0.0,0.0,0.0,0.0,0.0,0.0,0.0,0.7881,0.8121,0.8286,0.8298,0.924,0.988,0.9893,0.9893,1.045,0.0,0.0,0.0,0.0,0.0,0.0,0.0,0.0,0.0,0.0,0.0,0.0,0.0,0.0,0.0,0.0,0.0,0.0,0.0,0.0,0.0,0.0,0.0,0.0,0.0,0.0,0.0,0.0,0.0,0.0,0.0,0.0,0.0,0.0,0.0,0.0,0.0,0.0,0.0,0.0,0.0,0.0,0.0,0.0,0.0,0.0,0.0,0.0,0.0,0.0,0.0,0.0,0.0,0.0,0.0,0.0,0.0,0.0,0.0,0.0,0.0,0.0,0.0,0.0,0.0,0.0,0.0,0.0,0.0,0.0,0.0,0.0,0.0,0.0,0.0,0.0,0.0,0.0,0.0,0.0,0.0,0.0,0.0,0.0,0.0,0.0,0.0,0.0,0.0,0.0,0.0,0.0,0.0,0.0,0.0,0.0,0.0,0.0,0.0,0.0,0.0,0.0,0.0,0.807,0.7524,0.725,0.7628,0.8338,0.8926,0.9302,0.9904,1.1005,1.2759,0.0,0.0,0.0,0.0,0.0,0.0,0.0,0.0,0.0,0.0,0.0,0.0,0.0,0.0,0.0,0.0,0.0,0.0,0.0,0.0,0.0,0.0,0.0,0.0,0.0,0.0,0.0,0.0,0.0,0.0,0.0,0.0,0.0,0.0,0.0,0.0,0.0,0.0,0.0,0.0,0.0,0.0,0.0,0.0,0.0,0.0,0.0,0.0,0.0,0.0,0.0,0.0,0.0,0.0,0.0,0.0,0.0,0.0,0.0,0.0,0.0,0.0,0.0,0.0,0.0,0.0,0.0,0.0,0.0,0.0,0.0,0.0,0.0,0.0,0.0,0.0,0.0,0.0,0.0,0.0,0.0,0.0,0.0,0.0,0.0,0.0,0.0,0.0,0.0,0.0,0.0,0.0,0.0,0.0,0.0,0.0,0.0,0.0,0.0,0.0,0.0,0.0,0.8676,0.7893,0.7485,0.8024,0.8589,0.9064,0.939,1.0028,1.1016,1.2492,0.0,0.0,0.0,0.0,0.0,0.0,0.0,0.0,0.0,0.0,0.0,0.0,0.0,0.0,0.0,0.0,0.0,0.0,0.0,0.0,0.0,0.0,0.0,0.0,0.0,0.0,0.0,0.0,0.0,0.0,0.0,0.0,0.0,0.0,0.0,0.0,0.0,0.0,0.0,0.0,0.0,0.0,0.0,0.0,0.0,0.0,0.0,0.0,0.0,0.0,0.0,0.0,0.0,0.0,0.0,0.0,0.0,0.0,0.0,0.0,0.0,0.0,0.0,0.0,0.0,0.0,0.0,0.0,0.0,0.0,0.0,0.0,0.0,0.0,0.0,0.0,0.0,0.0,0.0,0.0,0.0,0.0,0.0,0.0,0.0,0.0,0.0,0.0,0.0,0.0,0.0,0.0,0.0,0.0,0.0,0.0,0.0,0.0,0.0,0.0,0.0,0.0,0.9414,0.8777,0.8424,0.8975,0.9503,0.9843,0.9893,1.0235,1.0788,1.1562,0.0,0.0,0.0,0.0,0.0,0.0,0.0,0.0,0.0,0.0,0.0,0.0,0.0,0.0,0.0,0.0,0.0,0.0,0.0,0.0,0.0,0.0,0.0,0.0,0.0,0.0,0.0,0.0,0.0,0.0,0.0,0.0,0.0,0.0,0.0,0.0,0.0,0.0,0.0,0.0,0.0,0.0,0.0,0.0,0.0,0.0,0.0,0.0,0.0,0.0,0.0,0.0,0.0,0.0,0.0,0.0,0.0,0.0,0.0,0.0,1.3537,1.3508,0.0,0.0,0.0,0.0,0.0,0.0,0.0,0.0,0.0,0.0,0.0,0.0,0.0,0.0,0.0,0.0,0.0,0.0,0.0,0.0,0.0,0.0,0.0,0.0,0.0,0.0,0.0,0.0,0.0,0.0,0.0,0.0,0.0,0.0,0.0,0.0,0.0,0.0,0.0,0.0,0.9162,0.8296,0.7826,0.8411,0.895,0.9441,0.9868,1.0447,1.1265,1.2362,1.269,0.0,0.0,0.0,0.0,0.0,0.0,0.0,0.0,0.0,0.0,0.0,0.0,0.0,0.0,0.0,0.0,0.0,0.0,0.0,0.0,0.0,0.0,0.0,0.0,0.0,0.0,0.0,0.0,0.0,0.0,0.0,0.0,0.0,0.0,0.0,0.0,0.0,0.0,0.0,0.0,0.0,0.0,0.0,0.0,0.0,0.0,0.0,0.0,0.0,0.0,0.0,0.0,0.0,0.0,0.0,0.0,0.0,0.0,0.0,1.4138,1.4014,0.0,0.0,0.0,0.0,0.0,0.0,0.0,0.0,0.0,0.0,0.0,0.0,0.0,0.0,0.0,0.0,0.0,0.0,0.0,0.0,0.0,0.0,0.0,0.0,0.0,0.0,0.0,0.0,0.0,0.0,0.0,0.0,0.0,0.0,0.0,0.0,0.0,0.0,0.0,0.0,0.9562,0.8827,0.8438,0.9014,0.9327,0.9604,0.988,1.0373,1.0998,1.1794,1.25,0.0,0.0,0.0,0.0,0.0,0.0,0.0,0.0,0.0,0.0,0.0,0.0,0.0,0.0,0.0,0.0,0.0,0.0,0.0,0.0,0.0,0.0,0.0,0.0,0.0,0.0,0.0,0.0,0.0,0.0,0.0,0.0,0.0,0.0,0.0,0.0,0.0,0.0,0.0,0.0,0.0,0.0,0.0,0.0,0.0,0.0,0.0,0.0,0.0,0.0,0.0,0.0,0.0,1.584,1.617,1.6488,1.6625,1.6446,1.5929,1.4686,1.4506,1.5069,1.4521,0.0,0.0,0.0,0.0,0.0,0.0,0.0,0.0,0.0,0.0,0.0,0.0,0.0,0.0,0.0,0.0,0.0,0.0,0.0,0.0,0.0,0.0,0.0,0.0,1.6329,1.5635,1.3963,0.0,0.0,0.0,0.0,0.0,0.0,0.0,0.0,0.0,0.0,0.0,1.012,0.9576,0.9277,0.9705,0.9843,0.9905,0.9905,1.021,1.052,1.0801,1.2066,1.28,0.0,0.0,0.0,0.0,0.0,0.0,0.0,0.0,0.0,0.0,0.0,0.0,0.0,0.0,0.0,0.0,0.0,0.0,0.0,0.0,0.0,0.0,0.0,0.0,0.0,0.0,0.0,0.0,0.0,0.0,0.0,0.0,1.4453,1.4389,0.0,0.0,0.0,0.0,0.0,0.0,0.0,0.0,0.0,0.0,0.0,0.0,0.0,1.5089,1.5122,1.6156,1.6483,1.6089,1.6835,1.6936,1.6488,1.604,1.6074,1.6371,1.5735,0.0,1.5525,1.4356,0.0,0.0,0.0,0.0,0.0,0.0,0.0,0.0,0.0,0.0,0.0,0.0,0.0,0.0,0.0,0.0,0.0,0.0,0.0,0.0,0.0,0.0,1.605,1.576,1.5883,1.5918,0.0,1.4415,1.3461,1.2564,1.1791,0.0,0.0,0.0,0.0,0.0,0.0,0.0,1.0365,0.9665,0.9126,0.9201,0.9629,0.9905,0.9905,1.021,1.0421,1.0471,1.0926,1.1661,1.2676,1.3529,0.0,0.0,0.0,0.0,0.0,0.0,0.0,0.0,0.0,0.0,0.0,0.0,0.0,0.0,0.0,0.0,0.0,0.0,0.0,0.0,0.0,0.0,0.0,0.0,0.0,0.0,0.0,0.0,0.0,1.4365,1.4608,1.4653,1.4469,1.43,0.0,0.0,0.0,0.0,0.0,0.0,0.0,0.0,0.0,1.6037,1.6786,1.7206,1.7334,1.7865,1.8013,1.7776,1.7831,1.7714,1.7451,1.7212,1.7237,1.7428,1.7212,1.6923,1.6606,1.5842,1.5896,1.6404,0.0,0.0,0.0,0.0,1.4904,1.4481,1.41,1.4226,1.4568,1.4759,0.0,0.0,0.0,0.0,0.0,0.0,0.0,0.0,0.0,0.0,1.6488,1.6432,1.6249,1.6086,1.6082,1.5357,1.4522,0.0,1.3902,1.3815,1.2963,0.0,0.0,0.0,0.0,1.0058,1.0094,0.9779,0.9554,0.9554,1.0031,1.0231,0.9931,1.0301,1.0522,1.041,1.0544,1.0946,1.167,1.2481,1.3109,0.0,0.0,0.0,0.0,0.0,0.0,0.0,0.0,0.0,0.0,0.0,0.0,0.0,0.0,0.0,0.0,0.0,0.0,0.0,0.0,0.0,0.0,0.0,0.0,0.0,0.0,0.0,0.0,1.4773,1.5116,1.5345,1.5317,1.521,0.0,0.0,0.0,0.0,0.0,0.0,1.5881,1.6123,1.6669,1.7529,1.8065,1.8399,1.8565,1.859,1.8704,1.8882,1.8499,1.8436,1.8606,1.848,1.8393,1.8405,1.8267,1.789,1.736,1.6955,1.6578,1.626,1.6717,1.6669,1.6283,1.603,1.5921,1.5876,1.5542,1.5789,1.625,1.6292,1.6494,1.6608,1.5763,0.0,0.0,0.0,0.0,1.5356,1.5574,1.6035,1.654,1.6862,1.6567,1.6253,1.6467,1.627,1.5782,0.0,1.5329,1.5447,1.4315,0.0,0.0,0.0,0.0,1.0777,1.0499,1.0393,1.0332,1.0332,1.0682,1.0758,1.037,1.0695,1.0793,1.0495,1.0469,1.053,1.0644,1.1598,1.2198,1.2355,0.0,0.0,0.0,0.0,0.0,0.0,0.0,0.0,0.0,0.0,0.0,0.0,0.0,0.0,0.0,0.0,0.0,0.0,0.0,0.0,0.0,0.0,0.0,0.0,0.0,0.0,0.0,0.0,0.0,1.6954,1.6595,0.0,0.0,0.0,0.0,1.5458,1.6389,1.7151,1.7545,1.7192,1.7433,1.8502,1.7784,1.7368,1.7396,1.7517,1.7927,1.8611,1.8655,1.905,1.971,1.9183,1.8958,1.8933,1.8406,1.789,1.736,1.676,1.6659,1.6858,1.69,1.6993,1.7105,1.6904,1.6473,1.5887,1.5188,1.4947,1.5079,1.5588,1.6262,1.6854,1.6676,1.6355,0.0,0.0,1.5444,1.5113,1.5578,1.5729,1.588,1.641,1.6489,1.6476,1.6493,1.7026,1.699,0.0,1.4507,1.4094,1.371,0.0,1.3007,1.2784,1.2443,1.222,1.2259,1.1826,1.1515,1.1515,1.154,1.1538,1.1515,1.154,1.1314,1.0721,1.0671,1.0459,0.9969,1.0312,1.1057,1.2198,1.3067,0.0,0.0,0.0,0.0,0.0,0.0,0.0,0.0,0.0,0.0,0.0,0.0,0.0,0.0,0.0,0.0,0.0,0.0,0.0,0.0,0.0,0.0,0.0,0.0,0.0,0.0,0.0,0.0,1.6302,1.6573,0.0,1.6543,1.6547,1.6528,1.6415,1.6932,1.7455,1.7934,1.7806,1.8038,1.8765,1.8818,1.8866,1.8918,1.8948,1.9085,1.9311,1.9568,1.9602,1.9552,1.994,1.9874,1.9484,1.9321,1.8932,1.8406,1.8193,1.7524,1.665,1.6637,1.668,1.6744,1.6659,1.6751,1.6856,1.6602,1.6505,1.648,1.6283,1.6183,1.6119,1.6057,1.598,1.5856,1.5787,1.5847,1.599,1.617,1.6199,1.6249,1.645,1.65,1.65,1.65,1.6694,1.6712,1.6045,1.585,1.5671,1.5377,1.4734,1.4319,1.4506,1.3586,1.2755,1.2438,1.1927,1.1603,1.1603,1.1914,1.1977,1.164,1.1914,1.1876,1.1312,1.1274,1.1186,1.0998,1.0745,1.1145,1.2311,1.2034,1.2837,0.0,0.0,0.0,0.0,0.0,0.0,0.0,0.0,0.0,0.0,0.0,0.0,0.0,0.0,0.0,0.0,0.0,0.0,0.0,0.0,0.0,0.0,0.0,0.0,0.0,0.0,1.6062,1.6707,1.7223,1.7489,1.7429,1.7595,1.7567,1.7175,1.7488,1.7878,1.8251,1.8123,1.8433,1.9206,1.9308,1.935,1.9393,1.9116,1.9071,1.93,1.9366,1.9489,1.9688,2.0272,2.0372,2.0087,2.0087,1.9685,1.9008,1.9008,1.8243,1.7074,1.6864,1.6685,1.6525,1.6735,1.6936,1.7087,1.7087,1.7087,1.7024,1.6635,1.6249,1.5969,1.5969,1.5969,1.5969,1.5969,1.6233,1.65,1.65,1.65,1.65,1.65,1.65,1.65,1.65,1.65,1.65,1.65,1.6435,1.6296,1.6118,1.5419,1.5026,1.5385,1.448,1.3686,1.3417,1.2831,1.2432,1.2432,1.258,1.2526,1.2178,1.2527,1.2523,1.1914,1.193,1.1868,1.1615,1.1385,1.1608,1.2327,1.1698,1.2338,1.4284,0.0,0.0,0.0,0.0,0.0,0.0,0.0,0.0,0.0,0.0,0.0,0.0,0.0,0.0,0.0,0.0,0.0,0.0,0.0,0.0,0.0,0.0,0.0,1.5601,1.628,1.7174,1.8374,1.8643,1.8803,1.8998,1.9252,1.889,1.775,1.8196,1.8551,1.8637,1.8261,1.86,1.9844,1.9054,1.8617,1.8617,1.7832,1.7795,1.8499,1.8062,1.8665,2.0134,2.0192,2.0387,2.069,2.0717,2.0087,1.9083,1.9083,1.8744,1.8191,1.7614,1.7036,1.6588,1.7149,1.7024,1.655,1.655,1.655,1.655,1.65,1.65,1.65,1.65,1.65,1.65,1.65,1.65,1.65,1.65,1.65,1.65,1.65,1.65,1.65,1.65,1.65,1.65,1.65,1.6082,1.5718,1.5718,1.5299,1.5037,1.5298,1.5107,0.0,1.5286,1.4629,1.4141,1.4135,1.3604,1.3273,1.3231,1.3411,1.3216,1.2472,1.2609,1.2404,1.1688,1.214,1.2339,1.2201,1.2155,1.2576,1.3497,0.0,0.0,0.0,0.0,0.0,0.0,0.0,0.0,0.0,0.0,0.0,0.0,0.0,0.0,0.0,0.0,0.0,0.0,0.0,0.0,0.0,0.0,1.6215,1.6254,1.7059,1.7849,1.8502,1.8923,1.9163,1.9224,1.9269,1.9184,1.8854,1.8998,1.9093,1.9093,1.9,1.9092,1.9451,1.9246,1.9111,1.9111,1.8564,1.835,1.8581,1.879,1.8935,1.9001,2.0245,2.0628,2.0366,2.0993,2.1091,2.0815,2.0815,2.0238,1.9233,1.7926,1.731,1.7112,1.6861,1.7174,1.7739,1.7739,1.7739,1.7601,1.6763,1.65,1.65,1.65,1.65,1.65,1.65,1.65,1.65,1.65,1.65,1.65,1.65,1.65,1.65,1.65,1.65,1.65,1.65,1.6375,1.6274,1.6274,1.617,1.6078,1.6156,1.579,0.0,1.5578,1.5071,1.4751,1.4953,1.4819,1.4578,1.4184,1.4205,1.3864,1.3018,1.3024,1.2975,1.276,1.2526,1.2371,1.2355,1.2796,1.3158,0.0,0.0,0.0,0.0,0.0,0.0,0.0,0.0,0.0,0.0,0.0,0.0,0.0,0.0,0.0,0.0,0.0,0.0,0.0,0.0,0.0,0.0,1.7179,1.7836,1.818,1.8237,1.8598,1.9572,1.9785,1.9893,2.0088,2.0098,1.9951,1.958,1.9551,1.9473,1.9297,1.9453,1.9551,1.9551,1.9551,1.9551,1.9551,1.9121,1.8783,1.8598,1.8887,1.8962,1.8878,1.9838,2.0366,2.0546,2.0717,2.0858,2.0921,2.0555,2.0117,0.0,0.0,0.0,0.0,0.0,1.7215,1.8179,1.794,1.7702,1.7476,1.7265,1.7074,1.6923,1.7127,1.7202,1.7202,1.7202,1.7202,1.7174,1.6936,1.6886,1.6886,1.6886,1.6886,1.6948,1.7152,1.7049,1.6948,1.7174,1.6814,0.0,1.6835,1.6663,1.6554,1.6647,1.6311,1.6078,1.6175,1.5644,1.5289,1.5451,1.5282,1.5002,1.4681,1.4747,0.0,0.0,0.0,1.3747,1.3905,1.3763,0.0,0.0,0.0,1.4175,1.3988,0.0,0.0,0.0,1.4337,1.393,0.0,0.0,0.0,0.0,0.0,0.0,0.0,0.0,0.0,0.0,0.0,0.0,0.0,0.0,0.0,0.0,1.8859,1.9783,2.0693,1.9756,1.9543,2.1083,2.0957,2.0869,2.1229,2.1268,2.0947,2.0195,2.0098,1.9902,1.9531,0.0,0.0,0.0,0.0,1.999,1.999,1.957,1.9141,1.8676,1.8627,1.8779,1.9177,1.9276,1.9866,2.0778,2.0146,2.0019,2.02,1.9407,1.9231,1.9439,1.9647,1.8794,1.7413,1.6974,1.7415,1.8229,1.7762,0.0,0.0,1.7903,1.7877,1.7586,1.8053,1.8204,1.8204,1.8204,1.8204,1.8091,1.7601,1.7461,1.7423,1.7486,1.7448,1.7561,1.8091,1.7815,1.7614,1.8103,1.7365,1.6848,1.7322,1.6898,1.6576,1.6825,1.6647,1.6589,1.6815,1.6234,1.5806,1.5827,0.0,0.0,1.5046,1.52,1.5192,1.4934,1.4568,1.4528,1.4896,1.5174,1.5422,1.5605,1.5434,1.517,1.4787,1.4787,1.4744,1.4595,1.4658,1.4295,0.0,0.0,0.0,0.0,0.0,0.0,0.0,0.0,0.0,0.0,0.0,0.0,0.0,0.0,0.0,1.8973,1.9856,2.0781,2.1963,2.1631,2.1387,2.1719,2.1689,2.167,2.1748,2.1758,2.1689,2.1514,2.1182,2.0898,2.082,2.0596,2.0478,2.0478,2.0478,2.0478,2.0478,2.001,1.958,1.916,0.0,0.0,1.8269,1.8977,1.9411,1.9641,2.0221,2.0452,2.052,2.0331,2.0028,1.9621,1.9273,1.8706,1.8091,1.8393,1.8657,1.8832,1.8719,1.8607,1.8481,1.8279,1.8129,1.8066,1.8179,1.8204,0.0,1.8204,1.8204,1.8179,1.8078,1.7714,1.7524,1.794,1.7702,1.7561,1.8091,1.8129,1.8078,1.8179,1.8028,1.7777,1.7461,1.6898,1.6516,1.6573,1.652,1.6516,1.6573,1.6441,1.6426,1.665,1.6591,1.6345,1.5902,1.5899,1.5627,1.4927,1.4826,1.4826,1.4896,1.4513,1.4534,1.5047,1.4554,1.4455,1.4787,1.4787,1.4514,1.398,1.3977,1.3918,0.0,0.0,0.0,0.0,0.0,0.0,0.0,0.0,0.0,0.0,0.0,1.6707,0.0,0.0,1.9232,2.0496,2.1163,2.1846,2.2662,2.2646,2.251,2.251,2.2324,2.2197,2.2197,2.2197,2.2119,2.1904,2.168,2.1562,2.1562,2.1348,2.1123,2.0908,2.0898,2.0791,2.0605,2.039,2.0019,1.96,1.917,1.874,1.832,1.8528,1.8888,1.9299,1.9299,1.9562,1.9922,1.9662,1.9381,1.9109,1.8982,1.889,1.8775,1.8635,1.877,1.9008,1.9008,1.882,1.8632,1.892,1.8832,1.8644,1.8932,1.9007,1.9007,1.9007,1.9007,1.8945,1.8657,1.8405,1.8279,1.8531,1.8405,1.8355,1.8882,1.8794,1.8669,1.8957,1.8581,1.8204,1.8204,1.7513,1.6861,1.6538,1.65,1.65,1.65,1.65,1.6557,1.67,1.6702,1.6591,1.6318,1.6008,1.5559,1.4886,1.4821,1.4666,1.4405,1.4359,1.4499,1.4784,1.4487,1.4333,1.4295,1.4295,1.3963,1.3348,1.3348,1.3348,0.0,0.0,0.0,0.0,0.0,0.0,0.0,0.0,1.5177,1.6543,1.7416,1.8213,1.9363,1.9951,2.0674,2.1816,2.2353,2.2711,2.3052,2.3091,2.3091,2.3091,2.2799,2.2637,2.2637,2.2637,2.249,2.2158,2.2051,2.2012,2.2012,2.1934,2.1728,2.1327,2.1239,2.1025,2.0742,2.0644,2.0342,1.9912,1.957,1.9141,1.8588,1.8247,1.8441,1.9011,1.8303,1.8395,1.9013,1.8585,1.8409,1.8422,1.8714,1.9,1.9152,1.864,1.8734,1.9158,1.9158,1.8857,1.8656,1.9522,1.9522,1.9233,1.9673,1.9798,1.9798,1.9798,1.9798,1.971,1.9259,1.9083,1.9033,1.9133,1.9083,1.9146,1.9685,1.9447,1.9271,1.9723,1.9108,1.8631,1.8945,1.8292,1.7476,1.6785,1.6584,1.65,1.65,1.65,1.65,1.65,1.65,1.65,1.65,1.5964,1.5421,1.4974,1.4799,1.4507,1.406,1.436,1.4583,1.4698,1.4583,1.4283,1.3792,1.3792,1.3481,1.2905,1.2905,1.2905,1.2823,1.2661,1.3407,1.5381,1.5468,1.5806,0.0,0.0,1.7906,1.9219,1.9561,1.9795,2.0361,2.1103,2.1836,2.2353,2.275,2.3042,2.3091,2.3091,2.3091,2.3091,2.3052,2.3023,2.3023,2.3023,2.3003,2.2955,2.2613,2.2441,2.2441,2.209,2.1865,2.1816,2.1435,2.1171,2.1122,2.0762,2.0342,1.9912,1.9863,1.9387,1.8598,1.8549,1.8394,1.8134,1.8042,1.8076,1.8134,1.8085,1.8065,1.8083,1.8432,1.8564,1.8646,1.9107,1.9456,1.971,1.971,1.9673,1.9648,1.9761,1.9761,1.9723,1.9786,1.9798,1.9798,1.9798,1.9798,1.9786,1.9736,1.9346,1.9121,1.961,1.9334,1.9146,1.9685,1.9761,1.9736,1.9798,1.9698,1.9497,1.907,1.8907,1.8469,1.7438,1.6848,1.65,1.65,1.65,1.65,1.65,1.65,1.65,1.65,1.5964,1.5564,1.5504,1.5005,1.4675,1.4597,1.4157,1.4143,1.4686,1.4167,1.3873,1.3792,1.3792,1.3481,1.2905,1.2905,1.2905,1.5017,1.5156,1.5653,0.0,1.7223,1.7862,1.8909,1.9104,1.9414,2.043,2.1074,2.1553,2.1982,2.2363,2.2676,0.0,2.2984,2.3091,2.3091,2.2886,2.2643,2.2441,2.2627,2.2828,2.3071,2.3091,2.3091,2.3091,2.2925,2.2838,2.2838,2.2672,2.25,2.2256,2.207,2.1697,2.12,2.1045,2.0732,2.0283,2.0039,1.9727,1.9329,1.8831,1.8373,1.8008,1.8008,1.8008,1.8008,1.8008,1.8008,1.8022,1.8161,1.8316,1.8564,1.9166,1.967,2.0065,2.0268,2.0514,2.0778,2.0778,2.0778,2.0778,2.0778,2.0778,2.0715,2.0415,2.0327,2.0327,2.0327,2.0163,2.0112,2.0652,2.0614,2.0526,2.074,2.0778,2.0778,2.0778,2.0553,2.0264,2.0024,1.9447,1.8845,1.8405,1.7589,1.6898,1.6538,1.65,1.65,1.65,1.65,1.65,1.65,1.5634,1.5085,1.5085,1.4177,1.3658,1.3658,1.3406,1.3406,1.3658,1.3396,1.3286,1.3286,1.3286,1.3152,1.2905,1.2905,1.2905,1.6482,1.6963,1.7344,1.793,1.8867,1.9619,1.9514,2.006,2.085,2.1561,2.2214,2.2744,2.2886,2.3013,2.3052,2.2945,2.3023,2.3091,2.3091,2.274,2.2402,2.21,2.2227,2.251,2.2886,2.3023,2.3091,2.3091,2.3091,2.3091,2.3091,2.3091,2.2955,2.2652,2.2578,2.2158,2.1385,2.1249,2.1016,2.0595,2.0244,2.0029,1.9855,1.9114,1.8549,1.8184,1.8184,1.8081,1.8008,1.8008,1.8008,1.8008,1.8008,1.8138,1.8432,1.897,1.9437,1.9907,2.0385,2.0825,2.1188,2.1425,2.1493,2.1493,2.1493,2.1493,2.1405,2.1031,2.0918,2.0918,2.0918,2.0918,2.1018,2.1421,2.1493,2.1493,2.1493,2.1493,2.1493,2.1493,2.1194,2.0867,2.0717,2.0038,1.9296,1.8771,1.8223,1.7576,1.6848,1.6588,1.65,1.65,1.6358,1.6238,1.6238,1.5152,1.4445,1.4445,1.3478,1.2905,1.2905,1.2905,1.2905,1.2905,1.2905,1.2905,1.2905,1.2905,1.2905,1.2905,1.2905,1.2905,0.0,0.0,1.7213,1.9316,2.0185,2.0791,2.1592,2.2119,2.2559,2.2945,2.3062,2.2955,2.2607,2.2818,2.2964,2.2598,2.2828,2.3091,2.3091,2.274,2.251,2.249,2.2148,2.207,0.0,2.2857,2.3091,2.3091,2.3091,2.3091,2.3091,2.3091,2.3091,2.3081,2.2682,2.2305,2.1865,2.1445,2.1016,2.0605,2.0595,2.0322,1.9902,1.9463,1.9023,1.8588,1.8588,1.8354,1.8008,1.8008,1.8008,1.8008,1.8008,1.8008,1.8065,1.8409,1.8717,1.906,1.9913,2.0214,2.0382,2.1216,2.1493,2.1493,2.1493,2.1493,2.1493,2.1468,2.1496,2.1496,2.1496,2.1496,2.1496,2.1493,2.1493,2.1493,2.1493,2.1493,2.1493,2.1493,2.1509,2.132,2.0779,2.0666,2.0026,1.8199,1.851,1.8556,1.7524,1.6861,1.65,1.65,1.5986,1.5632,1.5632,1.4526,1.3815,1.3815,1.3238,1.2905,1.2905,1.2905,1.2905,1.2905,1.2905,1.2905,1.2905,1.2905,1.2905,1.2905,1.2905,1.2905,0.0,0.0,1.9923,2.0967,2.1973,2.2783,2.3076,2.3262,2.3242,2.2812,2.2181,2.1615,2.1299,2.1257,2.1322,2.16,2.2223,2.2822,2.3052,2.274,2.2305,2.1697,2.2041,0.0,0.0,0.0,0.0,2.3071,2.3091,2.3091,2.3091,2.3091,2.3091,2.3091,2.2955,2.2682,2.2305,2.2158,2.1719,2.1006,2.0752,2.0332,1.9912,1.9766,1.9316,1.8598,1.8598,1.8364,1.8008,1.8008,1.8008,1.8008,1.8008,1.8008,1.8022,1.8134,1.824,1.844,1.951,2.0144,2.0522,2.0811,2.0903,2.0903,2.0903,2.1312,2.1674,2.1281,2.1576,2.2121,2.2456,2.2556,2.2744,2.3527,2.3703,2.3602,2.3238,2.315,2.3037,2.2648,2.2255,2.197,2.1794,2.1182,2.0064,1.8173,1.7506,1.7264,1.738,1.6873,1.65,1.65,1.5952,1.561,1.561,1.4503,1.3792,1.3792,1.3238,1.2905,1.2905,1.2905,1.2905,1.2905,1.2905,1.2905,1.2905,1.2905,1.2905,1.2905,1.2905,1.2905,0.0,2.0312,2.1865,2.2607,2.3291,2.3789,2.3789,2.3555,2.3135,2.2432,2.151,2.0732,2.0291,2.0079,2.0052,2.0331,2.0938,2.1621,2.2311,2.209,2.1787,2.1658,2.2041,2.2129,0.0,0.0,0.0,2.3062,2.3091,2.3091,2.3091,2.3091,2.3091,2.3091,2.3091,2.2896,2.2519,2.251,2.2158,2.1465,2.1016,2.0654,2.0342,2.0215,1.9756,1.9056,1.9056,1.8734,1.8242,1.8408,1.8291,1.8027,1.8174,1.8144,1.8008,1.8008,1.8008,1.8162,1.9201,1.9801,2.0171,2.0494,2.059,2.0624,2.076,2.1204,2.1597,2.1371,2.1726,2.2258,2.2594,2.2912,2.3347,2.4091,2.4536,2.472,2.4368,2.4142,2.3891,2.3484,2.2957,2.2506,2.2347,2.096,1.9598,1.866,1.7116,1.6387,1.7201,1.679,1.6446,1.6456,1.5751,1.5255,1.5177,1.4272,1.374,1.3893,1.3422,1.3105,1.3105,1.2983,1.2905,1.2905,1.2905,1.2905,1.2905,1.2905,1.2905,1.2905,1.2905,1.2983,2.1133,2.2275,2.2939,2.417,2.417,2.3838,2.3799,2.3125,2.2373,2.1926,2.1104,2.0252,0.0,0.0,1.9147,1.8972,1.921,1.9863,2.1112,2.0967,2.1192,0.0,0.0,0.0,0.0,0.0,0.0,2.3101,0.0,2.311,2.312,2.311,2.3091,2.3091,2.3091,2.2906,2.2549,2.2519,2.2314,2.1914,2.1475,2.122,2.1181,2.0791,2.0352,1.9912,1.9912,1.9407,1.8666,1.9121,1.8799,1.8086,1.8451,1.8344,1.8008,1.8008,1.8008,1.811,1.8944,1.9243,1.9365,2.0204,2.0484,2.0584,2.093,2.1119,2.1275,2.1718,2.1875,2.192,2.1943,2.2605,2.3292,2.3349,2.414,2.4831,2.4838,2.4456,2.4067,2.4054,2.3547,2.297,2.2418,2.0255,1.8794,1.9452,1.7368,1.6063,1.6968,1.6621,1.6303,1.6361,1.5372,1.4639,1.444,1.3872,1.3685,1.4085,1.3714,1.3506,1.3506,1.3105,1.2905,1.2905,1.2905,1.2905,1.2905,1.2925,1.2935,1.2935,1.2964,1.3164,2.206,2.3359,2.458,2.5234,2.5068,2.4617,2.3935,2.3125,2.2161,2.0879,1.9492,1.8364,0.0,0.0,0.0,1.9223,2.0427,0.0,2.2477,2.2516,0.0,2.251,0.0,2.3096,2.2568,2.3086,0.0,0.0,2.3276,2.3237,2.3603,2.3276,2.3091,2.3091,2.3091,2.3042,2.2935,2.2666,2.2461,2.2344,2.1924,2.1553,2.119,2.1073,2.0644,1.9912,1.9912,1.9609,1.9131,1.9238,1.8965,1.8451,1.8559,1.8344,1.8008,1.8008,1.8008,1.8042,1.8269,1.8337,1.8371,1.8596,1.8876,1.9126,1.9237,1.9944,2.0796,2.0913,2.14,2.1998,2.2401,2.2666,2.3154,2.4295,2.4752,2.5036,2.5319,2.5285,2.5071,2.4682,2.4155,2.359,2.2995,2.1026,1.9373,1.8851,1.7196,1.622,1.6789,1.6415,1.6074,1.6099,1.5426,1.4972,1.4945,1.4333,1.3997,1.4104,1.3714,1.3506,1.3506,1.3105,1.2905,1.2905,1.2905,1.2905,1.2905,1.3193,1.335,1.335,1.3636,1.3851,2.3887,2.5049,2.5937,2.6006,2.5537,2.4697,2.3237,2.2285,2.1243,1.9416,1.8256,0.0,1.7153,1.7121,0.0,0.0,0.0,0.0,2.1836,2.2136,2.2379,0.0,2.3213,0.0,2.3096,2.3506,2.3945,0.0,2.3594,2.3286,2.3769,2.3335,2.3091,2.3091,2.3091,2.3091,2.3091,2.2867,2.274,2.2783,2.2363,2.1934,2.1514,2.1278,2.0859,2.0195,0.0,1.9951,1.958,1.9803,1.9365,1.8637,1.9017,1.8792,1.8276,1.8496,1.8574,1.8574,1.8574,1.8574,1.8535,1.8315,1.8412,1.8666,1.9046,1.9684,2.0342,2.0545,2.0953,2.1408,2.1697,2.2092,2.2623,2.3495,2.4036,2.4399,2.4635,2.4489,2.4178,2.363,2.3422,2.3215,2.2897,2.1519,2.0148,1.926,1.7722,1.6632,1.6507,1.6138,1.5894,1.5947,1.5447,1.5059,1.4972,1.4631,1.4475,1.466,1.4297,1.4072,1.4072,1.3662,1.334,1.3164,1.334,1.334,1.3154,1.3574,1.3753,1.3763,1.3997,1.4211,2.5928,2.6699,2.6846,2.6484,2.5635,2.4336,2.2071,2.1075,2.0019,1.7883,0.0,1.7062,1.6977,1.6658,1.6665,1.742,0.0,1.8945,2.0703,2.124,2.1853,2.2964,2.3149,2.3335,2.375,2.3838,2.4209,2.5057,2.3975,2.3432,2.3857,2.3467,2.3149,2.3091,2.3091,2.3091,2.3091,2.3091,2.3091,2.3091,2.2773,2.2373,2.1953,2.1514,2.1074,2.0693,2.0635,2.0352,2.0029,2.0449,1.9873,1.8841,1.9582,1.9424,1.8734,1.915,1.9287,1.9287,1.9287,1.9287,1.9219,1.8848,1.8724,1.8909,1.9687,1.9951,2.0078,2.0498,2.0605,2.0605,2.0605,2.1193,2.1849,2.1952,2.2664,2.3331,2.3478,2.3142,2.2682,2.2188,2.2307,2.2441,2.2441,2.1616,2.0668,1.9851,1.8348,1.6997,1.6186,1.5832,1.5694,1.581,1.5434,1.5077,1.489,1.4873,1.5029,1.5391,1.5019,1.4813,1.4813,1.4338,1.3938,1.3603,1.3919,1.3929,1.3594,1.3987,1.4192,1.4192,1.425,1.4475,2.6611,2.6709,2.6484,2.6406,2.5185,2.3447,2.1157,2.0146,0.0,0.0,1.6688,1.6627,1.6665,1.6788,1.7422,1.9083,1.9782,2.0723,2.2409,2.2721,2.2847,0.0,2.3457,2.3711,2.3779,2.4102,0.0,0.0,2.4531,2.4228,2.4307,2.3906,2.3516,2.311,2.3091,2.3091,2.3091,2.3091,2.3091,2.3091,2.3023,2.2812,2.2383,2.1973,2.1533,2.1094,2.0723,0.0,2.0498,2.0576,2.0215,1.9707,1.9853,1.9609,1.918,1.9258,1.9287,1.9287,1.9287,1.9287,1.9277,1.9199,1.9404,1.9679,1.9863,2.0166,2.0507,2.0586,2.0605,2.0605,2.0605,2.0712,2.1049,2.1811,2.214,2.2478,2.3331,2.3422,2.3332,2.3243,2.261,2.2083,2.2083,2.0709,1.9469,1.8913,1.7696,1.6661,1.6164,1.5733,1.5466,1.5495,1.5407,1.533,1.5293,1.5303,1.5332,1.541,1.5019,1.4813,1.4813,1.4338,1.4075,1.3997,1.4065,1.4075,1.3997,1.4463,1.4678,1.4678,1.5029,1.5234,2.7119,2.7363,2.7217,2.6553,2.541,2.3603,2.0322,0.0,0.0,0.0,1.6285,1.668,1.6708,1.6882,0.0,1.8364,1.9004,1.9936,2.1685,2.2002,0.0,2.3369,2.3662,2.3965,0.0,2.4639,2.4941,2.5381,2.501,2.4658,2.4424,2.3809,2.3315,2.3101,2.3091,2.3091,2.3091,2.3091,2.3091,2.3091,2.3091,2.2877,2.251,2.2305,2.1855,2.1181,2.1006,2.0781,2.0605,2.0605,2.0312,1.9932,2.0166,1.999,1.9639,1.9901,1.9989,1.9989,1.9989,1.9989,1.9989,1.9989,1.9932,1.9961,2.0185,2.0439,2.0605,2.0605,2.0605,2.0605,2.0605,2.0605,2.0712,2.1155,2.126,2.1413,2.1897,2.201,2.201,2.201,2.162,2.1285,2.1285,2.054,1.9738,1.907,1.8234,1.7473,1.6872,1.6367,1.5888,1.5459,1.541,1.541,1.541,1.541,1.541,1.541,1.5225,1.5107,1.5107,1.4912,1.4669,1.4473,1.466,1.466,1.4473,1.4902,1.5107,1.5117,1.5322,1.541,2.7297,2.7832,2.7851,2.6572,2.5518,2.3736,1.962,1.8924,0.0,0.0,1.6066,1.6818,1.6818,1.6856,1.7038,0.0,1.7893,1.879,2.0542,2.1076,2.1877,0.0,2.373,0.0,2.5037,2.5116,0.0,2.5654,2.5234,2.4736,2.4307,2.351,2.3091,2.3091,2.3091,2.3091,2.3091,2.3091,2.3091,2.3091,2.3091,2.2925,2.2646,2.2549,2.21,2.1327,2.1239,2.0977,2.0605,2.0605,2.0361,2.0088,2.0468,2.0352,2.0098,2.0478,2.0664,2.0732,2.0635,2.0664,2.0752,2.0752,2.041,2.0117,2.0498,2.0605,2.0605,2.0605,2.0605,2.0625,2.0723,2.0674,2.0605,2.0605,2.0605,2.0605,2.0605,2.0605,2.0605,2.0605,2.0521,2.0437,2.0437,2.0294,1.9932,1.9256,1.868,1.8114,1.7471,1.7002,1.6395,1.5635,1.5557,1.5508,1.542,1.541,1.541,1.541,1.541,1.541,1.541,1.541,1.5254,1.4922,1.5244,1.5244,1.4922,1.5254,1.541,1.541,1.541,1.5323,2.6681,2.7393,2.7412,2.6123,2.4844,2.2924,1.9108,0.0,1.8071,1.5681,1.6066,1.6818,1.6818,1.6697,1.6957,0.0,0.0,1.867,0.0,2.1184,2.1924,2.311,0.0,0.0,2.5037,2.5116,2.5254,2.5654,2.4951,2.4297,2.3867,2.3398,2.3091,2.3091,2.3091,2.3091,2.3091,2.3091,2.3091,2.3091,2.3091,2.3071,2.3023,2.2685,2.2266,2.1807,2.1406,2.0977,0.0,2.0605,2.0576,2.0546,2.0586,2.0576,2.0546,2.0586,2.082,2.1073,2.0742,2.083,2.1132,2.1132,2.0869,2.0546,2.0595,2.0605,2.0605,2.0605,2.0605,2.0693,2.1064,2.0869,2.0605,2.0605,2.0605,2.0605,2.0605,2.0605,2.0605,2.0605,2.0252,1.9966,1.9966,1.9321,1.874,1.8679,1.8026,1.7471,1.7416,1.7002,1.6512,1.6085,1.6036,1.587,1.5449,1.541,1.541,1.541,1.541,1.541,1.541,1.541,1.5391,1.5352,1.5391,1.5391,1.5352,1.5391,1.541,1.541,1.541,1.5021,2.5703,2.6748,2.6963,2.5654,2.3984,2.196,1.9179,0.0,1.7203,1.5497,1.6207,1.6985,1.6583,1.6699,1.6892,0.0,0.0,0.0,1.8789,0.0,2.0545,2.2627,2.3403,0.0,0.0,0.0,2.5322,2.4923,2.4619,2.4121,2.3437,2.3188,2.3091,2.3091,2.3091,2.3091,2.3091,2.3091,2.3091,2.3091,2.3091,2.3091,2.3091,2.2925,2.2656,2.2236,2.1816,2.1377,0.0,2.0713,2.0605,2.0605,2.0605,2.0605,2.0605,2.0605,2.0713,2.081,2.0664,2.0859,2.119,2.119,2.1289,2.1398,2.1398,2.1026,2.0664,2.0889,2.0771,2.0644,2.0781,2.0898,2.0898,2.0674,2.0771,2.0889,2.0664,2.0605,2.0605,2.0605,2.0215,1.9912,1.9912,1.9424,1.8936,1.8637,1.8315,1.8047,1.7793,1.7607,1.7334,1.6936,1.6408,1.5919,1.5449,1.541,1.541,1.541,1.541,1.541,1.541,1.541,1.541,1.541,1.541,1.541,1.541,1.5674,1.5831,1.5801,1.5311,1.5007,2.4209,2.5634,2.6348,2.5166,2.3359,2.1273,0.0,0.0,1.6777,1.5434,1.6231,1.6945,1.6213,1.6521,1.6695,0.0,0.0,1.6572,1.7481,1.8103,1.9367,0.0,0.0,2.3594,0.0,2.5508,2.5372,2.4668,2.4492,2.4102,2.3369,2.3169,2.3091,2.3091,2.3091,2.3091,2.3091,2.3091,2.3091,2.3091,2.3091,2.3091,2.3091,2.3091,2.2867,2.249,2.2197,2.1826,0.0,2.0947,2.0762,2.0752,2.0654,2.0605,2.0615,2.0713,2.0762,2.0781,2.0948,2.1084,2.122,2.1346,2.1465,2.1572,2.1953,2.1593,2.0996,2.1142,2.1103,2.0997,2.0997,2.1191,2.1348,2.1065,2.1103,2.1103,2.083,2.0693,2.0605,2.0605,2.0312,2.0107,2.0107,1.9756,1.9326,1.8861,1.8685,1.8451,1.8057,1.8008,1.7852,1.7432,1.6858,1.6279,1.581,1.5684,1.5605,1.5605,1.5605,1.5547,1.542,1.541,1.5469,1.5596,1.5605,1.5674,1.5801,1.6113,1.629,1.626,1.5694,1.526,2.1929,2.3949,2.5489,2.4648,2.2975,2.1111,0.0,0.0,1.7148,1.562,1.6107,1.6548,1.5769,1.6103,1.631,1.5697,0.0,0.0,1.7142,1.778,0.0,0.0,0.0,2.1975,2.3945,2.5075,2.5547,2.5145,2.4658,0.0,2.3809,2.3335,2.3091,2.3091,2.3091,2.3091,2.3091,2.3091,2.3091,2.3091,2.3091,2.3091,2.3091,2.3091,2.2867,2.251,2.251,2.2266,0.0,2.1406,2.119,2.1142,2.0781,2.0605,2.0664,2.1064,2.119,2.1249,2.1719,2.1592,2.1268,2.1738,2.1329,2.086,2.2109,2.2207,2.1787,2.1317,2.1543,2.1875,2.1875,2.1875,2.1875,2.1875,2.1543,2.119,2.119,2.0879,2.0605,2.0605,2.0595,2.0595,2.0595,2.0195,1.9766,1.9346,1.8916,1.8451,1.8057,1.8008,1.7852,1.7432,1.7373,1.7197,1.6726,1.6309,1.6085,1.6085,1.6085,1.5889,1.543,1.541,1.5615,1.6075,1.6085,1.6279,1.6687,1.6687,1.6697,1.6697,1.6697,1.5767,1.9904,2.1113,2.1809,2.1264,1.9849,1.84,1.7713,0.0,1.5698,1.5083,1.5637,1.6082,1.5507,1.6015,1.6337,1.5871,1.6343,0.0,0.0,0.0,0.0,2.052,2.2834,2.4521,0.0,0.0,2.5098,2.4658,2.4228,2.3799,2.3369,2.3169,2.3091,2.3091,2.3091,2.3091,2.3091,2.3091,2.3091,2.3091,2.3091,2.3091,2.3091,2.3091,2.3023,2.2877,2.2637,2.2441,2.2256,2.1492,2.119,2.1151,2.0781,2.0605,2.0625,2.0723,2.0781,2.0791,2.0977,2.1094,2.122,2.1356,2.1455,2.1484,2.1602,2.1502,2.1475,2.1641,2.1777,2.1885,2.1885,2.21,2.2236,2.1953,2.2002,2.2031,2.1738,2.1572,2.1377,2.1084,2.1025,2.0928,2.0654,2.0488,2.0215,1.9775,1.9355,1.9033,1.8896,1.8623,1.8354,1.8217,1.7978,1.7519,1.6765,1.657,1.6523,1.6523,1.6261,1.6173,1.6278,1.6016,1.6064,1.6514,1.6523,1.656,1.6697,1.7031,1.6856,1.6304,1.6516,1.5885,0.0,1.9101,1.9702,1.9459,1.8207,0.0,0.0,0.0,1.5215,1.4807,1.5272,1.5618,1.5208,1.5611,1.601,1.5986,1.6287,1.6558,0.0,0.0,0.0,2.1036,0.0,0.0,0.0,2.5039,2.493,2.4453,2.4033,2.3603,2.312,2.3091,2.3091,2.3091,2.3091,2.3091,2.3091,2.3091,2.3091,2.3091,2.3091,2.3091,2.3091,2.3091,2.3091,2.3081,2.2818,2.2656,0.0,2.1768,2.1346,2.1171,2.0928,2.082,2.084,2.1045,2.1104,2.1124,2.125,2.1377,2.1504,2.1629,2.1904,2.207,2.1797,2.1453,2.1317,2.1953,2.2012,2.1924,2.208,2.2314,2.249,2.2383,2.2441,2.2441,2.2178,2.2002,2.1758,2.1278,2.119,2.1094,2.0683,2.0605,2.0458,1.998,1.9697,1.9463,1.9307,1.9053,1.8851,1.8851,1.8471,1.7993,1.7457,1.7126,1.695,1.695,1.675,1.6611,1.6697,1.6465,1.6523,1.6973,1.695,1.7051,1.7184,1.749,1.7364,1.6833,1.7017,1.651,0.0,0.0,0.0,0.0,0.0,0.0,0.0,0.0,0.0,1.4841,1.5026,1.5264,1.5015,1.5148,1.5458,1.6004,1.6158,1.6614,0.0,1.8694,0.0,0.0,2.3329,0.0,2.3844,2.4587,2.4853,2.4443,2.4004,2.3564,2.312,2.3091,2.3091,2.3091,2.3091,2.3091,2.3091,2.3091,2.3091,2.3091,2.3091,2.3091,2.3091,2.3091,2.3091,0.0,2.3091,2.2877,2.2519,2.21,2.1689,2.1278,2.1249,2.1239,2.1288,2.1738,2.1885,2.1943,2.2334,2.2207,2.1953,2.2344,2.2471,2.2471,2.2471,2.1892,2.1453,2.2324,2.2256,2.2031,2.2451,2.2559,2.2656,2.3003,2.2799,2.2559,2.2559,2.2227,2.1807,2.1327,2.122,2.1094,2.0683,2.0605,2.0468,2.0019,1.9932,1.9785,1.9424,1.9346,1.9336,1.9336,1.8939,1.8685,1.8646,1.791,1.7432,1.7432,1.7435,1.7217,1.6804,1.6765,1.695,1.7422,1.7432,1.7627,1.8008,1.8008,1.8008,1.8008,1.8008,1.7554,1.5473,0.0,1.5857,1.5883,1.5688,1.5509,0.0,0.0,0.0,0.0,0.0,0.0,0.0,1.5914,1.6042,1.6084,1.6701,1.7381,1.7929,0.0,0.0,2.3189,2.4822,2.5444,2.4277,2.4395,2.4531,2.4424,2.3666,2.3198,2.3101,2.3091,2.3091,2.3091,2.3091,2.3091,2.3091,2.3091,2.3091,2.3091,2.3091,2.3091,2.3091,2.3091,2.3091,2.3091,2.3091,2.3042,2.2916,2.2539,2.2305,2.2178,2.1855,2.1738,2.1748,2.1846,2.1885,2.1894,2.2002,2.1973,2.1904,2.2002,2.2031,2.2031,2.2031,2.2119,2.2324,2.2799,2.2685,2.2461,2.2838,2.2945,2.2974,2.3071,2.3023,2.2945,2.2945,2.2656,2.2236,2.1816,2.1465,2.1094,2.0683,2.0605,2.0566,2.0468,2.0127,2.0,2.0273,1.9971,1.9766,1.9766,1.9678,1.9482,1.916,1.835,1.7861,1.7861,1.7559,1.748,1.7705,1.7402,1.7432,1.7852,1.7861,1.791,1.8008,1.8008,1.8008,1.8008,1.8008,1.8036,1.5272,1.5198,1.4983,1.4983,1.5006,1.5028,0.0,0.0,0.0,0.0,0.0,0.0,0.0,0.0,1.6659,1.6894,1.7621,0.0,0.0,0.0,2.2846,2.3789,2.4759,2.5169,0.0,2.4496,2.4336,2.4141,2.3471,2.3091,2.3091,2.3091,2.3091,2.3091,2.3091,2.3091,2.3091,2.3091,2.3091,2.3091,2.3091,2.3091,2.3091,2.3091,2.3091,2.3091,2.3091,2.2984,2.2789,2.2607,2.2402,2.2217,2.2187,2.2168,2.2168,2.2168,2.2295,2.2432,2.2236,2.2305,2.2461,2.2461,2.2334,2.2207,2.2402,2.2353,2.2275,2.25,2.2539,2.2568,2.275,2.2955,2.3091,2.3091,2.3091,2.3091,2.3091,2.2916,2.2676,2.2256,2.1826,2.1396,2.0947,2.0742,2.0605,2.0605,2.0361,2.0303,2.0576,2.04,2.0215,2.0215,2.0029,1.9824,1.959,1.8789,1.8301,1.8301,1.79,1.7773,1.7998,1.7793,1.7773,1.8008,1.8159,1.8301,1.8266,1.8496,1.8594,1.8594,1.8594,1.8463,1.5404,1.5554,1.551,1.5165,1.5017,1.5005,0.0,0.0,0.0,0.0,0.0,0.0,0.0,1.668,0.0,0.0,0.0,0.0,2.137,2.2029,2.2836,2.3989,2.4271,0.0,2.4876,2.4548,2.417,2.3818,2.3389,2.3091,2.3091,2.3091,2.3091,2.3091,2.3091,2.3091,2.3091,2.3091,2.3091,2.3091,2.3091,2.3091,2.3091,2.3091,2.3091,2.3091,0.0,0.0,2.2607,2.2607,2.2402,2.2119,2.2471,2.2607,2.2607,2.2607,2.2789,2.3042,2.2734,2.2799,2.3091,2.3091,2.2857,2.2656,2.2916,2.2598,2.206,2.2002,2.2236,2.2529,2.2598,2.2828,2.3091,2.3091,2.3091,2.3091,2.3091,2.3042,2.2896,2.2578,2.2168,2.1768,2.1356,2.1016,2.0811,2.0811,2.0811,2.0811,2.0811,2.0811,2.0781,2.0713,2.0332,2.0088,2.0019,1.9251,1.8802,1.8802,1.8344,1.8135,1.8203,1.8203,1.8203,1.8203,1.8369,1.8447,1.8447,1.8694,1.8792,1.8792,1.8792,1.8332,1.5409,1.6728,1.7361,1.5406,1.5127,1.537,0.0,0.0,0.0,0.0,0.0,0.0,0.0,1.7524,1.7656,0.0,0.0,2.1803,0.0,0.0,2.4867,2.4337,0.0,2.5053,2.4028,2.389,2.3857,2.3799,2.3389,2.3091,2.3091,2.3091,2.3091,2.3091,2.3091,2.3091,2.3091,2.3091,2.3091,2.3091,2.3091,2.3091,2.3091,2.3091,2.3091,2.3091,0.0,2.3062,2.3003,2.3003,2.2955,2.2906,2.2974,2.3003,2.3003,2.3003,2.3042,2.3081,2.3023,2.3042,2.3091,2.3091,2.3052,2.2945,2.2695,2.2721,2.2828,2.2519,2.2461,2.2598,2.2906,2.3052,2.3091,2.3091,2.3091,2.3091,2.3091,2.2818,2.2588,2.2519,2.2168,2.1865,2.1797,2.1728,2.1689,2.1689,2.1689,2.1689,2.1689,2.1689,2.1543,2.1132,2.1025,2.0879,2.0537,2.001,1.9717,1.9717,1.8939,1.8711,1.9072,1.9092,1.9092,1.9092,1.8257,1.7842,1.7842,1.6928,1.6493,1.6493,1.6493,1.6623,1.5557,1.6365,1.6764,1.6208,1.664,1.7073,0.0,0.0,0.0,0.0,0.0,0.0,0.0,0.0,1.926,2.0518,0.0,2.2463,2.366,2.3856,2.3895,0.0,0.0,2.4293,2.3821,2.3771,2.3691,2.3457,2.3208,2.3091,2.3091,2.3091,2.3091,2.3091,2.3091,2.3091,2.3091,2.2867,2.2867,2.3091,2.2867,2.2877,2.3091,2.3091,2.3091,2.3091,0.0,2.2964,2.276,2.276,2.276,2.276,2.276,2.2896,2.3091,2.3091,2.3091,2.3091,2.3091,2.3091,2.3091,2.3091,2.2945,2.2769,2.2799,2.2779,2.2769,2.2799,2.2808,2.2847,2.3042,2.3091,2.3091,2.3091,2.3091,2.3091,2.3091,2.2945,2.2808,2.2808,2.251,2.2217,2.2217,2.2031,2.1885,2.1885,2.1885,2.1885,2.1885,2.1885,2.1719,2.1239,2.0688,2.0417,2.0596,1.965,1.9203,1.9553,1.9209,1.9082,1.9277,1.9287,1.9287,1.9287,1.8443,1.8015,1.8015,1.7122,1.6704,1.6704,1.6704,1.6516,1.5733,1.6265,1.6645,1.7069,0.0,0.0,0.0,0.0,0.0,0.0,0.0,0.0,0.0,1.9086,0.0,2.2604,2.2832,2.2956,2.3668,2.3365,2.3189,2.359,2.356,2.3551,2.376,2.3691,2.3496,2.312,2.3091,2.3091,2.3091,2.3091,2.3091,2.3091,2.3091,2.3091,2.3091,2.2682,2.2682,2.3091,2.2672,2.2691,2.3091,2.3091,2.3091,2.3091,2.3091,2.2916,2.2656,2.2656,2.2607,2.2519,2.2617,2.2808,2.3091,2.3091,2.3091,2.3091,2.3091,2.3091,2.3091,2.3091,2.2877,2.2629,2.2678,2.2457,2.2222,2.223,2.2271,2.2413,2.296,2.3091,2.3047,2.2775,2.2906,2.296,2.2359,2.2687,2.3003,2.2721,2.2655,2.2571,2.2251,2.1949,2.1644,2.1391,2.156,2.178,2.178,2.2,2.1887,2.1154,2.0287,1.9887,2.0205,1.9155,1.8802,1.9563,1.959,1.959,1.959,1.959,1.9506,1.9237,1.8459,1.7943,1.7709,1.692,1.6568,1.6568,1.6568,1.6154,1.5821,1.7483,1.8766,1.7678,1.7062,0.0,2.0439,2.0106,0.0,2.1698,0.0,0.0,0.0,2.0066,2.0816,2.221,2.3078,2.3949,2.4849,0.0,2.4754,2.4365,2.3975,2.3795,2.3789,2.3428,2.313,2.3091,2.3091,2.3091,2.3091,2.3091,2.3091,2.3091,2.3091,2.3091,2.3091,2.2682,2.2682,2.3091,2.2672,2.2691,2.3091,2.3091,2.3091,2.3091,2.3091,2.3081,2.3052,2.3052,2.2818,2.2549,2.2896,2.3062,2.3091,2.3091,2.3091,2.3091,2.3091,2.3091,2.3091,2.3091,2.3071,2.2867,2.1747,2.1417,2.1167,2.0079,1.977,2.026,2.2501,2.3091,2.2818,2.1702,2.2306,2.2501,2.0223,2.1498,2.2775,2.1667,2.2331,2.2683,2.1577,2.1363,2.0944,1.9822,2.0632,2.1345,2.1345,2.2309,2.2428,2.0896,2.0386,1.9851,1.9188,1.9009,1.9386,2.043,2.0507,2.0507,2.0507,2.0507,2.0032,1.9034,1.7929,1.6887,1.5865,1.4845,1.4334,1.4334,1.4334,1.4435,1.5954,1.7433,1.8701,1.819,1.8372,0.0,0.0,2.0556,1.9933,2.1651,2.1791,0.0,0.0,0.0,2.2207,2.2605,2.3509,2.4248,2.459,2.4668,2.4502,2.4072,2.3887,2.3682,2.3408,2.3188,2.3091,2.3091,2.3091,2.3091,2.3091,2.3091,2.3091,2.3091,2.3091,2.3091,2.3091,2.2682,2.2682,2.3091,2.2672,2.2691,2.3091,2.3091,2.3091,2.3091,2.3091,2.2945,2.2711,2.2711,2.2656,2.2549,2.2925,2.3091,2.3091,2.3091,2.3091,2.3091,2.3091,2.3091,2.3091,2.3091,2.3091,2.3003,2.2536,2.1898,2.1203,2.0755,2.0079,1.9724,2.0629,2.0863,2.0764,2.0305,2.0531,2.0629,1.9724,2.0223,2.0719,2.026,2.0539,2.0719,2.026,2.0169,2.0034,1.9588,1.9898,2.044,2.1203,2.1033,2.0802,2.0717,1.9669,1.8854,1.8666,1.9003,1.974,2.0897,2.0723,2.0605,2.0605,2.0605,2.0079,1.9036,1.7868,1.6764,1.5696,1.4615,1.4182,1.4355,1.4355,1.4516,1.6392,1.7515,1.8595,1.8817,0.0,0.0,2.2727,2.149,2.06,2.2963,2.3075,2.2649,2.2471,0.0,0.0,0.0,2.36,2.4219,2.4219,2.4219,2.4062,2.3633,2.3584,2.3467,2.312,2.3091,2.3091,2.3091,2.3091,2.3033,2.2906,2.3023,2.3033,2.2896,2.3023,2.3033,2.2896,2.2656,2.2588,2.2744,2.2588,2.2691,2.3091,2.2955,2.2974,2.3091,2.2955,2.274,2.251,2.251,2.2588,2.2682,2.2838,2.2974,2.3091,2.3091,2.3091,2.3091,2.3091,2.3091,2.3091,2.3091,2.3003,2.2853,2.2485,2.1748,2.1024,2.0615,1.976,1.8948,1.8948,1.9222,1.9405,1.8993,1.9222,1.9314,1.8488,1.894,1.9405,1.9001,1.9222,1.936,1.9001,1.8948,1.8818,1.8395,1.8672,1.9222,2.0079,1.9761,1.9529,1.9596,1.8246,1.7631,1.8337,1.882,1.9732,2.1314,2.1152,2.0731,2.0137,2.0079,1.9448,1.8111,1.7335,1.6448,1.5475,1.4735,1.4469,1.4663,1.4663,1.4816,1.7134,1.7881,1.8782,0.0,0.0,0.0,2.5031,2.319,2.2144,2.6412,2.5647,2.3911,2.2992,2.2248,0.0,2.269,2.3354,2.3779,2.3779,2.3779,2.3623,2.3149,2.3091,2.3091,2.3091,2.3091,2.3091,2.3091,2.3091,2.2916,2.2539,2.2867,2.2906,2.2529,2.2877,2.2886,2.2519,2.251,2.2295,2.1894,2.2305,2.2682,2.3071,2.2705,2.2701,2.3071,2.2652,2.251,2.2519,2.2519,2.2721,2.3052,2.2676,2.273,2.3091,2.3091,2.3091,2.3091,2.3091,2.3091,2.3091,2.3091,2.2818,2.2297,2.108,2.0716,2.0455,1.9173,1.8275,1.7684,1.7692,1.8596,1.9177,1.7963,1.8588,1.881,1.6332,1.7708,1.9131,1.7917,1.8642,1.9093,1.787,1.7692,1.7271,1.5967,1.685,1.7692,1.7692,1.8726,1.8894,1.7334,1.6106,1.6213,1.824,1.838,1.9418,2.1719,2.1894,2.1027,1.913,1.9015,1.8079,1.6182,1.6104,1.572,1.5008,1.5008,1.5008,1.5015,1.5015,1.5169,1.6431,1.7868,0.0,1.9319,0.0,0.0,0.0,2.4154,0.0,0.0,2.4416,2.3042,2.344,2.3069,0.0,2.235,2.2859,2.3286,2.3286,2.3286,2.3247,2.311,2.3091,2.3091,2.3091,2.3091,2.3091,2.3091,2.3091,2.3042,2.2916,2.3033,2.3042,2.2916,2.274,2.2637,2.251,2.2217,2.2012,2.1885,2.1699,2.1951,2.2662,2.2838,2.2974,2.3071,2.2652,2.2676,2.2906,2.2906,2.2808,2.2672,2.2847,2.2984,2.3091,2.3091,2.3091,2.3091,2.3091,2.3091,2.3091,2.3091,2.3013,2.2862,2.2495,2.1606,2.0683,2.0598,1.8946,1.7286,1.7624,1.7311,1.6796,1.6433,1.6662,1.6702,1.5967,1.6379,1.6796,1.6433,1.6662,1.6796,1.6433,1.6339,1.6251,1.5879,1.6103,1.6339,1.6339,1.7451,1.7732,1.6341,1.5879,1.6306,1.7758,1.8366,1.9365,2.0949,2.1614,2.1644,2.1046,2.0168,1.9071,1.7728,1.6873,1.5986,1.5008,1.5008,1.5115,1.5264,1.5264,1.5424,1.7246,1.8834,0.0,2.0659,2.2719,2.4975,2.6057,0.0,0.0,0.0,2.4419,2.3515,2.3752,2.3268,0.0,2.2549,2.2846,2.3091,2.3091,2.3091,2.3091,2.3091,2.3091,2.3091,2.3091,2.3091,2.3091,2.3091,2.3091,2.2945,2.2656,2.2916,2.2867,2.236,2.2471,2.2353,2.2012,2.1758,2.1533,2.1398,2.1279,2.1463,2.2021,2.2451,2.2779,2.3062,2.2519,2.2305,2.235,2.2526,2.249,2.2305,2.2682,2.2847,2.2847,2.2847,2.2955,2.3091,2.3091,2.2775,2.2448,2.295,2.2659,2.2254,2.2708,2.2055,2.1276,2.1677,2.0175,1.8572,1.9034,1.8211,1.7023,1.6008,1.5784,1.5784,1.5784,1.5784,1.5784,1.5784,1.5784,1.5784,1.5784,1.5784,1.5784,1.5784,1.5784,1.5784,1.5784,1.648,1.6669,1.5879,1.5784,1.6339,1.7598,1.8536,1.9605,2.0853,2.185,2.2383,2.2383,2.0428,1.8904,1.7922,1.6743,1.5843,1.5304,1.5304,1.5398,1.5571,1.5571,1.5665,1.8806,0.0,0.0,2.2887,2.4958,0.0,2.8649,2.8143,2.7048,2.5808,0.0,2.4763,2.4043,2.3173,2.2652,2.3033,2.3091,2.3091,2.3091,2.3091,2.3091,2.3091,2.3091,2.3081,2.3042,2.3042,2.3042,2.3042,2.3003,2.2705,2.1982,2.2627,2.2448,2.1288,2.197,2.198,2.12,2.1151,2.0967,2.0605,2.0977,2.1151,2.121,2.1689,2.2275,2.2886,2.2197,2.1611,2.1171,2.1689,2.1865,2.1865,2.2295,2.2461,2.2461,2.25,2.2711,2.3042,2.3081,2.2277,2.147,2.2663,2.1976,2.0887,2.2092,2.2158,2.1924,2.2383,2.1588,2.0761,2.1184,2.0395,1.8902,1.652,1.5967,1.592,1.5832,1.5784,1.5784,1.5784,1.5784,1.5784,1.5784,1.5784,1.5784,1.5784,1.5784,1.5784,1.5784,1.5784,1.5784,1.5784,1.5784,1.6244,1.7412,1.8634,1.9807,2.089,2.2076,2.2775,2.2775,2.0009,1.8181,1.7417,1.6102,1.5565,1.5784,1.5784,1.5784,1.5784,1.5784,1.5784,1.7919,1.9284,0.0,0.0,2.5965,2.8612,2.9428,2.874,2.7742,2.7041,2.5796,2.4776,2.4634,2.3704,2.2994,2.3081,2.3091,2.3091,2.3091,2.3091,2.3091,2.3091,2.3091,2.2964,2.2676,2.2646,2.2646,2.2646,2.2344,2.2217,2.2373,2.2236,2.2031,2.1758,2.1551,2.1385,2.119,2.0889,2.0703,2.0605,2.0703,2.0889,2.121,2.1689,2.1797,2.1609,2.1816,2.1435,2.0811,2.1562,2.168,2.1416,2.1855,2.2021,2.206,2.2393,2.2568,2.2652,2.2984,2.2186,2.1156,2.2284,2.1594,2.051,2.1659,2.1719,2.1492,2.2295,2.1381,2.0323,2.1112,2.0395,1.9131,1.763,1.7271,1.7037,1.6015,1.5784,1.5784,1.5784,1.5784,1.5784,1.5784,1.5784,1.5784,1.5784,1.5784,1.5784,1.5784,1.5784,1.5784,1.5784,1.5784,1.592,1.6204,1.7358,1.8187,1.8457,1.9588,2.026,2.026,1.9611,1.9163,1.9009,1.6829,1.5718,1.5784,1.5784,1.5784,1.5784,1.5784,1.5784,1.7802,0.0,0.0,2.4285,0.0,2.8687,2.9252,2.8918,2.8494,2.8482,2.6973,2.5462,2.4914,2.4755,2.4553,2.4006,2.392,2.3714,2.3178,2.3091,2.3023,2.2818,2.2974,2.2847,2.2275,2.2393,2.2432,2.2227,2.2012,2.1885,2.1863,2.1894,2.1689,2.131,2.124,2.1093,2.0918,2.0684,2.0605,2.0605,2.0605,2.0723,2.0937,2.1592,2.165,2.121,2.1475,2.1191,2.0654,2.1299,2.1318,2.0957,2.1396,2.1572,2.1621,2.2051,2.2344,2.2578,2.2945,2.177,2.0237,2.1349,2.0399,1.9003,2.0204,2.0325,2.0195,2.0885,2.0271,1.9583,2.024,1.9988,1.936,1.8726,1.8141,1.7365,1.6062,1.5784,1.5784,1.5784,1.5784,1.5784,1.5784,1.5784,1.5784,1.5784,1.5784,1.5784,1.5784,1.5784,1.5784,1.5784,1.5784,1.5784,1.5784,1.699,1.7692,1.7692,1.8818,1.9497,1.9497,1.8956,1.8634,1.8634,1.735,1.6433,1.5784,1.5784,1.5784,1.5784,1.5784,1.5784,1.8025,0.0,2.2647,2.5501,2.708,0.0,2.8624,2.875,2.8838,2.916,2.7921,2.6502,2.5535,2.5887,2.6083,2.5241,2.4851,2.4343,2.3441,2.3114,2.2838,2.2451,2.2672,2.2617,2.1846,2.209,2.2148,2.1797,2.1699,2.1533,2.121,2.1504,2.1368,2.0625,2.0928,2.0937,2.0605,2.0605,2.0605,2.0605,2.0605,2.0605,2.0625,2.1368,2.1465,2.1123,2.1123,2.0908,2.0635,2.0967,2.0898,2.0644,2.0977,2.1132,2.1249,2.1728,2.2148,2.2568,2.2867,2.1266,1.9222,2.0357,1.9198,1.7577,1.8889,1.9301,1.9377,1.9659,1.9452,1.9212,1.9443,1.9497,1.9497,1.9497,1.8726,1.7677,1.6386,1.6109,1.6062,1.5825,1.5784,1.5784,1.5784,1.5784,1.5784,1.5784,1.5784,1.5784,1.5784,1.5784,1.5784,1.5784,1.5784,1.5784,1.5784,1.6756,1.7365,1.7365,1.8311,1.8848,1.8848,1.8087,1.7598,1.7365,1.7365,1.685,1.5784,1.5784,1.5784,1.5784,1.5784,1.5784,0.0,0.0,2.3389,0.0,2.6226,2.7544,0.0,0.0,2.7977,0.0,2.745,2.7844,2.7683,2.6588,2.5835,2.6199,2.5056,2.4106,2.4054,2.3205,2.2441,2.2021,2.2021,2.1865,2.1327,2.1337,2.1337,2.1288,2.0957,2.0889,2.1181,2.0918,2.0723,2.0605,2.0664,2.0664,2.0605,2.0605,2.0605,2.0605,2.0605,2.0605,2.0605,2.0723,2.0752,2.0693,2.0693,2.0664,2.0605,2.0674,2.0664,2.0615,2.0674,2.0889,2.1249,2.1728,2.2148,2.2519,2.2578,2.0854,1.8835,1.9811,1.9125,1.8119,1.9493,2.0651,2.1352,2.0732,2.049,2.0316,1.9669,1.9497,1.9497,1.9497,1.936,1.8948,1.7731,1.7458,1.7131,1.6015,1.5784,1.5784,1.5784,1.5784,1.5784,1.5784,1.5784,1.5784,1.5784,1.5784,1.5784,1.5784,1.5784,1.5784,1.5784,1.5967,1.6062,1.6062,1.6197,1.6285,1.6285,1.7217,1.7178,1.6062,1.6062,1.5967,1.5784,1.5784,1.5784,1.5784,1.5784,1.5784,1.8109,2.0016,2.1683,0.0,2.3966,2.5259,2.6427,0.0,2.7249,2.7373,2.7777,2.7991,2.7726,2.7305,2.6984,2.693,2.5603,2.4374,2.3798,2.2826,2.2002,2.1572,2.1738,2.1611,2.0928,2.1094,2.1093,2.0879,2.0713,2.0693,2.085,2.0439,2.0312,2.0595,2.0322,2.0312,2.0605,2.0322,2.0195,2.0195,2.0195,2.037,2.0605,2.0605,2.0605,2.0605,2.0605,2.0605,2.0605,2.0605,2.0605,2.0605,2.0605,2.084,2.1249,2.1728,2.2002,2.2197,2.2432,2.1025,1.9281,1.9922,1.9236,1.8378,1.9255,2.0,2.0351,1.9306,1.904,1.8755,1.7717,1.7436,1.7623,1.8319,1.8503,1.8373,1.7824,1.7692,1.7318,1.6062,1.5784,1.5784,1.5784,1.5784,1.5784,1.5784,1.5784,1.5784,1.5784,1.5784,1.5784,1.5784,1.5784,1.5784,1.5784,1.5784,1.5784,1.5784,1.5784,1.5784,1.5784,1.6339,1.6386,1.5832,1.648,1.6527,1.5784,1.5784,1.5784,1.5784,1.5784,1.5784,0.0,0.0,1.9775,2.0614,2.1766,2.3083,0.0,0.0,2.6147,0.0,2.7381,2.7318,2.6941,2.7434,2.7803,2.7547,2.6185,2.488,2.4041,2.3095,2.2211,2.1491,2.17,2.16,2.0713,2.0869,2.0928,2.0635,2.0605,2.0605,2.0605,2.0146,2.0059,2.0429,1.998,1.9912,2.0282,1.9922,1.9756,1.9756,1.9756,1.9922,2.0282,2.039,2.0439,2.0449,2.0556,2.0605,2.0605,2.0605,2.0605,2.0605,2.0605,2.0908,2.1405,2.1768,2.1953,2.209,2.2402,2.1273,1.9833,2.0181,1.9753,1.9091,1.9516,1.9822,1.9724,1.8503,1.7963,1.7412,1.6109,1.5784,1.6103,1.7412,1.7692,1.7692,1.7692,1.7458,1.6943,1.5967,1.5784,1.5784,1.5784,1.5784,1.5784,1.5784,1.5784,1.5784,1.5784,1.5784,1.5784,1.5784,1.5784,1.5784,1.5784,1.5784,1.5784,1.5784,1.5784,1.5784,1.5784,1.5784,1.5784,1.5784,1.6716,1.6763,1.5784,1.5784,1.5784,1.5784,1.5784,1.5784,0.0,1.7718,0.0,1.8859,0.0,0.0,0.0,0.0,2.4293,2.4838,2.5385,2.5737,2.5695,2.6581,2.7507,2.7974,2.6651,2.5569,2.5667,2.4739,2.3552,2.2122,2.1977,2.1645,2.0683,2.0625,2.0635,2.0605,2.0605,2.0605,2.0605,2.0146,1.9922,1.9951,1.9541,1.9336,1.9355,1.9336,1.9316,1.9316,1.9316,1.9336,1.9365,1.9766,1.9951,1.9971,2.0429,2.0605,2.0605,2.0605,2.0605,2.0605,2.0605,2.1134,2.1855,2.1875,2.2139,2.248,2.251,2.1504,2.0232,2.0553,2.0732,2.0804,2.1104,2.1185,2.0935,1.9761,1.8596,1.7412,1.6109,1.5784,1.6103,1.7412,1.7692,1.7692,1.7692,1.6763,1.5879,1.5825,1.5784,1.5784,1.5784,1.5784,1.5784,1.5784,1.5784,1.5784,1.5784,1.5784,1.5784,1.5784,1.5784,1.5784,1.5784,1.5784,1.5784,1.5784,1.5784,1.5784,1.5784,1.5784,1.5784,1.5784,1.5872,1.5872,1.5784,1.5784,1.5784,1.5784,1.5784,1.5784,0.0,0.0,0.0,1.8324,1.892,1.9735,2.1119,2.1926,2.2648,2.3521,2.418,2.4682,2.5034,2.6,2.6851,2.7052,2.5738,2.4708,2.4778,2.3579,2.2648,2.2491,2.2466,2.2183,2.1562,2.1479,2.1366,2.1005,2.0478,2.0284,2.0577,1.9608,1.9182,1.9502,1.9092,1.8867,1.8867,1.8867,1.8867,1.8867,1.8867,1.9014,1.9287,1.9443,1.9658,1.9922,2.0078,2.0303,2.0605,2.0605,2.0605,2.0605,2.0605,2.0937,2.1504,2.1787,2.1982,2.2148,2.2422,2.1964,2.1332,2.175,2.1883,2.2002,2.2368,2.1889,2.1069,1.9852,1.8634,1.7412,1.6109,1.5784,1.592,1.6386,1.648,1.648,1.648,1.6103,1.5784,1.5784,1.5784,1.5784,1.5784,1.5784,1.5784,1.5784,1.5784,1.5784,1.5784,1.5784,1.5784,1.5784,1.5784,1.5784,1.5784,1.5784,1.5784,1.5784,1.5784,1.5784,1.5784,1.5784,1.5784,1.5784,1.5784,1.5784,1.5784,1.5784,1.5784,1.5784,1.5784,1.5784,0.0,0.0,0.0,0.0,0.0,1.8434,1.9591,2.0378,2.1137,2.2092,2.2761,2.3263,2.364,2.4607,2.5473,2.5883,2.5071,2.4389,2.4389,2.3514,2.2765,2.2495,2.2704,2.2415,2.1222,2.1613,2.1597,2.0647,2.0306,0.0,2.017,1.9177,1.8666,1.8857,1.8539,1.8393,1.8393,1.8393,1.8393,1.8393,1.8393,1.8539,1.8867,1.9004,1.9219,1.9465,1.9757,2.0166,2.0605,2.0605,2.0605,2.0605,2.0605,2.084,2.1249,2.1728,2.1885,2.1963,2.2529,2.2451,2.2168,2.2588,2.2682,2.273,2.3013,2.2262,2.1114,2.035,1.9222,1.8087,1.7257,1.6749,1.6339,1.592,1.5784,1.5784,1.5784,1.5784,1.5784,1.5784,1.5784,1.5784,1.5784,1.5784,1.5784,1.5784,1.5784,1.5784,1.5784,1.5784,1.5784,1.5784,1.5784,1.5784,1.5784,1.5784,1.5784,1.5784,1.5784,1.5784,1.5784,1.5784,1.5784,1.5784,1.5784,1.5784,1.5784,1.5784,1.5784,1.5784,1.5784,1.5784,0.0,0.0,0.0,0.0,0.0,0.0,1.8462,0.0,1.9756,2.0476,2.1056,2.1418,2.1443,2.2309,2.3371,2.4487,2.4713,2.4738,2.4738,2.4738,2.4083,2.2218,2.2773,2.2241,1.9604,2.0875,2.1145,1.9439,2.0104,2.0191,1.9357,1.8838,1.8383,1.8008,1.7978,1.7978,1.7988,1.7988,1.7998,1.8008,1.8008,1.8008,1.8018,1.8393,1.8588,1.8646,1.9494,2.0146,2.0586,2.0595,2.0605,2.0605,2.0605,2.083,2.1229,2.1719,2.1885,2.2012,2.2808,2.2828,2.2598,2.2964,2.3091,2.3091,2.3091,2.2262,2.1293,2.1293,2.044,1.9497,1.9497,1.8596,1.7412,1.6157,1.5832,1.5784,1.5784,1.5784,1.5784,1.5784,1.5784,1.5784,1.5784,1.5784,1.5784,1.5784,1.5784,1.5784,1.5784,1.5784,1.5784,1.5784,1.5784,1.5784,1.5784,1.5784,1.5784,1.5784,1.5784,1.5784,1.5784,1.5784,1.5784,1.5784,1.5784,1.5784,1.5784,1.5784,1.5784,1.5784,1.5784,1.5784,1.8332,0.0,0.0,0.0,0.0,0.0,0.0,0.0,1.8025,1.8622,1.9233,1.9798,2.02,2.0514,2.0966,2.1722,2.2824,2.3572,2.3572,2.3572,2.3293,2.2589,2.2734,2.2203,2.0546,2.0825,2.0712,0.0,1.9962,1.9851,1.9335,1.8311,1.7676,1.7559,1.7256,1.7236,1.7549,1.7559,1.7705,1.8008,1.8008,1.8008,1.8018,1.8135,1.8315,1.8627,1.9219,1.9697,2.0117,2.0478,2.0605,2.0605,2.0605,2.0683,2.084,2.1602,2.1885,2.2012,2.2808,2.3023,2.2945,2.3052,2.3091,2.3091,2.3091,2.2262,2.1293,2.1293,2.044,1.9497,1.9497,1.8596,1.7598,1.7271,1.648,1.5784,1.5784,1.5784,1.5784,1.5784,1.5784,1.5784,1.5784,1.5784,1.5784,1.5784,1.5784,1.5784,1.5784,1.5784,1.5784,1.5784,1.5784,1.5784,1.5784,1.5784,1.5784,1.5784,1.5784,1.5784,1.5784,1.5784,1.5784,1.5784,1.5784,1.5784,1.5784,1.5784,1.5784,1.5784,1.5784,1.5784,0.0,0.0,0.0,0.0,0.0,0.0,1.686,1.6964,1.7246,1.7661,1.8056,1.8505,1.9032,1.9133,1.9246,1.961,2.0828,2.1879,2.2355,2.2418,2.2224,2.1732,2.1706,2.1158,1.9698,2.0067,1.9925,1.8678,1.9577,1.9853,1.9036,1.8289,1.7666,1.7119,1.7041,1.7129,1.7383,1.7559,1.7764,1.8008,1.8008,1.8008,1.8008,1.8008,1.8144,1.8373,1.9023,1.9424,1.9697,2.0351,2.0605,2.0605,2.0605,2.0684,2.0928,2.1631,2.1992,2.2246,2.2867,2.3091,2.3091,2.3091,2.3091,2.3091,2.3091,2.2633,2.2031,2.2031,2.1534,2.0899,2.0395,1.936,1.8319,1.7824,1.7131,1.6574,1.6574,1.6574,1.6433,1.592,1.5784,1.5784,1.5784,1.5784,1.5784,1.5784,1.5784,1.5784,1.5784,1.5784,1.5784,1.5784,1.5784,1.5784,1.5784,1.5784,1.5784,1.5784,1.5945,1.5959,1.5832,1.5945,1.5952,1.5784,1.5784,1.5892,1.6012,1.5885,1.5784,1.5784,1.5952,1.6012,0.0,0.0,0.0,0.0,0.0,0.0,1.6933,1.6822,1.7004,1.722,1.7287,1.7438,1.7928,1.8016,1.8041,1.8127,1.8932,1.9949,2.1129,2.1405,2.1163,2.0213,2.0155,1.9534,1.7871,1.8785,1.8697,1.6843,1.8839,1.9693,1.8585,1.8385,1.7809,1.667,1.7031,1.7298,1.7314,1.7734,1.7969,1.8008,1.8008,1.8008,1.8008,1.8008,1.8008,1.8057,1.8916,1.9287,1.9355,2.0253,2.0605,2.0605,2.0605,2.084,2.1249,2.1728,2.2148,2.2578,2.2945,2.3091,2.3091,2.3091,2.3091,2.3091,2.3091,2.3091,2.3091,2.3091,2.3091,2.2818,2.1614,2.0395,1.9177,1.801,1.7692,1.7692,1.7692,1.7692,1.7365,1.6251,1.592,1.5784,1.5784,1.5784,1.5784,1.5784,1.5784,1.5784,1.5784,1.5784,1.5784,1.5784,1.5784,1.5784,1.5784,1.5784,1.5784,1.5784,1.6079,1.6106,1.5791,1.6086,1.6099,1.5832,1.5784,1.5979,1.6321,1.5972,1.5798,1.5838,1.6119,1.6239,0.0,0.0,0.0,0.0,0.0,0.0,1.6414,1.6379,1.6554,1.647,1.6523,1.6635,1.6801,1.6782,1.6977,1.7676,1.7852,1.8416,1.9911,2.0916,2.1027,1.9713,1.9159,1.8414,1.7278,1.6971,1.6818,1.6709,1.7161,1.7644,1.8091,1.7134,1.6484,1.6222,1.631,1.6525,1.6824,1.7295,1.7676,1.8008,1.8008,1.8008,1.8008,1.8008,1.8008,1.8057,1.8916,1.9287,1.9355,2.0253,2.0605,2.0605,2.0605,2.084,2.1249,2.1728,2.2148,2.2578,2.2945,2.3091,2.3091,2.3091,2.3091,2.3091,2.3091,2.3091,2.3091,2.3091,2.3091,2.2818,2.1614,2.0395,1.9177,1.801,1.7692,1.7692,1.7692,1.7692,1.7645,1.7365,1.648,1.5784,1.5784,1.5784,1.5784,1.5784,1.5784,1.5784,1.5784,1.5784,1.5784,1.5784,1.5784,1.5784,1.5784,1.5784,1.5784,1.5784,1.5838,1.5885,1.5784,1.5838,1.5885,1.5784,1.5784,1.5979,1.6321,1.5972,1.5952,1.6179,1.5999,1.6046,0.0,0.0,0.0,1.8985,0.0,0.0,0.0,1.6548,1.65,1.6457,1.65,1.6599,1.6714,1.6714,1.6816,1.7151,1.7387,1.7812,1.8551,1.9359,1.9581,1.8899,1.8215,1.7489,1.6688,1.6394,1.6547,1.7276,1.7512,1.7648,1.7698,1.7436,1.6946,1.6125,1.6279,1.6611,1.7051,1.748,1.7803,1.8008,1.8008,1.8008,1.8008,1.8008,1.8008,1.8057,1.8916,1.9287,1.9355,2.0253,2.0605,2.0605,2.0605,2.084,2.122,2.1444,2.1836,2.2227,2.2441,2.2646,2.2779,2.2779,2.2925,2.3091,2.3091,2.3091,2.3091,2.3091,2.2677,2.2217,2.2217,2.0854,1.9497,1.9497,1.9497,1.9497,1.9497,1.8993,1.8596,1.8596,1.7077,1.5784,1.5784,1.5784,1.5784,1.5784,1.5784,1.5784,1.5784,1.5784,1.5838,1.6039,1.5919,1.5885,1.6039,1.5912,1.5784,1.5784,1.6106,1.6199,1.6059,1.6333,1.6353,1.6052,1.5905,1.5979,1.6321,1.6126,1.6052,1.6052,1.6052,1.6206,0.0,0.0,0.0,0.0,0.0,1.8855,0.0,0.0,0.0,1.6727,0.0,0.0,0.0,0.0,0.0,1.6846,0.0,0.0,0.0,1.7726,0.0,1.8041,1.7423,1.676,1.6241,1.6299,1.6785,1.7711,1.8071,1.801,1.7481,1.7867,1.7575,1.6357,1.6556,1.6943,1.7416,1.7803,1.8008,1.8008,1.8008,1.8008,1.8008,1.8096,1.8135,1.8174,1.9033,1.9404,1.9473,2.0282,2.0605,2.0605,2.0605,2.084,2.119,2.119,2.1514,2.1885,2.1885,2.2158,2.251,2.251,2.275,2.3091,2.3091,2.3091,2.3091,2.3091,2.2217,2.1525,2.2492,2.0953,1.9405,2.0395,2.0853,2.0979,2.0674,2.0085,1.955,1.9282,1.7438,1.5899,1.5791,1.5784,1.5784,1.5784,1.5784,1.5804,1.5905,1.5818,1.5965,1.6319,1.6039,1.5952,1.6246,1.5999,1.5804,1.5912,1.6306,1.6486,1.6359,1.6864,1.6891,1.6366,1.6119,1.6119,1.6359,1.6359,1.6233,1.5999,1.6186,1.6601,0.0,0.0,0.0,0.0,1.9782,0.0,1.8476,0.0,1.7298,1.6957,0.0,0.0,0.0,0.0,0.0,0.0,0.0,0.0,1.7206,1.7029,1.7033,1.7436,1.6887,1.6374,1.6137,1.6295,1.6558,1.6899,1.7181,1.7418,1.7573,1.7037,1.684,1.7054,1.6826,1.6943,1.7416,1.7803,1.8008,1.8008,1.8008,1.8008,1.8018,1.8364,1.8529,1.8578,1.9473,1.9844,1.9883,2.04,2.0605,2.0605,2.0605,2.084,2.119,2.119,2.1514,2.1885,2.1885,2.2158,2.251,2.251,2.275,2.3091,2.3091,2.3091,2.3091,2.3091,2.2217,2.1337,2.1471,1.9724,1.7963,1.8095,1.9188,1.983,1.8435,1.9103,1.9686,1.8483,1.7166,1.6139,1.5872,1.5784,1.5784,1.5784,1.5784,1.5925,1.6186,1.5992,1.6039,1.6593,1.6159,1.5952,1.6246,1.5999,1.5939,1.6206,1.6039,1.6146,1.6633,1.672,1.6727,1.666,1.662,1.662,1.6653,1.6653,1.664,1.66,1.638,1.7246,0.0,0.0,0.0,0.0,0.0,0.0,1.8559,0.0,1.7804,0.0,0.0,0.0,0.0,0.0,0.0,0.0,1.7316,0.0,0.0,0.0,1.6544,0.0,0.0,0.0,1.6115,1.5881,1.6048,1.6744,1.7296,1.7411,1.6985,1.7062,1.7076,1.691,1.6756,1.7028,1.7744,1.793,1.8008,1.8008,1.8008,1.8008,1.8027,1.8412,1.8598,1.8646,1.9504,1.9912,1.9951,2.0429,2.0605,2.0605,2.0605,2.0684,2.084,2.084,2.0967,2.1163,2.1163,2.1406,2.1814,2.2353,2.275,2.3091,2.3091,2.3091,2.3091,2.3091,2.2217,2.148,2.2173,2.1078,1.982,2.0054,2.046,2.0463,1.9236,1.8839,1.8528,1.798,1.6859,1.6032,1.6079,1.6226,1.6339,1.6339,1.6339,1.638,1.6506,1.6413,1.65,1.6914,1.6587,1.6386,1.6513,1.6413,1.6319,1.6279,1.648,1.678,1.7201,1.7048,1.7018,1.7018,1.6794,1.662,1.646,1.6794,1.6874,1.67,1.658,1.7091,2.3777,0.0,0.0,0.0,0.0,0.0,0.0,0.0,0.0,0.0,0.0,0.0,0.0,0.0,0.0,0.0,0.0,1.7322,0.0,1.6645,0.0,0.0,0.0,0.0,0.0,1.5904,1.6058,1.6853,1.7623,1.7746,1.6928,1.7468,1.755,1.7035,1.6941,1.7266,1.8008,1.8008,1.8008,1.8008,1.8008,1.8076,1.8159,1.8588,1.8841,1.8987,1.9775,2.0088,2.0117,2.0478,2.0605,2.0605,2.0605,2.0605,2.0605,2.0605,2.0605,2.0605,2.0605,2.0937,2.1512,2.2402,2.2847,2.3091,2.3091,2.3091,2.3091,2.3091,2.2217,2.1569,2.2775,2.1943,2.088,2.1088,2.1054,2.0585,1.9098,1.8354,1.7859,1.7487,1.6752,1.6286,1.658,1.6607,1.6613,1.6693,1.6707,1.6734,1.682,1.676,1.6847,1.728,1.6927,1.674,1.682,1.6754,1.6613,1.6406,1.6991,1.734,1.7341,1.7347,1.7286,1.7199,1.7014,1.68,1.6563,1.7072,1.7172,1.6827,1.6827,1.7184,0.0,0.0,0.0,2.2757,0.0,0.0,0.0,0.0,1.9124,0.0,0.0,0.0,0.0,0.0,0.0,0.0,0.0,0.0,0.0,0.0,0.0,0.0,0.0,0.0,0.0,1.6667,1.6929,1.7173,1.8043,1.8371,1.7889,1.8128,1.8119,1.778,1.7506,1.7568,1.8008,1.8008,1.8008,1.8008,1.8008,1.8188,1.8598,1.9072,1.9482,1.9902,2.039,2.0586,2.0586,2.0595,2.0605,2.0605,2.0605,2.0605,2.0605,2.0605,2.0605,2.0605,2.0605,2.1173,2.2002,2.2808,2.3081,2.3091,2.3091,2.3091,2.3091,2.3091,2.2217,2.1569,2.2775,2.1355,1.9542,1.9559,1.9853,1.9349,1.655,1.7368,1.8282,1.6966,1.6958,1.7253,1.7488,1.6898,1.638,1.666,1.6707,1.6807,1.7146,1.6881,1.6927,1.7508,1.7048,1.682,1.7166,1.6874,1.67,1.6693,1.7241,1.7315,1.6754,1.7275,1.7494,1.7206,1.7415,1.7467,1.7172,1.7474,1.7474,1.7186,1.7186,1.7997,0.0,0.0,2.3964,2.3785,0.0,0.0,0.0,0.0,0.0,0.0,0.0,0.0,0.0,0.0,0.0,0.0,0.0,0.0,0.0,0.0,0.0,0.0,0.0,0.0,0.0,0.0,1.6943,1.7677,1.8111,1.8548,1.8994,1.9101,1.8899,1.8344,1.8246,1.8142,1.8008,1.8008,1.8008,1.8008,1.8008,1.8198,1.8617,1.9092,1.9512,1.9941,2.0419,2.0605,2.0605,2.0605,2.0605,2.0605,2.0605,2.0605,2.0605,2.0605,2.0605,2.0644,2.0908,2.1572,2.2344,2.2627,2.2867,2.3091,2.3091,2.3091,2.3091,2.3091,2.2818,2.2589,2.3003,2.2501,2.1517,2.0109,1.9706,1.9055,1.6663,1.6662,1.6995,1.6518,1.666,1.6947,1.73,1.7099,1.7005,1.7241,1.7288,1.7321,1.7474,1.7348,1.7361,1.7562,1.7402,1.7248,1.7206,1.7112,1.7132,1.7275,1.7475,1.7495,1.7295,1.7475,1.7535,1.7494,1.7528,1.7494,1.7199,1.7494,1.7435,1.7206,1.74,1.7743,2.4841,2.4562,0.0,2.4035,2.3626,0.0,2.2911,0.0,2.314,0.0,0.0,0.0,0.0,0.0,0.0,0.0,0.0,0.0,0.0,1.6797,0.0,0.0,0.0,0.0,0.0,1.6548,1.6853,1.7926,1.7989,1.8363,0.0,1.9331,1.9118,1.8606,1.8451,1.8271,1.8008,1.8008,1.8008,1.8008,1.8164,1.8422,1.8851,1.9316,1.9746,2.0166,2.0478,2.0605,2.0605,2.0605,2.0605,2.0605,2.0605,2.0605,2.0605,2.0605,2.0703,2.0889,2.1444,2.2051,2.2539,2.2685,2.2877,2.3091,2.3091,2.3091,2.3091,2.3091,2.3091,2.3091,2.3091,2.3091,2.2656,2.0835,1.9929,1.9044,1.7296,1.6689,1.646,1.6616,1.682,1.7081,1.7326,1.7353,1.742,1.7555,1.7582,1.7582,1.7582,1.7582,1.7582,1.7582,1.7582,1.7508,1.7373,1.7353,1.7434,1.7569,1.7582,1.7582,1.7582,1.7582,1.7682,1.7903,1.7689,1.7595,1.7682,1.7595,1.7482,1.736,1.7495,1.7582]}]]